[[{"header":{"parameterUnit":"m.s-1","parameterCategory":1,"la1":31.0,"la2":29.5877,"lo1":-88.7671,"lo2":-86.6584,"dy":0.0162,"dx":0.0185,"nx":115,"ny":88,"refTime":"2023-03-24T18:00:00:Z","depth":0,"parameterNumber":2,"parameterNumberName":"U-component_of_WINDS"},"data":[0.0,0.0,0.0,0.0,0.0,0.0,0.0,0.0,0.0,0.0,0.0,0.0,0.0,0.0,0.0,0.0,0.0,0.0,0.0,0.0,0.0,0.0,0.0,0.0,0.0,0.0,0.0,0.0,0.0,0.0,0.0,0.0,0.0,0.0,0.0,0.0,0.0,0.0,0.0,0.0,0.0,0.0,0.0,0.0,0.0,0.0,0.0,0.0,0.0,0.0,0.0,0.0,0.0,0.0,0.0,0.0,0.0,0.0,0.0,0.0,0.0,0.0,0.0,0.0,0.0,0.0,0.0,0.0,0.0,0.0,0.0,0.0,0.0,0.0,0.0,0.0,0.0,0.0,0.0,0.0,0.0,0.0,0.0,0.0,0.0,0.0,0.0,0.0,0.0,0.0,0.0,0.0,0.0,0.0,0.0,0.0,0.0,0.0,0.0,0.0,0.0,0.0,0.0,0.0,0.0,0.0,0.0,0.0,0.0,0.0,0.0,0.0,0.0,0.0,0.0,0.0,0.0,0.0,0.0,0.0,0.0,0.0,0.0,0.0,0.0,0.0,0.0,0.0,0.0,0.0,0.0,0.0,0.0,0.0,0.0,0.0,0.0,0.0,0.0,0.0,0.0,0.0,0.0,0.0,0.0,0.0,0.0,0.0,0.0,0.0,0.0,0.0,0.0,0.0,0.0,0.0,0.0,0.0,0.0,0.0,0.0,0.0,0.0,0.0,0.0,0.0,0.0,0.0,0.0,0.0,0.0,0.0,0.0,0.0,0.0,0.0,0.0,0.0,0.0,0.0,0.0,0.0,0.0,0.0,0.0,0.0,0.0,0.0,0.0,0.0,0.0,0.0,0.0,0.0,0.0,0.0,0.0,0.0,0.0,0.0,0.0,0.0,0.0,0.0,0.0,0.0,0.0,0.0,0.0,0.0,0.0,0.0,0.0,0.0,0.0,0.0,0.0,0.0,0.0,0.0,0.0,0.0,0.0,0.0,0.0,0.0,0.0,0.0,0.0,0.0,0.0,0.0,0.0,0.0,0.0,0.0,0.0,0.0,0.0,0.0,0.0,0.0,0.0,0.0,0.0,0.0,0.0,0.0,0.0,0.0,0.0,0.0,0.0,0.0,0.0,0.0,0.0,0.0,0.0,0.0,0.0,0.0,0.0,0.0,0.0,0.0,0.0,0.0,0.0,0.0,0.0,0.0,0.0,0.0,0.0,0.0,0.0,0.0,0.0,0.0,0.0,0.0,0.0,0.0,0.0,0.0,0.0,0.0,0.0,0.0,0.0,0.0,0.0,0.0,0.0,0.0,0.0,0.0,0.0,0.0,0.0,0.0,0.0,0.0,0.0,0.0,0.0,0.0,0.0,0.0,0.0,0.0,0.0,0.0,0.0,0.0,0.0,0.0,0.0,0.0,0.0,0.0,0.0,0.0,0.0,0.0,0.0,0.0,0.0,0.0,0.0,0.0,0.0,0.0,0.0,0.0,0.0,0.0,0.0,0.0,0.0,0.0,0.0,0.0,0.0,0.0,0.0,0.0,0.0,0.0,0.0,0.0,0.0,0.0,0.0,0.0,0.0,0.0,0.0,0.0,0.0,0.0,0.0,0.0,0.0,0.0,0.0,0.0,0.0,0.0,0.0,0.0,0.0,0.0,0.0,0.0,0.0,0.0,0.0,0.0,0.0,0.0,0.0,0.0,0.0,0.0,0.0,0.0,0.0,0.0,0.0,0.0,0.0,0.0,0.0,0.0,0.0,0.0,0.0,0.0,0.0,0.0,0.0,0.0,0.0,0.0,0.0,0.0,0.0,0.0,0.0,0.0,0.0,0.0,0.0,0.0,0.0,0.0,0.0,0.0,0.0,0.0,0.0,0.0,0.0,0.0,0.0,0.0,0.0,0.0,0.0,0.0,0.0,0.0,0.0,0.0,0.0,0.0,0.0,0.0,0.0,0.0,0.0,0.0,0.0,0.0,0.0,0.0,0.0,0.0,0.0,0.0,0.0,0.0,0.0,0.0,0.0,0.0,0.0,0.0,0.0,0.0,0.0,0.0,0.0,0.0,0.0,0.0,0.0,0.0,0.0,0.0,0.0,0.0,0.0,0.0,0.0,0.0,0.0,0.0,0.0,0.0,0.0,0.0,0.0,0.0,0.0,0.0,0.0,0.0,0.0,0.0,0.0,0.0,0.0,0.0,0.0,0.0,0.0,0.0,0.0,0.0,0.0,0.0,0.0,0.0,0.0,0.0,0.0,0.0,0.0,0.0,0.0,0.0,0.0,0.0,0.0,0.0,0.0,0.0,0.0,0.0,0.0,0.0,0.0,0.0,0.0,0.0,0.0,0.0,0.0,0.0,0.0,0.0,0.0,0.0,0.0,0.0,0.0,0.0,0.0,0.0,0.0,0.0,0.0,0.0,0.0,0.0,0.0,0.0,0.0,0.0,0.0,0.0,0.0,0.0,0.0,0.0,0.0,0.0,0.0,0.0,0.0,0.0,0.0,0.0,0.0,0.0,0.0,0.0,0.0,0.0,0.0,0.0,0.0,0.0,0.0,0.0,0.0,0.0,0.0,0.0,0.0,0.0,0.0,0.0,0.0,0.0,0.0,0.0,0.0,0.0,0.0,0.0,0.0,0.0,0.0,0.0,0.0,0.0,0.0,0.0,0.0,0.0,0.0,0.0,0.0,0.0,0.0,0.0,0.0,0.0,0.0,0.0,0.0,0.0,0.0,0.0,0.0,0.0,0.0,0.0,0.0,0.0,0.0,0.0,0.0,0.0,0.0,0.0,0.0,0.0,0.0,0.0,0.0,0.0,0.0,0.0,0.0,0.0,0.0,0.0,0.0,0.0,0.0,0.0,0.0,0.0,0.0,0.0,0.0,0.0,0.0,0.0,0.0,0.0,0.0,0.0,0.0,0.0,0.0,0.0,0.0,0.0,0.0,0.0,0.0,0.0,0.0,0.0,0.0,0.0,0.0,0.0,0.0,0.0,0.0,0.0,0.0,0.0,0.0,0.0,0.0,0.0,0.0,0.0,0.0,0.0,0.0,0.0,0.0,0.0,0.0,0.0,0.0,0.0,0.0,0.0,0.0,0.0,0.0,0.0,0.0,0.0,0.0,0.0,0.0,0.0,0.0,0.0,0.0,0.0,0.0,0.0,0.0,0.0,0.0,0.0,0.0,0.0,0.0,0.0,0.0,0.0,0.0,0.0,0.0,0.0,0.0,0.0,0.0,0.0,0.0,0.0,0.0,0.0,0.0,0.0,0.0,0.0,0.0,0.0,0.0,0.0,0.0,0.0,0.0,0.0,0.0,0.0,0.0,0.0,0.0,0.0,0.0,0.0,0.0,0.0,0.0,0.0,0.0,0.0,0.0,0.0,0.0,0.0,0.0,0.0,0.0,0.0,0.0,0.0,0.0,0.0,0.0,0.0,0.0,0.0,0.0,0.0,0.0,0.0,0.0,0.0,0.0,0.0,0.0,0.0,0.0,0.0,0.0,0.0,0.0,0.0,0.0,0.0,0.0,0.0,0.0,0.0,0.0,0.0,0.0,0.0,0.0,0.0,0.0,0.0,0.0,0.0,0.0,0.0,0.0,0.0,0.0,0.0,0.0,0.0,0.0,0.0,0.0,0.0,0.0,0.0,0.0,0.0,0.0,0.0,0.0,0.0,0.0,0.0,0.0,0.0,0.0,0.0,0.0,0.0,0.0,0.0,0.0,0.0,0.0,0.0,0.0,0.0,0.0,0.0,0.0,0.0,0.0,0.0,0.0,0.0,0.0,0.0,0.0,0.0,0.0,0.0,0.0,0.0,0.0,0.0,0.0,0.0,0.0,0.0,0.0,0.0,0.0,0.0,0.0,0.0,0.0,0.0,0.0,0.0,0.0,0.0,0.0,0.0,0.0,0.0,0.0,0.0,0.0,0.0,0.0,0.0,0.0,0.0,0.0,0.0,0.0,0.0,0.0,0.0,0.0,0.0,0.0,0.0,0.0,0.0,0.0,0.0,0.0,0.0,0.0,0.0,0.0,0.0,0.0,0.0,0.0,0.0,0.0,0.0,0.0,0.0,0.0,0.0,0.0,0.0,0.0,0.0,0.0,0.0,0.0,0.0,0.0,0.0,0.0,0.0,0.0,0.0,0.0,0.0,0.0,0.0,0.0,0.0,0.0,0.0,0.0,0.0,0.0,0.0,0.0,0.0,0.0,0.0,0.0,0.0,0.0,0.0,0.0,0.0,0.0,0.0,0.0,0.0,0.0,0.0,0.0,0.0,5.7997,0.0,0.0,0.0,0.0,0.0,0.0,0.0,0.0,0.0,0.0,0.0,0.0,0.0,0.0,0.0,0.0,0.0,0.0,0.0,0.0,0.0,0.0,0.0,0.0,0.0,0.0,0.0,0.0,0.0,0.0,0.0,0.0,0.0,0.0,0.0,0.0,0.0,0.0,0.0,0.0,0.0,0.0,0.0,0.0,0.0,0.0,0.0,0.0,0.0,0.0,0.0,0.0,0.0,0.0,0.0,0.0,0.0,0.0,0.0,0.0,0.0,0.0,0.0,0.0,0.0,0.0,0.0,0.0,0.0,0.0,0.0,0.0,0.0,0.0,0.0,0.0,0.0,0.0,0.0,0.0,0.0,0.0,0.0,0.0,0.0,0.0,0.0,0.0,0.0,0.0,0.0,0.0,0.0,0.0,0.0,0.0,0.0,0.0,0.0,0.0,0.0,0.0,0.0,0.0,0.0,0.0,0.0,0.0,0.0,0.0,5.7997,5.7997,5.7997,5.7997,5.7997,0.0,0.0,0.0,0.0,0.0,0.0,0.0,0.0,0.0,0.0,0.0,0.0,0.0,0.0,0.0,0.0,0.0,0.0,0.0,0.0,0.0,0.0,0.0,0.0,0.0,0.0,0.0,0.0,0.0,0.0,0.0,0.0,0.0,0.0,0.0,0.0,0.0,0.0,0.0,0.0,0.0,0.0,0.0,0.0,0.0,0.0,0.0,0.0,0.0,0.0,0.0,0.0,0.0,0.0,0.0,0.0,0.0,0.0,0.0,0.0,0.0,0.0,0.0,0.0,0.0,0.0,0.0,0.0,0.0,0.0,0.0,0.0,0.0,0.0,0.0,0.0,0.0,0.0,0.0,0.0,0.0,0.0,0.0,0.0,0.0,0.0,0.0,0.0,0.0,0.0,0.0,0.0,0.0,0.0,0.0,0.0,0.0,0.0,0.0,0.0,0.0,0.0,0.0,0.0,0.0,0.0,0.0,0.0,0.0,0.0,0.0,0.0,5.7997,5.7997,5.7997,0.0,0.0,0.0,0.0,0.0,0.0,0.0,0.0,0.0,0.0,0.0,0.0,0.0,0.0,0.0,0.0,0.0,0.0,0.0,0.0,0.0,0.0,0.0,0.0,0.0,0.0,0.0,0.0,0.0,0.0,0.0,0.0,0.0,0.0,0.0,0.0,0.0,0.0,0.0,0.0,0.0,0.0,0.0,0.0,0.0,0.0,0.0,0.0,0.0,0.0,0.0,0.0,0.0,0.0,0.0,0.0,0.0,0.0,0.0,0.0,0.0,0.0,0.0,0.0,0.0,0.0,0.0,0.0,0.0,0.0,0.0,0.0,0.0,0.0,0.0,0.0,0.0,0.0,0.0,0.0,0.0,0.0,0.0,0.0,0.0,0.0,0.0,0.0,0.0,0.0,0.0,0.0,0.0,0.0,0.0,0.0,0.0,0.0,0.0,0.0,0.0,0.0,0.0,0.0,0.0,0.0,0.0,0.0,0.0,0.0,5.7997,5.7997,5.7997,0.0,5.7997,0.0,0.0,0.0,0.0,0.0,0.0,0.0,0.0,0.0,0.0,0.0,0.0,0.0,0.0,0.0,0.0,0.0,0.0,0.0,0.0,0.0,0.0,0.0,0.0,0.0,0.0,0.0,0.0,0.0,0.0,0.0,0.0,0.0,0.0,0.0,0.0,0.0,0.0,0.0,0.0,0.0,0.0,0.0,0.0,0.0,0.0,0.0,0.0,0.0,0.0,0.0,0.0,0.0,0.0,0.0,0.0,0.0,0.0,0.0,0.0,0.0,0.0,0.0,0.0,0.0,0.0,0.0,0.0,0.0,0.0,0.0,0.0,0.0,0.0,0.0,0.0,0.0,0.0,0.0,0.0,0.0,0.0,0.0,0.0,0.0,0.0,0.0,0.0,0.0,0.0,0.0,0.0,0.0,0.0,0.0,0.0,0.0,0.0,0.0,0.0,0.0,0.0,0.0,0.0,0.0,0.0,0.0,0.0,0.0,0.0,5.7997,5.7997,5.7997,5.7997,0.0,0.0,0.0,0.0,0.0,0.0,0.0,0.0,0.0,0.0,0.0,0.0,0.0,0.0,0.0,0.0,0.0,0.0,0.0,0.0,0.0,0.0,0.0,0.0,0.0,0.0,0.0,0.0,0.0,0.0,0.0,0.0,0.0,0.0,0.0,0.0,0.0,0.0,0.0,0.0,0.0,0.0,0.0,0.0,0.0,0.0,0.0,0.0,0.0,0.0,0.0,0.0,0.0,0.0,0.0,0.0,0.0,0.0,0.0,0.0,0.0,0.0,0.0,0.0,0.0,0.0,0.0,0.0,0.0,0.0,0.0,0.0,0.0,0.0,0.0,0.0,0.0,0.0,0.0,0.0,0.0,0.0,0.0,0.0,0.0,0.0,0.0,0.0,0.0,0.0,0.0,0.0,0.0,0.0,0.0,0.0,0.0,0.0,0.0,0.0,0.0,0.0,0.0,0.0,0.0,0.0,0.0,0.0,0.0,0.0,5.7997,5.7997,5.7997,5.7997,5.7997,5.7997,0.0,0.0,0.0,0.0,0.0,0.0,0.0,0.0,0.0,0.0,0.0,0.0,0.0,0.0,0.0,0.0,0.0,0.0,0.0,0.0,0.0,0.0,0.0,0.0,0.0,0.0,0.0,0.0,0.0,0.0,0.0,0.0,0.0,0.0,0.0,0.0,0.0,0.0,0.0,0.0,0.0,0.0,0.0,0.0,0.0,0.0,0.0,0.0,0.0,0.0,0.0,0.0,0.0,0.0,0.0,0.0,0.0,0.0,0.0,0.0,0.0,0.0,0.0,0.0,0.0,0.0,0.0,0.0,0.0,0.0,0.0,0.0,0.0,0.0,0.0,0.0,0.0,0.0,0.0,0.0,0.0,0.0,0.0,0.0,0.0,0.0,0.0,0.0,0.0,0.0,0.0,0.0,0.0,0.0,0.0,0.0,0.0,0.0,0.0,0.0,0.0,0.0,0.0,0.0,0.0,0.0,0.0,0.0,5.7997,5.7997,5.7997,5.7997,5.7997,5.7997,0.0,0.0,0.0,0.0,0.0,0.0,0.0,0.0,0.0,0.0,0.0,0.0,0.0,0.0,0.0,0.0,0.0,0.0,0.0,0.0,0.0,0.0,0.0,0.0,0.0,0.0,0.0,0.0,0.0,0.0,0.0,0.0,0.0,0.0,0.0,0.0,0.0,0.0,0.0,0.0,0.0,0.0,0.0,0.0,0.0,0.0,0.0,0.0,0.0,0.0,0.0,0.0,0.0,0.0,0.0,0.0,0.0,0.0,0.0,0.0,0.0,0.0,0.0,0.0,0.0,0.0,0.0,0.0,0.0,0.0,0.0,0.0,0.0,0.0,0.0,0.0,0.0,0.0,0.0,0.0,0.0,0.0,0.0,0.0,0.0,0.0,0.0,0.0,0.0,0.0,0.0,0.0,0.0,0.0,0.0,0.0,0.0,0.0,0.0,0.0,0.0,0.0,0.0,0.0,0.0,0.0,0.0,0.0,0.0,5.7997,5.7997,5.7997,5.7997,5.7997,5.7997,0.0,0.0,0.0,0.0,0.0,0.0,0.0,0.0,0.0,0.0,0.0,0.0,0.0,0.0,0.0,0.0,0.0,0.0,0.0,0.0,0.0,0.0,0.0,0.0,0.0,0.0,0.0,0.0,0.0,0.0,0.0,0.0,0.0,0.0,0.0,0.0,0.0,0.0,0.0,0.0,0.0,0.0,0.0,0.0,0.0,0.0,0.0,0.0,0.0,0.0,0.0,0.0,0.0,0.0,0.0,0.0,0.0,0.0,0.0,0.0,0.0,0.0,0.0,0.0,0.0,0.0,0.0,0.0,0.0,0.0,0.0,0.0,0.0,0.0,0.0,0.0,0.0,0.0,0.0,0.0,0.0,0.0,0.0,0.0,0.0,0.0,0.0,0.0,0.0,0.0,0.0,0.0,0.0,0.0,0.0,0.0,0.0,0.0,0.0,0.0,0.0,0.0,0.0,0.0,0.0,0.0,0.0,0.0,0.0,5.7997,0.0,5.7997,5.7997,5.7997,5.7997,0.0,0.0,0.0,0.0,0.0,0.0,0.0,0.0,0.0,0.0,0.0,0.0,0.0,0.0,0.0,0.0,0.0,0.0,0.0,0.0,0.0,0.0,0.0,0.0,0.0,0.0,0.0,0.0,0.0,0.0,0.0,0.0,0.0,0.0,0.0,0.0,0.0,0.0,0.0,0.0,0.0,0.0,0.0,0.0,0.0,0.0,0.0,0.0,0.0,0.0,0.0,0.0,0.0,0.0,0.0,0.0,0.0,0.0,0.0,0.0,0.0,0.0,0.0,0.0,0.0,0.0,0.0,0.0,0.0,0.0,0.0,0.0,0.0,0.0,0.0,0.0,0.0,0.0,0.0,0.0,0.0,0.0,0.0,0.0,0.0,0.0,0.0,0.0,0.0,0.0,0.0,0.0,0.0,0.0,0.0,0.0,0.0,0.0,0.0,0.0,0.0,0.0,0.0,0.0,0.0,0.0,0.0,0.0,5.7997,5.7997,5.7997,5.7997,5.7997,5.7997,5.7997,0.0,0.0,0.0,0.0,0.0,0.0,0.0,0.0,0.0,0.0,0.0,0.0,0.0,0.0,0.0,0.0,0.0,0.0,0.0,0.0,0.0,0.0,0.0,0.0,0.0,0.0,0.0,0.0,0.0,0.0,0.0,0.0,0.0,0.0,0.0,0.0,0.0,0.0,0.0,0.0,0.0,0.0,0.0,0.0,0.0,0.0,0.0,0.0,0.0,0.0,0.0,0.0,0.0,0.0,0.0,0.0,0.0,0.0,0.0,0.0,0.0,0.0,0.0,0.0,0.0,0.0,0.0,0.0,0.0,0.0,0.0,0.0,0.0,0.0,0.0,0.0,0.0,0.0,0.0,0.0,0.0,0.0,0.0,0.0,0.0,0.0,0.0,0.0,0.0,0.0,0.0,0.0,0.0,0.0,0.0,0.0,0.0,0.0,0.0,0.0,0.0,0.0,0.0,0.0,0.0,0.0,0.0,0.0,0.0,5.7997,5.7997,5.7997,5.7997,5.7997,5.7997,0.0,0.0,0.0,0.0,0.0,0.0,0.0,0.0,0.0,0.0,0.0,0.0,0.0,0.0,0.0,0.0,0.0,0.0,0.0,0.0,0.0,0.0,0.0,0.0,0.0,0.0,0.0,0.0,0.0,0.0,0.0,0.0,0.0,0.0,0.0,0.0,0.0,0.0,0.0,0.0,0.0,0.0,0.0,0.0,0.0,0.0,0.0,0.0,0.0,0.0,0.0,0.0,0.0,0.0,0.0,0.0,0.0,0.0,0.0,0.0,0.0,0.0,0.0,0.0,0.0,0.0,0.0,0.0,0.0,0.0,0.0,0.0,0.0,0.0,0.0,0.0,0.0,0.0,0.0,0.0,0.0,0.0,0.0,0.0,0.0,0.0,0.0,0.0,0.0,0.0,0.0,0.0,0.0,0.0,0.0,0.0,0.0,0.0,0.0,0.0,0.0,0.0,0.0,0.0,0.0,0.0,0.0,0.0,0.0,5.7997,5.7997,5.7997,5.7997,5.7997,5.7997,5.7997,0.0,0.0,0.0,0.0,0.0,0.0,0.0,0.0,0.0,0.0,0.0,0.0,0.0,0.0,0.0,0.0,0.0,0.0,0.0,0.0,0.0,0.0,0.0,0.0,0.0,0.0,0.0,0.0,0.0,0.0,0.0,0.0,0.0,0.0,0.0,0.0,0.0,0.0,0.0,0.0,0.0,0.0,0.0,0.0,0.0,0.0,0.0,0.0,0.0,0.0,0.0,0.0,0.0,0.0,0.0,0.0,0.0,0.0,0.0,0.0,0.0,0.0,0.0,0.0,0.0,0.0,0.0,0.0,0.0,0.0,0.0,0.0,0.0,0.0,0.0,0.0,0.0,0.0,0.0,0.0,0.0,0.0,0.0,0.0,0.0,0.0,0.0,0.0,0.0,0.0,0.0,0.0,0.0,0.0,0.0,0.0,0.0,0.0,0.0,0.0,0.0,0.0,0.0,0.0,0.0,0.0,0.0,0.0,5.8033,5.8033,5.8033,5.7997,5.7997,5.7997,0.0,0.0,0.0,0.0,0.0,0.0,0.0,0.0,0.0,0.0,0.0,0.0,0.0,0.0,0.0,0.0,0.0,0.0,0.0,0.0,0.0,0.0,0.0,0.0,0.0,0.0,0.0,0.0,0.0,0.0,0.0,0.0,0.0,0.0,0.0,0.0,0.0,0.0,0.0,0.0,0.0,0.0,0.0,0.0,0.0,0.0,0.0,0.0,0.0,0.0,0.0,0.0,0.0,0.0,0.0,0.0,0.0,0.0,0.0,0.0,0.0,0.0,0.0,0.0,0.0,0.0,0.0,0.0,0.0,0.0,0.0,0.0,0.0,0.0,0.0,0.0,0.0,0.0,0.0,0.0,0.0,0.0,0.0,0.0,0.0,0.0,0.0,0.0,0.0,0.0,0.0,0.0,0.0,0.0,0.0,0.0,0.0,0.0,0.0,0.0,0.0,0.0,0.0,0.0,0.0,0.0,0.0,0.0,0.0,5.8906,5.8603,5.83,5.7997,5.7997,5.7997,0.0,0.0,0.0,0.0,0.0,0.0,0.0,0.0,0.0,0.0,0.0,0.0,0.0,0.0,0.0,0.0,0.0,0.0,0.0,0.0,0.0,0.0,0.0,0.0,0.0,0.0,0.0,0.0,0.0,0.0,0.0,0.0,0.0,0.0,0.0,0.0,0.0,0.0,0.0,0.0,0.0,0.0,0.0,0.0,0.0,0.0,0.0,0.0,0.0,0.0,0.0,0.0,0.0,0.0,0.0,0.0,0.0,0.0,0.0,0.0,0.0,0.0,0.0,0.0,0.0,0.0,0.0,0.0,0.0,0.0,0.0,0.0,0.0,0.0,0.0,0.0,0.0,0.0,0.0,0.0,0.0,0.0,0.0,0.0,0.0,0.0,0.0,0.0,0.0,0.0,0.0,0.0,0.0,0.0,0.0,0.0,0.0,0.0,0.0,0.0,0.0,0.0,0.0,0.0,0.0,0.0,0.0,0.0,5.9624,5.9218,5.8982,5.8758,5.8503,5.8186,5.7997,0.0,0.0,0.0,0.0,0.0,0.0,0.0,0.0,0.0,0.0,0.0,0.0,0.0,0.0,0.0,0.0,0.0,0.0,0.0,0.0,0.0,0.0,0.0,0.0,0.0,0.0,0.0,0.0,0.0,0.0,0.0,0.0,0.0,0.0,0.0,0.0,0.0,0.0,0.0,0.0,0.0,0.0,0.0,0.0,0.0,0.0,0.0,0.0,0.0,0.0,0.0,0.0,0.0,0.0,0.0,0.0,0.0,0.0,0.0,0.0,0.0,0.0,0.0,0.0,0.0,0.0,0.0,0.0,0.0,0.0,0.0,0.0,0.0,0.0,0.0,0.0,0.0,0.0,0.0,0.0,0.0,0.0,0.0,0.0,0.0,0.0,0.0,0.0,0.0,0.0,0.0,0.0,0.0,0.0,0.0,0.0,0.0,0.0,0.0,0.0,0.0,0.0,0.0,0.0,0.0,0.0,0.0,0.0,5.9695,5.9323,5.9285,5.9277,5.9212,5.8461,5.8088,0.0,0.0,0.0,0.0,0.0,0.0,0.0,0.0,0.0,0.0,0.0,0.0,0.0,0.0,0.0,0.0,0.0,0.0,0.0,0.0,0.0,0.0,0.0,0.0,0.0,0.0,0.0,0.0,0.0,0.0,0.0,0.0,0.0,0.0,0.0,0.0,0.0,0.0,0.0,0.0,0.0,0.0,0.0,0.0,0.0,0.0,0.0,0.0,0.0,0.0,0.0,0.0,0.0,0.0,0.0,0.0,0.0,0.0,0.0,0.0,0.0,0.0,0.0,0.0,0.0,0.0,0.0,0.0,0.0,0.0,0.0,0.0,0.0,0.0,0.0,0.0,0.0,0.0,0.0,0.0,0.0,0.0,0.0,0.0,0.0,0.0,0.0,0.0,0.0,0.0,0.0,0.0,0.0,0.0,0.0,0.0,0.0,0.0,0.0,0.0,0.0,0.0,0.0,0.0,0.0,0.0,0.0,0.0,6.0237,6.0159,5.9827,5.9674,5.9672,5.8877,5.8498,0.0,0.0,0.0,0.0,0.0,0.0,0.0,0.0,0.0,0.0,0.0,0.0,0.0,0.0,0.0,0.0,0.0,0.0,0.0,0.0,0.0,0.0,0.0,0.0,0.0,0.0,0.0,0.0,0.0,0.0,0.0,0.0,0.0,0.0,0.0,0.0,0.0,0.0,0.0,0.0,0.0,0.0,0.0,0.0,0.0,0.0,0.0,0.0,5.7881,0.0,0.0,0.0,0.0,0.0,0.0,0.0,0.0,0.0,0.0,0.0,0.0,0.0,0.0,0.0,0.0,0.0,0.0,0.0,0.0,0.0,0.0,0.0,0.0,0.0,0.0,0.0,0.0,0.0,0.0,0.0,0.0,0.0,0.0,0.0,0.0,0.0,0.0,0.0,0.0,0.0,0.0,0.0,0.0,0.0,0.0,0.0,0.0,0.0,0.0,0.0,0.0,0.0,0.0,0.0,0.0,0.0,0.0,0.0,6.037,6.037,6.0179,6.0102,6.0036,5.9492,5.8988,0.0,0.0,0.0,0.0,0.0,0.0,0.0,0.0,0.0,0.0,0.0,0.0,0.0,0.0,0.0,0.0,0.0,0.0,0.0,0.0,0.0,0.0,0.0,0.0,0.0,0.0,0.0,0.0,0.0,0.0,0.0,0.0,0.0,0.0,0.0,0.0,0.0,0.0,0.0,0.0,0.0,0.0,0.0,0.0,0.0,0.0,0.0,0.0,0.0,0.0,0.0,0.0,0.0,0.0,0.0,0.0,0.0,0.0,0.0,0.0,0.0,0.0,0.0,0.0,0.0,0.0,0.0,0.0,0.0,0.0,0.0,0.0,0.0,0.0,0.0,0.0,0.0,0.0,0.0,0.0,0.0,0.0,0.0,0.0,0.0,0.0,0.0,0.0,0.0,0.0,0.0,0.0,0.0,0.0,0.0,0.0,0.0,0.0,0.0,0.0,0.0,0.0,0.0,0.0,0.0,0.0,0.0,6.0485,6.0446,6.0589,6.0446,6.037,6.0408,6.0068,5.9537,5.8831,0.0,0.0,0.0,0.0,0.0,0.0,0.0,0.0,0.0,0.0,0.0,0.0,0.0,0.0,0.0,0.0,0.0,0.0,0.0,0.0,0.0,0.0,0.0,0.0,0.0,0.0,0.0,0.0,0.0,0.0,0.0,0.0,0.0,0.0,0.0,0.0,0.0,0.0,5.7881,5.7881,0.0,0.0,0.0,0.0,0.0,0.0,0.0,0.0,5.7881,0.0,0.0,0.0,0.0,0.0,0.0,0.0,0.0,0.0,0.0,0.0,0.0,0.0,0.0,0.0,0.0,0.0,0.0,0.0,0.0,0.0,0.0,0.0,0.0,0.0,0.0,0.0,0.0,0.0,0.0,0.0,0.0,0.0,0.0,0.0,0.0,0.0,0.0,0.0,0.0,0.0,0.0,0.0,0.0,0.0,0.0,0.0,0.0,0.0,0.0,0.0,0.0,0.0,0.0,0.0,0.0,6.1363,6.0752,6.0704,6.1381,6.0742,6.037,6.0408,6.0342,6.0099,5.9605,0.0,0.0,0.0,0.0,0.0,0.0,0.0,0.0,0.0,0.0,0.0,0.0,0.0,0.0,0.0,0.0,0.0,0.0,0.0,0.0,0.0,0.0,0.0,0.0,0.0,0.0,0.0,0.0,0.0,0.0,0.0,0.0,0.0,0.0,0.0,0.0,0.0,0.0,0.0,5.7881,5.7881,0.0,0.0,0.0,0.0,0.0,0.0,0.0,0.0,5.7881,0.0,0.0,0.0,0.0,0.0,0.0,0.0,0.0,0.0,0.0,0.0,0.0,0.0,0.0,0.0,0.0,0.0,0.0,0.0,0.0,0.0,0.0,0.0,0.0,0.0,0.0,0.0,0.0,0.0,0.0,0.0,0.0,0.0,0.0,0.0,0.0,0.0,0.0,0.0,0.0,0.0,0.0,0.0,0.0,0.0,0.0,0.0,0.0,0.0,0.0,0.0,0.0,0.0,0.0,0.0,6.1593,6.1669,6.1889,6.2213,6.1458,6.1009,6.1009,6.0627,6.0188,0.0,0.0,0.0,0.0,0.0,0.0,0.0,0.0,0.0,0.0,0.0,0.0,0.0,0.0,0.0,0.0,0.0,0.0,0.0,0.0,0.0,0.0,0.0,0.0,0.0,0.0,0.0,0.0,0.0,0.0,0.0,0.0,0.0,0.0,0.0,0.0,0.0,0.0,0.0,0.0,5.7881,5.7881,5.7881,0.0,0.0,0.0,0.0,0.0,0.0,5.7881,5.7881,0.0,0.0,0.0,0.0,0.0,0.0,0.0,0.0,0.0,0.0,0.0,0.0,0.0,0.0,0.0,0.0,0.0,0.0,0.0,0.0,0.0,0.0,0.0,0.0,0.0,0.0,0.0,0.0,0.0,0.0,0.0,0.0,0.0,0.0,0.0,0.0,0.0,0.0,0.0,0.0,0.0,0.0,0.0,0.0,0.0,0.0,0.0,0.0,0.0,0.0,0.0,0.0,0.0,0.0,0.0,6.2166,6.2624,6.2997,6.3131,6.2299,6.185,6.1879,6.1239,6.0646,0.0,0.0,0.0,0.0,0.0,0.0,0.0,0.0,0.0,0.0,0.0,0.0,0.0,0.0,0.0,0.0,0.0,0.0,0.0,0.0,0.0,0.0,0.0,0.0,0.0,0.0,0.0,0.0,0.0,0.0,0.0,0.0,0.0,0.0,0.0,0.0,0.0,0.0,0.0,0.0,0.0,5.7881,5.7881,5.7881,0.0,0.0,0.0,0.0,5.7881,5.7881,0.0,0.0,0.0,0.0,0.0,0.0,0.0,0.0,0.0,0.0,0.0,0.0,0.0,0.0,0.0,0.0,0.0,0.0,0.0,0.0,0.0,0.0,0.0,0.0,0.0,0.0,0.0,0.0,0.0,0.0,0.0,0.0,0.0,0.0,0.0,0.0,0.0,0.0,0.0,0.0,0.0,0.0,0.0,0.0,0.0,0.0,0.0,0.0,0.0,0.0,0.0,0.0,0.0,0.0,0.0,0.0,6.3847,6.3236,6.3312,6.397,6.3214,6.2756,6.2739,6.2662,6.2056,0.0,0.0,0.0,0.0,0.0,0.0,0.0,0.0,0.0,0.0,0.0,0.0,0.0,0.0,0.0,0.0,0.0,0.0,0.0,0.0,0.0,0.0,0.0,0.0,0.0,0.0,0.0,0.0,0.0,0.0,0.0,0.0,0.0,0.0,0.0,0.0,0.0,0.0,0.0,0.0,0.0,5.7881,5.7881,5.7881,5.7881,0.0,0.0,5.7881,5.7881,5.7881,0.0,0.0,0.0,0.0,0.0,0.0,0.0,0.0,0.0,0.0,0.0,0.0,0.0,0.0,0.0,0.0,0.0,0.0,0.0,0.0,0.0,0.0,0.0,0.0,0.0,0.0,0.0,0.0,0.0,0.0,0.0,0.0,0.0,0.0,0.0,0.0,0.0,0.0,0.0,0.0,0.0,0.0,0.0,0.0,0.0,0.0,0.0,0.0,0.0,0.0,0.0,0.0,0.0,0.0,0.0,6.4267,6.4191,6.4267,6.4496,6.481,6.4054,6.3634,6.3626,6.313,6.2642,0.0,0.0,0.0,0.0,0.0,0.0,0.0,0.0,0.0,0.0,0.0,0.0,0.0,0.0,0.0,0.0,0.0,0.0,0.0,0.0,0.0,0.0,0.0,0.0,0.0,0.0,0.0,0.0,0.0,0.0,0.0,0.0,0.0,0.0,0.0,0.0,0.0,0.0,0.0,0.0,0.0,0.0,5.7881,5.7881,0.0,0.0,0.0,5.7881,5.7881,0.0,0.0,0.0,0.0,0.0,0.0,0.0,0.0,0.0,0.0,0.0,0.0,0.0,0.0,0.0,0.0,0.0,0.0,0.0,0.0,0.0,0.0,0.0,0.0,0.0,0.0,0.0,0.0,0.0,0.0,0.0,0.0,0.0,0.0,0.0,0.0,0.0,0.0,0.0,0.0,0.0,0.0,0.0,0.0,0.0,0.0,0.0,0.0,0.0,0.0,0.0,0.0,0.0,0.0,0.0,0.0,0.0,6.4496,6.5108,6.5413,6.5375,6.481,6.4505,6.4505,6.3855,0.0,0.0,0.0,0.0,0.0,0.0,0.0,0.0,0.0,0.0,0.0,0.0,0.0,0.0,0.0,0.0,0.0,0.0,0.0,0.0,0.0,0.0,0.0,0.0,0.0,0.0,0.0,5.8633,0.0,0.0,0.0,0.0,0.0,0.0,0.0,0.0,0.0,0.0,0.0,0.0,0.0,0.0,5.7881,5.7881,5.7881,5.7881,0.0,0.0,5.7881,5.7881,5.7881,5.7808,0.0,0.0,0.0,0.0,0.0,0.0,0.0,0.0,0.0,0.0,0.0,0.0,0.0,0.0,0.0,0.0,0.0,0.0,0.0,0.0,0.0,0.0,0.0,0.0,0.0,0.0,0.0,0.0,0.0,0.0,0.0,0.0,0.0,0.0,0.0,0.0,0.0,0.0,0.0,0.0,0.0,0.0,0.0,0.0,0.0,0.0,0.0,0.0,0.0,0.0,0.0,0.0,0.0,0.0,0.0,6.5337,6.5375,6.5413,6.5413,6.5337,6.5299,6.5299,6.5261,6.4679,0.0,0.0,0.0,0.0,0.0,0.0,0.0,0.0,0.0,0.0,0.0,0.0,0.0,0.0,0.0,0.0,0.0,0.0,0.0,0.0,0.0,0.0,0.0,0.0,0.0,0.0,0.0,0.0,0.0,0.0,0.0,0.0,0.0,0.0,0.0,0.0,0.0,0.0,0.0,0.0,0.0,5.7881,5.7881,5.7881,5.7881,0.0,0.0,5.7881,5.7881,5.7881,5.7662,5.6844,0.0,0.0,0.0,0.0,0.0,0.0,0.0,0.0,0.0,0.0,0.0,0.0,0.0,0.0,0.0,0.0,0.0,0.0,0.0,0.0,0.0,0.0,0.0,0.0,0.0,0.0,0.0,0.0,0.0,0.0,0.0,0.0,0.0,0.0,0.0,0.0,0.0,0.0,0.0,0.0,0.0,0.0,0.0,0.0,0.0,0.0,0.0,0.0,0.0,0.0,0.0,0.0,0.0,6.5413,6.5413,6.5413,6.5413,6.5413,6.5413,6.5413,6.5413,6.5413,6.5161,0.0,0.0,0.0,0.0,0.0,0.0,0.0,0.0,0.0,0.0,0.0,0.0,0.0,0.0,0.0,0.0,0.0,0.0,0.0,0.0,0.0,0.0,0.0,0.0,0.0,0.0,0.0,0.0,5.7881,5.7881,5.7881,0.0,0.0,0.0,0.0,0.0,0.0,0.0,0.0,0.0,0.0,5.7881,5.7881,5.7881,0.0,0.0,5.7881,5.7881,5.7881,5.7881,5.7808,5.748,5.7352,0.0,0.0,0.0,0.0,0.0,0.0,0.0,0.0,0.0,0.0,0.0,0.0,0.0,0.0,0.0,0.0,0.0,0.0,0.0,0.0,0.0,0.0,0.0,0.0,0.0,0.0,0.0,0.0,0.0,0.0,0.0,0.0,0.0,0.0,0.0,0.0,0.0,0.0,0.0,0.0,0.0,0.0,0.0,0.0,0.0,0.0,0.0,0.0,0.0,0.0,0.0,0.0,6.5413,6.5413,6.5413,6.5413,6.5413,6.5413,6.5413,6.5413,6.5413,6.5413,0.0,0.0,0.0,0.0,0.0,0.0,0.0,0.0,0.0,0.0,0.0,0.0,0.0,0.0,0.0,0.0,0.0,0.0,0.0,0.0,0.0,0.0,0.0,0.0,0.0,0.0,0.0,0.0,5.7881,5.7881,5.7881,0.0,0.0,0.0,0.0,0.0,0.0,0.0,0.0,0.0,0.0,5.7881,5.7881,5.8084,5.822,5.822,5.8423,5.849,5.8254,5.8225,5.8157,5.7915,0.0,0.0,0.0,0.0,0.0,0.0,0.0,0.0,0.0,0.0,0.0,0.0,0.0,0.0,0.0,0.0,0.0,0.0,0.0,0.0,0.0,0.0,0.0,0.0,0.0,0.0,0.0,0.0,0.0,0.0,6.5936,0.0,0.0,0.0,0.0,0.0,0.0,0.0,0.0,0.0,0.0,0.0,0.0,0.0,0.0,0.0,0.0,0.0,0.0,0.0,0.0,0.0,0.0,6.5413,6.5413,6.5413,6.5413,6.5413,6.5413,6.5413,6.5413,6.5413,6.5413,6.5413,0.0,0.0,0.0,0.0,0.0,0.0,0.0,0.0,0.0,0.0,0.0,0.0,0.0,0.0,0.0,0.0,0.0,0.0,0.0,0.0,0.0,0.0,0.0,0.0,0.0,0.0,5.7881,5.7881,5.7881,0.0,0.0,0.0,0.0,0.0,0.0,0.0,0.0,0.0,0.0,5.7881,5.7881,5.7881,5.8524,5.8964,5.8964,5.9573,5.9776,5.9099,5.8976,5.8744,0.0,0.0,0.0,0.0,0.0,0.0,0.0,0.0,0.0,0.0,0.0,0.0,0.0,0.0,0.0,0.0,0.0,0.0,0.0,0.0,0.0,0.0,0.0,0.0,0.0,0.0,0.0,6.7013,6.7552,0.0,0.0,0.0,0.0,0.0,0.0,0.0,0.0,0.0,0.0,0.0,6.7895,6.7784,0.0,0.0,0.0,0.0,0.0,0.0,0.0,0.0,0.0,0.0,0.0,0.0,6.5413,6.5413,6.5413,6.5413,6.5413,6.5413,6.5413,6.5413,6.5413,6.5413,6.5413,0.0,0.0,0.0,0.0,0.0,0.0,0.0,0.0,0.0,0.0,0.0,0.0,0.0,0.0,0.0,0.0,0.0,0.0,0.0,0.0,0.0,0.0,0.0,0.0,0.0,5.8388,0.0,0.0,0.0,0.0,0.0,0.0,0.0,0.0,0.0,0.0,0.0,5.7881,5.7881,5.8321,5.8457,5.7949,5.8524,5.8998,0.0,0.0,0.0,0.0,0.0,0.0,0.0,0.0,0.0,0.0,0.0,0.0,0.0,0.0,5.2729,5.2729,5.2729,5.2698,5.2547,0.0,0.0,0.0,0.0,0.0,0.0,0.0,0.0,0.0,0.0,0.0,0.0,0.0,0.0,6.7898,0.0,6.8385,0.0,0.0,0.0,0.0,0.0,0.0,0.0,0.0,6.9201,6.9009,6.8767,6.8628,6.8454,0.0,6.8033,6.7399,0.0,0.0,0.0,0.0,0.0,0.0,0.0,0.0,6.6292,6.6254,6.6254,6.6254,6.6254,6.5987,6.5834,6.5864,6.5528,6.5413,6.5413,6.5444,6.5314,0.0,0.0,0.0,0.0,0.0,0.0,0.0,0.0,0.0,0.0,0.0,0.0,0.0,0.0,0.0,0.0,0.0,0.0,0.0,0.0,0.0,0.0,0.0,5.8388,0.0,0.0,0.0,0.0,0.0,0.0,0.0,0.0,0.0,5.7881,5.7881,5.7983,5.8254,5.8727,5.893,5.8693,0.0,0.0,0.0,0.0,0.0,0.0,0.0,6.0238,5.9519,5.9383,5.8882,5.7598,5.5859,5.4561,5.3975,0.0,0.0,5.279,5.2729,5.2729,5.2729,5.2303,5.2211,5.2577,5.2359,5.2175,0.0,0.0,0.0,0.0,0.0,0.0,0.0,0.0,6.8436,6.8475,0.0,6.8552,0.0,0.0,0.0,0.0,0.0,7.0514,0.0,0.0,7.0777,7.0326,6.9596,6.9413,6.8939,6.8174,6.8112,6.8012,6.7973,6.7973,0.0,0.0,0.0,0.0,0.0,0.0,6.7897,6.7859,6.7859,6.7859,6.7852,6.7133,6.6713,6.6736,6.5941,6.549,6.5452,6.5541,6.5474,6.5345,6.3871,0.0,0.0,0.0,0.0,0.0,0.0,0.0,0.0,0.0,0.0,0.0,0.0,0.0,0.0,0.0,0.0,0.0,0.0,0.0,0.0,5.8783,0.0,0.0,0.0,0.0,0.0,0.0,0.0,0.0,0.0,0.0,5.8017,5.7983,5.822,5.8964,0.0,0.0,0.0,0.0,6.1298,6.1264,6.1907,6.2076,6.1443,6.1356,6.1065,6.0256,0.0,0.0,5.8927,5.7333,5.6119,5.6062,5.5252,5.433,5.3037,5.279,5.2729,5.2729,5.2698,5.2698,5.2729,5.2667,5.2667,6.9513,0.0,0.0,0.0,0.0,6.8371,6.8783,6.9321,6.9321,6.9667,7.0167,7.0206,0.0,0.0,0.0,0.0,0.0,0.0,7.0898,7.0898,7.0871,7.0755,7.0525,7.0383,7.0209,7.0038,6.9865,6.984,6.9827,6.984,6.9158,6.7935,0.0,0.0,0.0,0.0,6.7897,6.7897,6.7897,6.7897,6.7897,6.7668,6.7584,6.7546,6.7324,6.6904,6.633,6.6361,6.5797,6.452,6.4029,0.0,0.0,0.0,0.0,0.0,0.0,0.0,0.0,0.0,0.0,0.0,0.0,0.0,0.0,0.0,0.0,0.0,0.0,0.0,6.0098,5.9184,5.8633,0.0,0.0,0.0,0.0,0.0,0.0,0.0,0.0,0.0,5.937,5.9025,5.895,0.0,0.0,6.052,6.0148,6.0791,6.1298,6.1298,6.1501,0.0,6.2009,6.211,6.1795,6.1095,6.0486,5.9775,5.8927,5.7836,5.6819,5.6239,5.5314,5.4576,5.4237,5.3682,5.3279,5.279,5.2729,5.2729,5.2729,5.2729,5.2729,7.0283,6.9398,6.9398,6.9371,6.9382,6.9371,6.9706,7.0167,7.0167,7.0437,7.0898,7.0898,7.0898,7.0898,7.0898,0.0,0.0,0.0,7.0898,7.0898,7.0898,7.0898,7.0898,7.0787,7.0758,7.0825,7.0716,7.0623,7.0585,7.0592,7.0031,6.8929,0.0,0.0,6.889,6.889,6.889,6.889,6.889,6.889,6.889,6.8585,6.8241,6.7904,6.7897,6.7668,6.7209,6.7171,6.6674,6.5688,6.5464,6.4694,0.0,0.0,0.0,0.0,0.0,0.0,0.0,0.0,0.0,0.0,0.0,6.2654,0.0,0.0,0.0,0.0,6.16,6.0927,6.0498,5.9797,0.0,0.0,0.0,0.0,0.0,0.0,0.0,5.8727,5.914,5.9756,6.0452,6.0198,6.0054,6.0554,6.0994,6.1231,6.1028,0.0,6.1738,6.1738,6.1738,6.1873,6.2313,6.2415,6.2212,6.1849,6.1332,6.084,6.0336,5.9465,5.8684,5.8119,5.7274,5.6581,5.6298,5.5624,5.4668,5.3709,5.3466,5.3498,5.3529,5.3283,5.3129,7.0898,7.0898,7.0898,7.0898,7.0898,7.0898,7.0898,7.0898,7.0898,7.0898,7.0898,7.0898,7.0898,7.0898,7.0898,0.0,7.0898,7.0898,7.0898,7.0898,7.0898,7.0898,7.0898,7.0815,7.0787,7.0787,7.0719,7.0699,7.0585,7.0616,7.0515,7.0419,7.0419,7.0419,7.0419,7.0419,7.0419,7.0419,7.0419,7.0419,7.0381,6.9699,6.894,6.8145,6.8095,6.8088,6.8012,6.8012,6.7973,6.7865,6.7528,6.6711,6.557,0.0,0.0,0.0,0.0,0.0,0.0,0.0,0.0,0.0,0.0,0.0,0.0,0.0,0.0,0.0,6.1544,0.0,6.1262,6.0629,0.0,0.0,0.0,5.9426,6.0116,5.9579,5.9445,6.0114,0.0,0.0,6.1298,6.1379,6.1413,6.14,6.14,6.1637,6.2313,6.2347,6.2415,6.2347,6.2381,6.2381,6.2381,6.2415,6.2381,6.2347,6.2415,6.2313,6.2201,6.1494,6.1036,6.0804,6.0194,5.9393,5.8713,5.786,5.6869,5.5436,5.4854,5.4667,5.4606,5.4145,5.3806,7.0898,7.0898,7.0898,7.0898,7.0898,7.0898,7.0898,7.0898,7.0898,7.0898,7.0898,7.0898,7.0898,7.0898,7.0898,7.0898,7.0898,7.0898,7.0898,7.0898,7.0898,7.0898,7.0898,7.0815,7.0815,7.0871,7.0787,7.0767,7.0678,7.0685,7.0554,7.0419,7.0419,7.0419,7.0419,7.0419,7.0419,7.0419,7.0419,7.0419,7.0419,7.0195,7.0004,6.9813,6.9807,6.954,6.889,6.889,6.8417,6.7531,6.7349,6.7013,6.6332,6.5886,0.0,0.0,0.0,0.0,0.0,0.0,0.0,0.0,0.0,6.2654,6.2755,0.0,6.2515,0.0,6.1987,6.1784,6.1806,6.1722,0.0,0.0,6.153,6.1357,6.098,6.0802,6.075,6.1003,6.1045,6.1282,6.2009,6.2178,6.2178,6.2144,6.2144,6.2178,6.2381,6.2415,6.2415,6.2415,6.2415,6.2415,6.2415,6.2415,6.2415,6.2415,6.2415,6.2415,6.2415,6.1595,6.0986,6.0986,6.0226,5.961,5.9447,5.917,5.8892,5.8311,5.6491,5.4714,5.4714,5.4571,5.4483,7.0966,7.0898,7.0898,7.0898,7.0898,7.0898,7.0898,7.0898,7.0898,7.0898,7.0898,7.0898,7.0898,7.0898,7.0898,7.0898,7.0898,7.0898,7.0898,7.0898,7.0898,7.0898,7.0898,7.0871,7.0871,7.0898,7.0843,7.0787,7.0729,7.0737,7.0647,7.0483,7.0522,7.0451,7.0419,7.0419,7.0419,7.0419,7.0419,7.0419,7.0419,7.0419,7.0419,7.0419,7.0419,7.019,6.9769,6.9731,6.9404,6.8739,6.8523,6.8035,6.7239,6.677,6.6269,0.0,0.0,0.0,0.0,0.0,0.0,0.0,0.0,0.0,0.0,0.0,6.3576,6.3518,6.3203,6.3092,6.3128,6.3171,6.3213,6.3213,6.2933,6.2717,6.2673,6.2369,6.2334,6.2699,6.2768,6.2958,6.3323,6.3411,6.3343,6.3364,6.3411,6.3158,6.2537,6.2415,6.2415,6.2415,6.2415,6.2415,6.2415,6.2415,6.2415,6.2415,6.2415,6.2415,6.2381,6.1951,6.1595,6.1595,6.1152,6.082,6.0787,6.0472,6.0233,5.9924,5.8478,5.7032,5.6837,5.6615,5.6388,7.1077,7.0898,7.0925,7.0952,7.0914,7.0914,7.0925,7.0898,7.0898,7.0898,7.0898,7.0898,7.0898,7.0898,7.0898,7.0975,7.1052,7.1052,7.1129,7.1245,7.1245,7.1245,7.1206,7.1245,7.1245,7.1245,7.1245,7.1217,7.1132,7.1132,7.1044,7.093,7.093,7.086,7.0724,7.0724,7.0648,7.0419,7.0419,7.0419,7.0419,7.0419,7.0419,7.0419,7.0419,7.0419,7.0419,7.0419,7.0419,7.0386,6.9999,6.9285,6.8183,6.7614,6.6858,0.0,6.5673,0.0,0.0,0.0,0.0,0.0,0.0,0.0,0.0,6.4948,6.4838,6.4851,6.4567,6.4468,6.4577,6.4577,6.4541,6.4541,6.4112,6.4072,6.459,6.4149,6.3999,6.453,6.4616,6.4587,6.4561,6.4637,6.4564,6.4498,6.4498,6.4076,6.3007,6.2813,6.2736,6.2581,6.2459,6.2415,6.2415,6.2415,6.2415,6.2415,6.2415,6.2415,6.2415,6.2381,6.2415,6.2381,6.2302,6.2302,6.2381,6.1672,6.1223,6.1165,6.0424,5.9743,5.9369,5.8798,5.8245,7.1077,7.0925,7.1053,7.1147,7.1147,7.1147,7.1067,7.0898,7.0898,7.0898,7.0898,7.0898,7.0898,7.0898,7.0898,7.1283,7.1937,7.1975,7.236,7.3014,7.3014,7.3014,7.3014,7.3014,7.3014,7.3014,7.3014,7.2957,7.2822,7.2822,7.2732,7.2614,7.2614,7.2581,7.252,0.0,0.0,0.0,7.0495,7.0495,7.0419,7.0533,7.0495,7.0419,7.0419,0.0,7.0419,7.0419,7.0419,7.0386,7.0038,0.0,0.0,0.0,0.0,0.0,0.0,0.0,0.0,0.0,0.0,0.0,6.6035,6.5763,6.5322,6.5144,6.5038,6.5057,6.4767,6.4561,6.4599,6.5041,6.5374,6.541,6.58,6.5995,6.551,6.5319,6.5131,6.4634,6.4603,6.4603,6.4637,6.4592,6.4649,6.4679,6.461,6.4497,6.4253,6.4112,6.3898,6.3348,6.2813,6.2381,6.2415,6.2415,6.2415,6.2415,6.2415,6.2415,6.2415,6.2415,6.2415,6.2415,6.2415,6.2415,6.2415,6.2279,6.2066,6.2099,6.1964,6.1425,5.9951,5.8896,5.8173,7.132,0.0,7.1299,7.1319,0.0,7.1339,7.1319,7.1192,7.1077,7.1091,7.1216,7.1595,7.1788,7.1796,7.2143,7.2505,7.2919,7.2877,7.3063,7.3514,7.3514,7.3514,7.3514,7.3514,7.3514,7.3514,7.3514,7.3447,7.338,7.338,7.3321,7.3185,7.3169,7.3144,7.3046,7.3012,7.2367,7.103,7.0686,7.0451,7.0432,7.0451,7.0495,7.0419,7.0419,0.0,0.0,0.0,0.0,0.0,0.0,0.0,0.0,6.8593,0.0,6.8084,6.781,6.7504,6.7136,6.7063,6.7063,6.7063,6.7063,6.6916,6.6406,6.6316,6.6244,6.6172,6.5932,6.5778,6.58,6.6039,6.6207,6.6207,6.6569,6.6668,6.6294,6.6233,6.611,6.576,6.5697,6.5697,6.5697,6.5705,6.5705,6.5669,6.5715,6.5633,6.5633,6.5074,6.4323,6.357,6.2889,6.2415,6.2415,6.2415,6.2415,6.2415,6.2415,6.2415,6.2415,6.2415,6.2415,6.2415,6.2415,6.2415,6.2415,6.2415,6.2415,6.2415,6.2415,6.2133,6.1155,6.0638,6.0108,7.152,7.1299,7.1603,7.1681,7.1533,7.1853,7.1995,7.198,0.0,0.0,0.0,7.2634,7.2923,7.2967,7.3491,7.3819,7.3922,7.3817,7.3793,7.3937,7.3976,7.3937,7.3937,7.3937,7.3976,7.3937,7.3937,7.3937,7.3927,7.3937,7.3899,7.3755,7.3714,7.3629,7.3532,7.3318,7.2864,7.2138,7.1298,7.0789,7.0609,7.0636,7.0572,7.0419,7.0419,7.0419,7.0419,7.0419,7.0419,7.0386,6.9625,6.9176,6.9091,6.8309,6.776,6.7687,6.7687,6.7687,6.7687,6.7687,6.7687,6.7687,6.7687,6.7633,6.7524,6.7524,6.747,6.7322,6.7154,6.7055,6.7085,6.6917,6.6845,6.6845,6.6786,6.6822,6.6822,6.6822,6.6727,6.6822,6.6763,6.6822,6.6727,6.6727,6.6822,6.6786,6.6691,6.6822,6.6668,6.5633,6.4669,6.4112,6.3274,6.2615,6.2595,6.2448,6.2415,6.2415,6.2415,6.2415,6.2415,6.2415,6.2415,6.2415,6.2415,6.2415,6.2415,6.2415,6.2415,6.2415,6.2415,6.2415,6.2415,6.2381,6.1951,7.1615,7.1542,7.2393,7.2756,7.2822,7.3586,7.3898,7.3808,7.2889,7.2908,7.3645,7.3777,7.3838,7.3819,7.3923,7.4286,7.4811,7.478,7.5101,7.563,7.563,7.563,7.5668,7.5668,7.5668,7.5668,7.563,7.563,7.563,7.563,7.563,7.5524,7.5541,7.5418,7.5217,7.4427,7.3972,7.3858,7.3122,7.2352,7.1554,7.1593,7.1216,7.0457,7.0419,7.0419,7.0419,7.0419,7.0419,7.0386,6.9927,6.9544,6.9091,6.8618,6.8108,6.7724,6.7687,6.7687,6.7687,6.7687,6.7687,6.7687,6.7687,6.7687,6.7687,6.7687,6.7633,6.7633,6.747,6.7432,6.7429,6.7149,6.6925,6.6961,6.6845,6.6822,6.6822,6.6822,6.6822,6.6822,6.6822,6.6822,6.6822,6.6822,6.6822,6.6822,6.6895,6.6858,6.6812,6.611,6.5533,6.5273,6.4183,6.3439,6.3315,6.2764,6.2482,6.2415,6.2415,6.2415,6.2415,6.2415,6.2415,6.2415,6.2415,6.2415,6.2415,6.2415,6.2415,6.2415,6.2415,6.2415,6.2415,6.2415,6.2144,7.2745,7.3042,7.3573,7.3787,7.3737,7.4216,7.4671,7.5061,7.4587,7.4311,7.4326,7.4789,7.4977,7.4996,7.5357,7.5664,7.5966,7.5911,7.6034,7.6305,7.6199,7.6186,7.6121,7.6062,7.5976,7.5976,7.5976,7.5976,7.5976,7.5976,7.5976,7.5938,7.5925,7.5833,7.5628,7.5212,7.4987,7.492,7.3696,7.2821,7.2439,7.2439,7.2248,7.1833,7.1374,7.1107,7.1107,7.0648,7.0419,7.0419,7.0038,6.9701,6.9463,6.8803,6.8305,6.807,6.781,6.7687,6.7687,6.7687,6.7687,6.7687,6.7687,6.7687,6.7687,6.7687,6.7687,6.7687,6.7579,6.7506,6.747,6.7303,6.7134,6.7019,6.6961,6.6903,6.6786,6.6822,6.6822,6.6822,6.6822,6.6822,6.6822,6.6822,6.6822,6.6822,6.7112,6.7583,6.7981,6.7775,6.7106,6.5875,6.4806,6.4204,6.4059,6.343,6.3046,6.3012,6.2662,6.2448,6.2415,6.2415,6.2415,6.2415,6.2415,6.2415,6.2415,6.2415,6.2415,6.2415,6.2415,6.2415,6.2415,6.2415,6.2223,7.3907,7.4402,7.4662,7.485,7.4948,7.5052,7.5462,7.6047,7.6086,7.5696,7.5227,7.5813,7.6086,7.6164,7.6633,7.6825,7.6804,7.6689,7.6615,7.6591,7.6394,7.6281,7.6258,7.6079,7.5976,7.5976,7.5976,7.5976,7.5976,7.5976,7.5976,7.5976,7.5925,7.5864,7.5763,7.5692,7.5699,7.5523,7.4274,7.3476,7.3284,7.3284,7.3208,7.2945,7.2367,7.1985,7.1947,7.1145,7.0686,7.0686,7.0223,6.9928,6.974,6.902,6.8494,6.8394,6.7967,6.7687,6.7687,6.7687,6.7687,6.7687,6.7687,6.7687,6.7687,6.7687,6.7687,6.7687,6.7579,6.7542,6.756,6.7396,6.721,6.704,6.6983,6.6961,6.6786,6.6822,6.6822,6.6822,6.6822,6.6822,6.6822,6.7003,6.7221,6.7474,6.7873,6.8525,6.9032,6.9176,6.8378,6.7016,6.5871,6.5512,6.5352,6.4841,6.4442,6.429,6.3757,6.3464,6.3328,6.3158,6.2922,6.3024,6.2956,6.3024,6.2922,6.2922,6.3001,6.308,6.3069,6.299,6.3069,6.299,6.2719,7.4519,7.4675,7.5384,7.6125,7.6737,7.6789,7.6828,7.6945,7.6984,7.6945,7.6789,7.6945,7.6945,7.6984,7.7023,7.6981,7.6816,7.6778,7.6721,7.6588,7.6394,7.6281,7.6281,7.6106,7.5976,7.6015,7.6005,7.6005,7.5976,7.5976,7.5976,7.6015,7.5925,7.5895,7.5864,7.5763,7.566,7.5599,7.5455,7.4927,7.4167,7.4091,7.3712,7.299,7.2945,7.2864,7.2864,7.2024,7.1565,7.1489,7.0806,7.0179,6.9815,6.9317,6.8867,6.8416,6.7967,6.7687,6.7687,6.7687,6.7687,6.7687,6.7687,6.7687,6.7687,6.7687,6.7687,6.7687,6.7687,6.7687,6.7687,6.7524,6.7414,6.721,6.704,6.6961,6.6786,6.6822,6.6822,6.6822,6.6858,6.6822,6.6967,6.7487,6.8174,6.8778,6.8923,6.9176,6.9394,6.943,6.9394,6.8848,6.8263,6.7812,6.7589,6.7171,6.6531,6.6495,6.5937,6.5343,6.5044,6.4698,6.4343,6.3971,6.4208,6.4174,6.4208,6.439,6.4313,6.4075,6.4131,6.4309,6.4356,6.4288,6.3835,7.5633,7.6086,7.6438,7.675,7.7062,7.7101,7.7101,7.7101,7.7101,7.7101,7.7101,7.7101,7.7101,7.7101,7.7101,7.7043,7.6981,7.6972,7.6958,7.6866,7.6699,7.6621,7.6566,7.6418,7.6281,7.6173,7.6212,7.6106,7.6005,7.5976,7.5976,7.5976,7.5985,7.5955,7.5955,7.5887,7.5826,7.5801,7.5704,7.5451,7.508,7.5004,7.4816,7.4472,7.3972,7.3705,7.3628,7.2902,7.2215,7.1756,7.1374,7.0849,7.0179,6.9747,6.9283,6.8833,6.8134,6.7687,6.7687,6.7687,6.7687,6.7687,6.7687,6.7687,6.7687,6.7687,6.7687,6.7687,6.7687,6.7687,6.7687,6.7633,6.7524,6.7266,6.7154,6.704,6.6822,6.6822,6.6822,6.6822,6.7207,6.752,6.7606,6.8186,6.8992,6.9694,6.9901,7.0009,7.0408,7.0553,7.0553,7.0553,7.0265,6.9688,6.8995,6.8146,6.7748,6.7527,6.7019,6.6462,6.5994,6.5619,6.5152,6.4776,6.4762,6.4796,6.4546,6.4647,6.458,6.4708,6.4681,6.4638,6.46,6.4613,6.4241,7.654,7.7062,7.7101,7.7101,7.7101,7.7101,7.7101,7.7101,7.7101,7.7101,7.7101,7.7101,7.7101,7.7101,7.7101,7.7101,7.7101,7.7101,7.7101,7.7056,7.6897,7.6804,7.6793,7.6653,7.6517,7.6327,7.6281,7.6173,7.6005,7.5976,7.5976,7.5976,7.5976,7.5976,7.5976,7.5976,7.5985,7.5895,7.5787,7.566,7.5574,7.5501,7.5501,7.5424,7.4889,7.4545,7.4545,7.3743,7.3089,7.2477,7.198,7.1445,7.0795,7.0075,6.9359,6.875,6.8084,6.7687,6.7687,6.7687,6.7687,6.7687,6.7687,6.7687,6.7687,6.7687,6.7687,6.7687,6.7687,6.7687,6.7687,6.7687,6.7579,6.7266,6.721,6.7097,6.6845,6.6822,6.6895,6.7112,6.7606,6.8209,6.8621,6.9198,6.9823,7.049,7.0698,7.0842,7.135,7.1458,7.1458,7.1494,7.1458,7.1024,7.0009,6.955,6.9064,6.8867,6.8543,6.7883,6.7123,6.7004,6.647,6.6337,6.5744,6.5386,6.5493,6.5343,6.5208,6.5208,6.5226,6.5228,6.5444,6.5208,6.5155,7.7048,7.7101,7.7101,7.7101,7.7101,7.7101,7.7101,7.7101,7.7101,7.7101,7.7101,7.7101,7.7101,7.7101,7.7101,7.7101,7.7101,7.7101,7.7101,7.7095,7.6897,7.6804,7.6793,7.6653,7.6517,7.6327,7.6327,7.6199,7.6005,7.5976,7.5976,7.5976,7.5976,7.5976,7.5976,7.5976,7.5985,7.5895,7.5763,7.5672,7.5608,7.5574,7.5501,7.5501,7.5424,7.5386,7.531,7.4584,7.4159,7.426,7.2767,7.1848,7.158,7.0151,6.8828,6.7959,6.7741,6.7687,6.7687,6.7687,6.7687,6.7687,6.7687,6.7687,6.7687,6.7687,6.7687,6.7687,6.7687,6.7687,6.7687,6.7687,6.7579,6.7266,6.721,6.7097,6.6845,6.6895,6.7184,6.7692,6.81,6.8766,6.9994,7.0355,7.0645,7.1142,7.1422,7.1422,7.1458,7.1494,7.1494,7.1494,7.1494,7.1458,7.135,7.0915,7.1024,7.0753,7.0121,6.9965,6.9872,6.9601,6.8728,6.8007,6.7522,6.7078,6.686,6.6643,6.6508,6.6474,6.6406,6.6356,6.6154,6.6576,6.6373,7.7087,7.7101,7.7101,7.7101,7.7101,7.7101,7.7101,7.7101,7.7101,7.7101,7.7101,7.7101,7.7101,7.7101,7.7101,7.7101,7.7101,7.7101,7.7101,7.7101,7.7036,7.6981,7.6981,7.6946,7.678,7.6536,7.6458,7.6305,7.6034,7.5976,7.5976,7.5976,7.5976,7.5976,7.5976,7.5976,7.5985,7.5856,7.5763,7.5664,7.5595,7.5532,7.5501,7.5501,7.5501,7.5501,7.5501,7.5226,7.4915,7.4413,7.3762,7.2958,7.1816,7.0117,6.886,6.821,6.7888,6.7687,6.7687,6.7687,6.7687,6.7687,6.7687,6.7687,6.7687,6.7687,6.7687,6.7687,6.7687,6.7687,6.7687,6.7687,6.7633,6.7414,6.7266,6.7154,6.7034,6.728,6.7692,6.8054,6.8826,6.9987,7.0698,7.1106,7.1178,7.1458,7.1494,7.1494,7.1494,7.1494,7.1494,7.1494,7.1494,7.1494,7.1494,7.1494,7.1458,7.1422,7.1115,7.0649,7.0472,7.0303,6.953,6.8838,6.8566,6.8093,6.7501,6.7014,6.7048,6.6812,6.6812,6.6812,6.6812,6.6812,6.6711,7.7078,7.7101,7.7101,7.7101,7.7101,7.7101,7.7101,7.7101,7.7101,7.7101,7.7101,7.7101,7.7101,7.7101,7.7101,7.7101,7.7101,7.7101,7.7101,7.7101,7.7101,7.7101,7.7101,7.7101,7.6936,7.6626,7.6438,7.6273,7.6034,7.5976,7.5976,7.5976,7.5976,7.5976,7.5976,7.5976,7.5985,7.5925,7.5772,7.5749,7.5923,7.5681,7.5615,7.5803,7.565,7.5501,7.5501,7.557,7.537,7.4867,7.4561,7.3418,7.1472,7.0193,6.9099,6.8268,6.7888,6.7687,6.7687,6.7687,6.7687,6.7687,6.7687,6.7687,6.7687,6.7687,6.7687,6.7687,6.7687,6.7687,6.7687,6.7687,6.7633,6.7524,6.7378,6.732,6.7461,6.7833,6.8259,6.8947,6.9926,7.0869,7.135,7.1458,7.1494,7.1494,7.1494,7.1494,7.1494,7.1494,7.1494,7.1494,7.1494,7.1494,7.1494,7.1494,7.1494,7.1458,7.1458,7.1139,7.0943,7.0811,7.044,6.9707,6.9126,6.86,6.8083,6.7496,6.7199,6.6964,6.6812,6.6812,6.6812,6.6812,6.6711,7.7101,7.7101,7.7101,7.7101,7.7101,7.7101,7.7101,7.7101,7.7101,7.7101,7.7101,7.7101,7.7101,7.7101,7.7101,7.7101,7.7101,7.7101,7.7101,7.7101,7.7101,7.7101,7.7101,7.7101,7.6897,7.6609,7.6199,7.6044,7.5976,7.5976,7.5976,7.5976,7.5976,7.5976,7.5976,7.5976,7.5985,7.5895,7.5794,7.607,7.6651,7.5948,7.5844,7.6453,7.5994,7.565,7.5539,7.5535,7.5527,7.5545,7.4829,7.3105,7.1051,7.0307,6.951,6.8062,6.7687,6.7687,6.7687,6.7687,6.7687,6.7687,6.7687,6.7687,6.7687,6.7687,6.7687,6.7687,6.7687,6.7687,6.7687,6.7797,6.7743,6.7561,6.7543,6.7853,6.8159,6.8335,6.8777,7.0035,7.0951,7.1422,7.1494,7.1494,7.1494,7.1494,7.1494,7.1494,7.1494,7.1494,7.1494,7.1494,7.1494,7.1494,7.1494,7.1494,7.1494,7.1494,7.1494,7.1368,7.1304,7.124,7.1009,7.0404,6.999,6.9492,6.8544,6.8086,6.7656,6.7455,6.7167,6.688,6.6812,6.6812,6.6812,7.7078,7.7101,7.7101,7.7101,7.7101,7.7101,7.7101,7.7101,7.7101,7.7101,7.7101,7.7101,7.7101,7.7101,7.7101,7.7101,7.7101,7.7101,7.7101,7.7101,7.7101,7.7101,7.7101,7.7101,7.6936,7.6609,7.6328,7.613,7.6015,7.5976,7.5976,7.5976,7.5976,7.5976,7.5976,7.5976,7.5985,7.5895,7.5839,7.5929,7.5987,7.573,7.5962,7.6609,7.6526,7.6411,7.6303,7.5838,7.5599,7.5692,7.5365,7.3964,7.1735,7.0644,6.951,6.7973,6.7687,6.7687,6.7687,6.7687,6.7687,6.7687,6.7687,6.7687,6.7687,6.7687,6.7687,6.7687,6.7687,6.7687,6.776,6.8238,6.8274,6.7707,6.8037,6.8421,6.8747,6.9377,7.0157,7.0977,7.135,7.1494,7.1494,7.1494,7.1494,7.1494,7.1494,7.1494,7.1494,7.1494,7.1494,7.1494,7.1494,7.1494,7.1494,7.1494,7.1494,7.1494,7.1494,7.1494,7.1494,7.1494,7.1304,7.1074,7.0745,7.0131,6.9262,6.8717,6.8372,6.7944,6.7758,6.7353,6.6914,6.6812,6.6846,7.7133,7.7101,7.7101,7.7101,7.7101,7.7101,7.7101,7.7101,7.7101,7.7101,7.7101,7.7101,7.7101,7.7101,7.7101,7.7101,7.7101,7.7101,7.7101,7.7101,7.7101,7.7101,7.7056,7.6989,7.6866,7.6591,7.6366,7.6169,7.6015,7.5976,7.5976,7.5976,7.5976,7.5976,7.5976,7.5976,7.5985,7.5895,7.5902,7.5955,7.6016,7.5795,7.5991,7.6637,7.659,7.659,7.6748,7.6327,7.5978,7.5704,7.5633,7.4537,7.2462,7.136,7.0032,6.872,6.7961,6.7687,6.7687,6.7687,6.7687,6.7687,6.7687,6.7687,6.7687,6.7687,6.7687,6.7687,6.7687,6.7834,6.8147,6.8568,6.8752,6.8641,6.899,6.9319,6.9571,7.0433,7.1028,7.1412,7.1494,7.1494,7.1494,7.1494,7.1494,7.1494,7.1494,7.1494,7.1494,7.1494,7.1494,7.1494,7.1494,7.1494,7.1494,7.1494,7.1494,7.1494,7.1494,7.1494,7.1494,7.1494,7.1431,7.1368,7.111,7.0745,6.992,6.9706,6.9376,6.8856,6.8289,6.7826,6.7387,6.6914,6.6846,7.7181,7.7146,7.7101,7.714,7.7218,7.714,7.7101,7.7101,7.7101,7.7101,7.7101,7.7101,7.7101,7.7101,7.7101,7.7101,7.7101,7.7101,7.7101,7.7101,7.7101,7.7101,7.7056,7.6965,7.6832,7.6626,7.6427,7.6244,7.6062,7.6005,7.5976,7.5976,7.5976,7.5976,7.5976,7.5976,7.5985,7.5925,7.5879,7.6225,7.6701,7.6101,7.6101,7.6901,7.6377,7.6338,7.6875,7.682,7.6407,7.5791,7.5719,7.5038,7.353,7.2308,7.0911,6.9516,6.8382,6.7851,6.7687,6.7687,6.7687,6.7687,6.7687,6.7687,6.7687,6.7687,6.776,6.7888,6.7871,6.8164,6.8807,6.9174,6.9522,7.0073,7.0164,7.0344,7.0784,7.1369,7.1573,7.1557,7.1494,7.1494,7.1494,7.1494,7.1494,7.1494,7.1494,7.1494,7.1494,7.1494,7.1494,7.1494,7.1494,7.1494,7.1494,7.1494,7.1494,7.1494,7.1494,7.1494,7.1494,7.1494,7.1494,7.1431,7.1368,7.1009,7.0811,7.0507,7.016,6.953,6.892,6.8336,6.7891,6.7612,6.7229,7.7538,7.7964,7.7352,7.7492,7.7882,7.7414,7.7101,7.7101,7.7101,7.7101,7.7101,7.7101,7.7101,7.7101,7.7101,7.7101,7.7101,7.7101,7.7101,7.7101,7.7101,7.7101,7.7101,7.7043,7.6946,7.6767,7.6651,7.6411,7.6224,7.6167,7.6015,7.5976,7.5976,7.5976,7.5976,7.5976,7.6015,7.5985,7.5947,7.6053,7.6139,7.601,7.6248,7.6869,7.6785,7.6722,7.693,7.6828,7.6682,7.6453,7.6415,7.5501,7.383,7.246,7.1219,6.991,6.8529,6.7687,6.7741,6.7687,6.7687,6.7687,6.776,6.7687,6.7687,6.7687,6.7998,6.8365,6.8586,6.8935,6.965,7.033,7.0934,7.1443,7.115,7.1034,7.1357,7.1635,7.1718,7.1593,7.1494,7.1494,7.1494,7.1494,7.1494,7.1494,7.1494,7.1494,7.1494,7.1494,7.1494,7.1494,7.1494,7.1494,7.1494,7.1494,7.1494,7.1494,7.1494,7.1494,7.1494,7.1494,7.1494,7.1494,7.1494,7.124,7.124,7.1204,7.0626,7.0114,6.9771,6.9314,6.8967,6.8676,6.8172,7.8008,7.8359,7.7836,7.7737,7.7804,7.7335,7.7101,7.7101,7.7101,7.7101,7.7101,7.7101,7.7101,7.7101,7.7101,7.7101,7.7101,7.7101,7.7101,7.7101,7.7101,7.7101,7.7101,7.7101,7.7176,7.7323,7.7182,7.7032,7.6869,7.6646,7.639,7.6053,7.5976,7.5976,7.5976,7.5976,7.5976,7.5976,7.5976,7.5976,7.5938,7.5917,7.6117,7.6509,7.6586,7.6607,7.6824,7.7138,7.7141,7.6876,7.6953,7.6647,7.5465,7.3833,7.2432,7.1219,6.9562,6.8399,6.7989,6.7847,6.7871,6.8128,6.8201,6.8385,6.8641,6.8678,6.899,6.9282,6.9357,6.9816,7.0531,7.1301,7.1924,7.2102,7.1801,7.161,7.178,7.1718,7.1656,7.1531,7.1494,7.1494,7.1494,7.1494,7.1494,7.1494,7.1494,7.1494,7.1494,7.1494,7.1494,7.1494,7.1494,7.1494,7.1494,7.1494,7.1494,7.1494,7.1494,7.1494,7.1494,7.1494,7.1494,7.1494,7.1494,7.1494,7.1494,7.1494,7.1259,7.0815,7.0681,7.0318,6.9842,6.9492,6.8978,7.8594,7.8515,7.8433,7.795,7.7341,7.714,7.7101,7.7101,7.7101,7.7101,7.7101,7.7101,7.7101,7.7101,7.7101,7.7101,7.7101,7.7101,7.7101,7.7101,7.7101,7.7101,7.7101,7.7101,7.7426,7.7872,7.7894,7.7663,7.7444,7.7317,7.6775,7.6207,7.5976,7.5976,7.5976,7.5976,7.5976,7.5976,7.5976,7.5976,7.5976,7.5947,7.6062,7.6071,7.6018,7.6191,7.6743,7.7288,7.7444,7.6723,7.7449,7.7561,7.7335,7.57,7.443,7.3144,7.1093,6.9392,6.8803,6.8446,6.8311,6.8898,6.9045,6.9302,6.9743,6.9816,6.9908,7.0182,7.022,7.066,7.1338,7.2071,7.2328,7.2263,7.2071,7.1927,7.178,7.1656,7.1494,7.1494,7.1494,7.1494,7.1494,7.1494,7.1494,7.1494,7.1494,7.1494,7.1494,7.1494,7.1494,7.1494,7.1494,7.1494,7.1494,7.1494,7.1494,7.1494,7.1494,7.1494,7.1494,7.1494,7.1494,7.1494,7.1494,7.1494,7.1494,7.1494,7.1458,7.1386,7.1033,7.0698,7.0273,7.0092,6.9636,7.9453,7.9375,7.8711,7.8311,7.8044,7.7414,7.7101,7.7101,7.7101,7.7101,7.7101,7.7101,7.7101,7.7101,7.7101,7.7101,7.7101,7.7101,7.7101,7.7101,7.7101,7.7101,7.7101,7.7101,7.7564,7.8058,7.7947,7.7774,7.7699,7.7421,7.6852,7.613,7.5976,7.5976,7.5976,7.5976,7.5976,7.5976,7.5976,7.5976,7.5976,7.5976,7.5985,7.5895,7.5769,7.5709,7.5982,7.6602,7.6873,7.68,7.6838,7.7029,7.6766,7.5169,7.4252,7.3875,7.2109,7.0511,7.0202,6.9806,6.9633,6.9779,6.9853,6.9889,7.0036,7.022,7.0459,7.0845,7.1084,7.1431,7.2034,7.2386,7.2438,7.2321,7.2144,7.1964,7.178,7.1656,7.1494,7.1494,7.1494,7.1494,7.1494,7.1494,7.1494,7.1494,7.1494,7.1494,7.1494,7.1494,7.1494,7.1494,7.1494,7.1494,7.1494,7.1494,7.1494,7.1494,7.1494,7.1494,7.1494,7.1494,7.1494,7.1494,7.1494,7.1494,7.1494,7.1494,7.1458,7.1422,7.1323,7.1023,7.0728,7.0575,7.027,7.9726,7.9609,7.8789,7.8201,7.7797,7.7307,7.7101,7.7101,7.7101,7.7101,7.7101,7.7101,7.7101,7.7101,7.7101,7.7101,7.7101,7.7101,7.7101,7.7101,7.7101,7.7101,7.7101,7.7179,7.7531,7.8233,7.8116,7.7901,7.7753,7.7473,7.6931,7.6053,7.5976,7.5976,7.5976,7.5976,7.5976,7.5976,7.5976,7.5976,7.5976,7.5976,7.5955,7.5833,7.5666,7.5566,7.5646,7.5918,7.6112,7.615,7.615,7.657,7.6993,7.5856,7.5209,7.4674,7.3345,7.1733,7.1247,7.0708,7.0511,7.066,7.066,7.0917,7.1101,7.1211,7.1358,7.1745,7.1872,7.2092,7.2459,7.2496,7.2438,7.238,7.2144,7.1988,7.1842,7.1656,7.1494,7.1494,7.1494,7.1494,7.1494,7.1494,7.1494,7.1494,7.1494,7.1494,7.1494,7.1494,7.1494,7.1494,7.1494,7.1494,7.1494,7.1494,7.1494,7.1494,7.1494,7.1494,7.1494,7.1494,7.1494,7.1494,7.1494,7.1494,7.1494,7.1458,7.1359,7.1323,7.1259,7.1175,7.1015,7.0714,7.0511,7.9609,7.9453,7.8711,7.793,7.7265,7.713,7.7112,7.7107,7.7101,7.7101,7.7101,7.7101,7.7101,7.7101,7.7101,7.7101,7.7101,7.7101,7.7101,7.7101,7.7101,7.7101,7.7101,7.7179,7.7414,7.8155,7.8116,7.7979,7.7804,7.7563,7.6944,7.6149,7.5976,7.5976,7.5976,7.5976,7.5976,7.5976,7.5976,7.5976,7.6015,7.5985,7.5895,7.5731,7.5633,7.557,7.5535,7.5577,7.5539,7.5501,7.5501,7.6265,7.6955,7.6995,7.6386,7.5577,7.4328,7.3191,7.2245,7.1615,7.1405,7.1524,7.1505,7.1762,7.2239,7.2312,7.2275,7.2349,7.2422,7.2422,7.2532,7.2532,7.2496,7.238,7.2204,7.1988,7.1903,7.1682,7.1494,7.1494,7.1494,7.1494,7.1494,7.1494,7.1494,7.1494,7.1494,7.1494,7.1494,7.1494,7.1494,7.1494,7.1494,7.1494,7.1494,7.1494,7.1494,7.1494,7.1494,7.1494,7.1494,7.1494,7.1494,7.1494,7.1494,7.1431,7.1395,7.1286,7.125,7.1223,7.1175,7.1057,7.0991,7.0817,7.0615,7.9297,7.8672,7.8555,7.7969,7.7265,7.7187,7.7142,7.7091,7.7117,7.7101,7.7101,7.7101,7.7101,7.7101,7.7101,7.7101,7.7101,7.7101,7.7101,7.7101,7.7101,7.7101,7.7101,7.7101,7.7218,7.7414,7.772,7.7911,7.7726,7.7524,7.69,7.6206,7.5976,7.5976,7.5976,7.5976,7.5976,7.5976,7.5976,7.5976,7.6015,7.5925,7.5833,7.5633,7.5566,7.5535,7.5535,7.5501,7.5501,7.5501,7.5501,7.5653,7.5959,7.5921,7.5997,7.5994,7.5195,7.4106,7.3439,7.3056,7.268,7.2409,7.2239,7.2239,7.2459,7.2532,7.2532,7.2532,7.2532,7.2532,7.2532,7.2532,7.2438,7.2321,7.2144,7.1927,7.1842,7.1656,7.1494,7.1494,7.1494,7.1494,7.1494,7.1494,7.1494,7.1494,7.1494,7.1494,7.1494,7.1494,7.1494,7.1494,7.1494,7.1494,7.1494,7.1494,7.1494,7.1494,7.1494,7.1531,7.1494,7.1494,7.1494,7.1368,7.1404,7.134,7.1232,7.1187,7.1123,7.1067,7.1021,7.0901,7.0861,7.0718,7.0682,7.8867,7.8437,7.8008,7.7578,7.7265,7.7226,7.7187,7.7145,7.7139,7.7133,7.7122,7.7068,7.7101,7.7101,7.7101,7.7101,7.7101,7.7101,7.7101,7.7101,7.7101,7.7101,7.7101,7.7101,7.7101,7.7179,7.7447,7.7511,7.7258,7.7114,7.6721,7.6289,7.6024,7.5976,7.5976,7.5976,7.5976,7.5976,7.5976,7.5976,7.5985,7.5871,7.5709,7.5599,7.5532,7.5501,7.5501,7.5501,7.5501,7.5501,7.5501,7.5501,7.5501,7.5539,7.5688,7.5918,7.5462,7.4866,7.4417,7.3916,7.3429,7.298,7.2686,7.2496,7.2532,7.2532,7.2532,7.2532,7.2532,7.2532,7.2532,7.2532,7.2438,7.2263,7.2144,7.1964,7.178,7.162,7.1494,7.1494,7.1494,7.1494,7.1494,7.1494,7.1494,7.1494,7.1494,7.1494,7.1494,7.1494,7.1494,7.1494,7.1494,7.1494,7.1494,7.1494,7.1494,7.1494,7.1494,7.1431,7.1467,7.1404,7.1304,7.1175,7.1211,7.1247,7.1074,7.0966,7.0937,7.0872,7.0785,7.069,7.069,7.0654,7.0582,7.8203,7.8164,7.75,7.7226,7.7226,7.7226,7.7226,7.7226,7.7226,7.7186,7.7142,7.713,7.7122,7.7117,7.7112,7.7107,7.7101,7.7101,7.7101,7.7101,7.7101,7.7101,7.7101,7.7101,7.7101,7.7101,7.714,7.6981,7.6909,7.6754,7.6497,7.6258,7.6079,7.5976,7.5976,7.5976,7.5976,7.5976,7.5976,7.6015,7.5895,7.5781,7.565,7.5566,7.5535,7.5501,7.5501,7.5501,7.5501,7.5501,7.5501,7.5501,7.5501,7.5501,7.5501,7.5501,7.5501,7.517,7.4745,7.4199,7.3725,7.3246,7.2798,7.2553,7.2532,7.2532,7.2532,7.2532,7.2532,7.2532,7.2532,7.2532,7.238,7.2263,7.2048,7.1927,7.1744,7.1593,7.1494,7.1494,7.1494,7.1494,7.1494,7.1494,7.1494,7.1494,7.1494,7.1494,7.1494,7.1494,7.1494,7.1494,7.1494,7.1494,7.1494,7.1494,7.1494,7.1494,7.1494,7.1431,7.1404,7.134,7.1211,7.1081,7.1081,7.1051,7.0979,7.0878,7.0745,7.0714,7.0615,7.0582,7.055,7.055,7.0514,7.7265,7.7344,7.7265,7.7226,7.7187,7.7187,7.7187,7.7187,7.7187,7.7226,7.7187,7.7187,7.7187,7.7145,7.7139,7.7087,7.7112,7.7107,7.7107,7.7101,7.7101,7.7101,7.7101,7.7101,7.7101,7.7101,7.7101,7.6981,7.6816,7.6684,7.6497,7.6305,7.616,7.5976,7.5976,7.5976,7.5976,7.5976,7.5976,7.5917,7.5763,7.5676,7.5574,7.5535,7.5535,7.5501,7.5501,7.5501,7.5501,7.5501,7.5501,7.5501,7.5501,7.5501,7.5501,7.5501,7.5427,7.5281,7.4786,7.4331,7.3925,7.3466,7.2871,7.261,7.2532,7.2532,7.2532,7.2532,7.2532,7.2532,7.2532,7.2532,7.2321,7.2167,7.2048,7.1805,7.162,7.1593,7.1494,7.1494,7.1494,7.1494,7.1494,7.1494,7.1494,7.1494,7.1494,7.1494,7.1494,7.1494,7.1494,7.1494,7.1494,7.1494,7.1494,7.1494,7.1494,7.1494,7.1431,7.1431,7.1276,7.1146,7.1051,7.0985,7.0919,7.0852,7.0817,7.0682,7.0615,7.0547,7.0478,7.0514,7.0514,7.0514,7.0514,7.6903,7.707,7.7,7.6995,7.7077,7.7087,7.7109,7.7109,7.7148,7.7226,7.7226,7.7226,7.7226,7.7187,7.7147,7.7183,7.7139,7.713,7.7078,7.7107,7.7101,7.7101,7.7101,7.7101,7.7101,7.7101,7.7101,7.7056,7.6907,7.678,7.6638,7.6438,7.6234,7.6106,7.6005,7.5976,7.5976,7.5976,7.5976,7.5917,7.5763,7.5676,7.5577,7.5501,7.5501,7.5501,7.5501,7.5501,7.5501,7.5501,7.5501,7.5501,7.5501,7.5501,7.5501,7.5501,7.5501,7.5392,7.5132,7.4664,7.4287,7.3963,7.3415,7.2853,7.261,7.2532,7.2532,7.2532,7.2532,7.2532,7.2532,7.2532,7.2321,7.2108,7.1988,7.1805,7.162,7.1557,7.1494,7.1494,7.1494,7.1494,7.1494,7.1494,7.1494,7.1494,7.1494,7.1494,7.1494,7.1494,7.1494,7.1494,7.1494,7.1494,7.1494,7.1494,7.1494,7.1431,7.1404,7.134,7.1146,7.1015,7.0919,7.0785,7.0718,7.065,7.065,7.0582,7.0547,7.0478,7.0514,7.0514,7.0514,7.0514,7.0514,7.6893,7.6894,7.6809,7.6871,7.6953,7.6955,7.6953,7.6953,7.707,7.7148,7.7148,7.7187,7.7226,7.7226,7.7187,7.7187,7.7226,7.7145,7.7137,7.7126,7.7107,7.7101,7.7101,7.7101,7.7101,7.7101,7.7101,7.7056,7.7043,7.6917,7.6768,7.6609,7.6372,7.6173,7.6062,7.5976,7.5976,7.5976,7.5976,7.5879,7.5794,7.5676,7.5612,7.5539,7.5501,7.5501,7.5501,7.5501,7.5501,7.5501,7.5501,7.5501,7.5501,7.5501,7.5501,7.5501,7.5501,7.5501,7.5281,7.5018,7.4786,7.4417,7.3869,7.3034,7.261,7.2496,7.2532,7.2532,7.2532,7.2532,7.2532,7.2532,7.2321,7.2108,7.1988,7.1744,7.1557,7.1494,7.1494,7.1494,7.1494,7.1494,7.1494,7.1494,7.1494,7.1494,7.1494,7.1494,7.1494,7.1494,7.1494,7.1494,7.1494,7.1494,7.1494,7.1494,7.1494,7.1404,7.134,7.1211,7.1051,7.0919,7.0785,7.065,7.0514,7.0514,7.0582,7.0514,7.0514,7.0514,7.0514,7.0514,7.0514,7.0514,7.0514,7.7256,7.6648,7.6777,7.6816,7.6808,7.6815,7.6821,7.6838,7.6974,7.7031,7.7031,7.7148,7.7226,7.7226,7.7226,7.7226,7.7226,7.7187,7.7187,7.7187,7.713,7.7107,7.7101,7.7101,7.7101,7.7101,7.7101,7.7101,7.7101,7.705,7.6855,7.6643,7.6458,7.6248,7.609,7.6005,7.5976,7.5976,7.5976,7.5917,7.5794,7.5709,7.5612,7.5539,7.5501,7.5501,7.5501,7.5501,7.5501,7.5501,7.5501,7.5501,7.5501,7.5501,7.5501,7.5501,7.5501,7.5501,7.5392,7.5132,7.4786,7.4417,7.3925,7.3209,7.2686,7.2553,7.2496,7.2496,7.2496,7.2496,7.2496,7.2438,7.2226,7.2108,7.1927,7.178,7.1656,7.1494,7.1494,7.1494,7.1494,7.1494,7.1494,7.1494,7.1494,7.1494,7.1494,7.1494,7.1494,7.1494,7.1494,7.1494,7.1494,7.1494,7.1494,7.1494,7.1431,7.134,7.1283,7.1051,7.0919,7.0785,7.065,7.0582,7.0514,7.0514,7.0514,7.0514,7.0514,7.0514,7.0514,7.0514,7.0514,7.0514,7.0514,7.8332,7.8046,7.7563,7.7116,7.6668,7.6668,7.6742,7.6826,7.6848,7.6934,7.6992,7.7148,7.7226,7.7226,7.7226,7.7226,7.7226,7.7226,7.7226,7.7187,7.7139,7.7083,7.7073,7.7101,7.7101,7.7101,7.7101,7.7101,7.7101,7.7101,7.6965,7.6755,7.6615,7.6438,7.6258,7.6052,7.6005,7.5976,7.5976,7.5947,7.5848,7.5731,7.5638,7.5577,7.5501,7.5501,7.5501,7.5501,7.5501,7.5501,7.5501,7.5501,7.5501,7.5501,7.5501,7.5501,7.5501,7.5501,7.5501,7.5281,7.5095,7.4705,7.4331,7.3821,7.305,7.298,7.2742,7.2667,7.2475,7.238,7.2475,7.2321,7.2108,7.1988,7.1927,7.1842,7.1744,7.1744,7.1682,7.1744,7.162,7.1494,7.1494,7.1494,7.1494,7.1494,7.1494,7.1494,7.1557,7.1557,7.162,7.1494,7.1494,7.1494,7.1494,7.1431,7.1368,7.1247,7.1123,7.0955,7.0785,7.065,7.0582,7.0514,7.0514,7.0514,7.0514,7.0514,7.0514,7.0514,7.0514,7.0514,7.0514,7.0514,7.0514,7.9221,7.895,7.8332,7.7635,7.6939,7.663,7.6591,7.6676,7.6787,7.6885,7.707,7.7187,7.7226,7.7226,7.7226,7.7226,7.7226,7.7226,7.7226,7.7187,7.7145,7.713,7.7112,7.7101,7.7101,7.7101,7.7101,7.7101,7.7101,7.7101,7.7028,7.6917,7.6877,7.6699,7.6436,7.6199,7.6079,7.6079,7.6005,7.5976,7.5908,7.5818,7.5704,7.5646,7.5574,7.5535,7.5535,7.5501,7.5501,7.5501,7.5501,7.5501,7.5501,7.5501,7.5501,7.5501,7.5501,7.5501,7.5501,7.5427,7.5245,7.4786,7.4705,7.4199,7.3725,7.3401,7.3017,7.2831,7.2526,7.2358,7.249,7.2194,7.2024,7.1964,7.2189,7.213,7.213,7.2094,7.2011,7.1951,7.1878,7.1811,7.166,7.1721,7.1925,7.1902,7.1951,7.1951,7.1951,7.1891,7.1744,7.162,7.1494,7.1494,7.1458,7.1431,7.1376,7.1057,7.096,7.0888,7.0718,7.0582,7.0514,7.0514,7.0514,7.0514,7.0514,7.0514,7.0514,7.0514,7.0514,7.0514,7.0514,7.0514,7.0514,7.9763,7.9028,7.8989,7.8486,7.7674,7.6784,7.6475,7.6643,7.6762,7.6942,7.7145,7.7187,7.7226,7.7226,7.7226,7.7226,7.7226,7.7226,7.7226,7.7187,7.7187,7.7137,7.7122,7.7107,7.7101,7.7101,7.7101,7.7101,7.7101,7.7101,7.7056,7.705,7.7028,7.6887,7.6626,7.6394,7.632,7.6273,7.6118,7.6044,7.5976,7.5908,7.5833,7.5676,7.5642,7.5532,7.5535,7.5501,7.5501,7.5501,7.5501,7.5501,7.5501,7.5501,7.5501,7.5501,7.5501,7.5501,7.5501,7.5501,7.5245,7.4942,7.4903,7.4582,7.4018,7.3665,7.34,7.3295,7.281,7.2519,7.234,7.2182,7.2121,7.2226,7.248,7.2556,7.252,7.252,7.2463,7.2299,7.2267,7.2263,7.2048,7.2013,7.2355,7.2448,7.2369,7.2386,7.2386,7.2328,7.2212,7.2153,7.1975,7.1755,7.1718,7.1567,7.1412,7.1063,7.0793,7.0722,7.065,7.0514,7.0514,7.0514,7.0514,7.0514,7.0514,7.0514,7.0514,7.0514,7.0514,7.0514,7.0514,7.0514,7.0514,8.0923,8.0614,8.0034,7.9608,7.9183,7.7829,7.7311,7.7328,7.7111,7.6951,7.6978,7.7097,7.7226,7.7226,7.7226,7.7226,7.7226,7.7226,7.7226,7.7187,7.7147,7.7139,7.7126,7.7068,7.7101,7.7101,7.7101,7.7101,7.7101,7.7101,7.7101,7.7101,7.7056,7.6965,7.6741,7.657,7.6457,7.632,7.6184,7.613,7.6015,7.5976,7.5848,7.5704,7.5599,7.5566,7.5535,7.5501,7.5501,7.5501,7.5501,7.5501,7.5501,7.5501,7.5501,7.5501,7.5501,7.5501,7.5501,7.5501,7.5465,7.5245,7.5132,7.4942,7.454,7.4331,7.4099,7.3791,7.3384,7.3202,7.3276,7.3054,7.2997,7.2997,7.3104,7.3013,7.2976,7.3013,7.2943,7.2642,7.2559,7.2731,7.2724,7.2664,7.2889,7.3141,7.3135,7.2976,7.2923,7.296,7.2906,7.2852,7.2687,7.2321,7.2073,7.1837,7.1412,7.0955,7.0686,7.0618,7.0514,7.0514,7.0514,7.0514,7.0514,7.0514,7.0514,7.0514,7.0514,7.0514,7.0514,7.0514,7.0514,7.0514,7.0514,8.1504,8.1426,8.0575,8.0188,7.9995,7.8718,7.8085,7.781,7.7209,7.6895,7.6933,7.7109,7.7226,7.7226,7.7226,7.7226,7.7226,7.7226,7.7226,7.7187,7.7147,7.7139,7.7126,7.7073,7.7101,7.7101,7.7101,7.7101,7.7101,7.7101,7.7101,7.7101,7.7101,7.7036,7.6877,7.6741,7.6621,7.6477,7.6413,7.6245,7.613,7.5985,7.5848,7.5763,7.5666,7.5599,7.5497,7.5501,7.5501,7.5501,7.5501,7.5501,7.5501,7.5501,7.5501,7.5501,7.5501,7.5501,7.5501,7.5501,7.5501,7.5427,7.5501,7.5318,7.498,7.4745,7.453,7.4235,7.3971,7.3821,7.3747,7.3522,7.3479,7.3466,7.3529,7.3442,7.3492,7.3579,7.3579,7.3273,7.3091,7.3256,7.3317,7.3441,7.3532,7.3682,7.3869,7.3677,7.3492,7.3529,7.3429,7.3341,7.3164,7.2741,7.2321,7.2019,7.1557,7.0883,7.0682,7.0514,7.0514,7.0514,7.0514,7.0514,7.0514,7.0514,7.0514,7.0514,7.0514,7.0514,7.0514,7.0514,7.0514,7.0514,7.0514,8.1426,8.131,8.0536,8.0111,7.9995,7.9105,7.8409,7.7775,7.7063,7.6869,7.699,7.7108,7.7187,7.7226,7.7226,7.7226,7.7226,7.7226,7.7226,7.7226,7.7187,7.7148,7.7122,7.7107,7.7101,7.7101,7.7101,7.7101,7.7101,7.7101,7.7101,7.7101,7.7101,7.705,7.6981,7.6897,7.6793,7.6676,7.6517,7.6392,7.6244,7.613,7.5925,7.5794,7.566,7.5633,7.5532,7.5501,7.5501,7.5501,7.5501,7.5501,7.5501,7.5501,7.5501,7.5501,7.5501,7.5501,7.5501,7.5501,7.5501,7.5501,7.5501,7.5501,7.5356,7.5095,7.4863,7.4664,7.4384,7.4052,7.379,7.365,7.3541,7.3725,7.3916,7.3963,7.4139,7.4184,7.4229,7.4094,7.3899,7.3827,7.3733,7.3846,7.4048,7.4206,7.4312,7.4312,7.4139,7.4093,7.3954,7.3677,7.3429,7.3056,7.2667,7.2343,7.1701,7.1123,7.0754,7.0585,7.055,7.0514,7.0514,7.0514,7.0514,7.0514,7.0514,7.0514,7.0514,7.0514,7.0514,7.0514,7.0514,7.0514,7.0514,8.0266,7.9724,7.9453,7.9337,7.9221,7.8448,7.7597,7.6846,7.6692,7.6743,7.6864,7.6985,7.7109,7.7187,7.7226,7.7226,7.7226,7.7226,7.7226,7.7226,7.7226,7.7187,7.7133,7.7073,7.7107,7.7101,7.7101,7.7101,7.7101,7.7101,7.7101,7.7101,7.7101,7.7101,7.7056,7.7043,7.6917,7.6827,7.6689,7.6536,7.6379,7.6226,7.5994,7.5833,7.5692,7.5633,7.5532,7.5501,7.5501,7.5501,7.5501,7.5501,7.5501,7.5501,7.5501,7.5501,7.5501,7.5501,7.5501,7.5501,7.5501,7.5501,7.5501,7.5501,7.5427,7.5354,7.5205,7.5018,7.4866,7.46,7.4447,7.4304,7.4184,7.4229,7.44,7.4444,7.4568,7.4568,7.4611,7.4387,7.4185,7.4254,7.4119,7.4282,7.4535,7.4653,7.4691,7.4691,7.4653,7.4568,7.4444,7.4139,7.4018,7.3663,7.3137,7.2769,7.2021,7.1333,7.0965,7.0621,7.055,7.0514,7.0514,7.0514,7.0514,7.0514,7.0514,7.0514,7.0514,7.0514,7.0514,7.0514,7.0514,7.0514,7.0514,7.9453,7.8989,7.8602,7.8293,7.7906,7.7403,7.6862,7.6475,7.6514,7.6671,7.6786,7.6922,7.707,7.7187,7.7226,7.7226,7.7226,7.7226,7.7226,7.7226,7.7226,7.7148,7.7097,7.7078,7.7107,7.7101,7.7101,7.7101,7.7101,7.7101,7.7101,7.7101,7.7101,7.7101,7.7101,7.7056,7.7036,7.695,7.68,7.6663,7.6534,7.634,7.6071,7.5839,7.5769,7.5633,7.5535,7.5501,7.5501,7.5501,7.5501,7.5501,7.5501,7.5501,7.5501,7.5501,7.5501,7.5501,7.5501,7.5501,7.5501,7.5501,7.5501,7.5501,7.5501,7.5427,7.5427,7.5354,7.5356,7.532,7.5209,7.5131,7.5013,7.4895,7.4895,7.4854,7.4854,7.4854,7.4691,7.4438,7.4469,7.4589,7.4686,7.485,7.4895,7.4854,7.4812,7.4812,7.4812,7.4774,7.4733,7.4649,7.4535,7.4426,7.3797,7.3007,7.2208,7.144,7.0861,7.0585,7.0514,7.0514,7.0514,7.0514,7.0514,7.0514,7.0514,7.0514,7.0514,7.0514,7.0514,7.0514,7.0514,7.0514,7.0514,7.8834,7.868,7.7945,7.721,7.6475,7.6475,7.6436,7.6397,7.6552,7.6692,7.6787,7.6934,7.707,7.7187,7.7226,7.7226,7.7226,7.7226,7.7226,7.7226,7.7226,7.7148,7.7097,7.7078,7.7101,7.7101,7.7101,7.7101,7.7101,7.7101,7.7101,7.7101,7.7101,7.7101,7.7101,7.7101,7.7056,7.705,7.6933,7.6786,7.6699,7.6517,7.6216,7.5993,7.5808,7.5628,7.5532,7.5501,7.5501,7.5501,7.5501,7.5501,7.5501,7.5501,7.5501,7.5501,7.5501,7.5501,7.5501,7.5501,7.5501,7.5501,7.5501,7.5501,7.5501,7.5501,7.5501,7.5501,7.543,7.5358,7.5247,7.5094,7.5015,7.4935,7.4895,7.4895,7.4895,7.4895,7.4812,7.4649,7.4649,7.4767,7.4809,7.4895,7.4895,7.4895,7.4895,7.4895,7.4895,7.4895,7.4854,7.4854,7.4737,7.4544,7.3921,7.3119,7.2408,7.1648,7.0985,7.0585,7.0514,7.0514,7.0514,7.0514,7.0514,7.0514,7.0514,7.0514,7.0514,7.0514,7.0514,7.0514,7.0514,7.0514,7.0341,7.7635,7.7016,7.6784,7.6591,7.6397,7.6397,7.6397,7.6397,7.6552,7.6692,7.6815,7.6962,7.7082,7.7187,7.7226,7.7226,7.7226,7.7226,7.7226,7.7226,7.7226,7.7187,7.7097,7.7078,7.7101,7.7101,7.7101,7.7101,7.7101,7.7101,7.7101,7.7101,7.7101,7.7101,7.7101,7.7101,7.7101,7.7101,7.7023,7.6906,7.6794,7.6621,7.6382,7.6082,7.5808,7.5666,7.5566,7.5501,7.5501,7.5501,7.5501,7.5501,7.5501,7.5501,7.5501,7.5501,7.5501,7.5501,7.5501,7.5501,7.5501,7.5501,7.5501,7.5501,7.5501,7.5501,7.5501,7.5465,7.543,7.5321,7.5209,7.5056,7.4977,7.4935,7.4895,7.4895,7.4895,7.4895,7.4895,7.4895,7.4895,7.4895,7.4895,7.4895,7.4895,7.4895,7.4895,7.4895,7.4895,7.4854,7.4812,7.4812,7.4649,7.4336,7.3829,7.3129,7.2368,7.1696,7.1021,7.0754,7.0514,7.0514,7.0514,7.0514,7.0514,7.0514,7.0514,7.0514,7.0514,7.0514,7.0445,7.0445,7.0445,7.0412,7.0202,7.6823,7.6397,7.6397,7.6397,7.6397,7.6397,7.6397,7.6436,7.6514,7.6686,7.6788,7.6943,7.7088,7.7187,7.7187,7.7226,7.7226,7.7226,7.7226,7.7226,7.7187,7.7148,7.7137,7.7078,7.7107,7.7101,7.7101,7.7101,7.7101,7.7101,7.7101,7.7101,7.7101,7.7101,7.7101,7.7101,7.7101,7.7101,7.7101,7.7023,7.6906,7.6738,7.6516,7.6184,7.5941,7.5763,7.5566,7.5501,7.5501,7.5501,7.5501,7.5501,7.5501,7.5501,7.5501,7.5501,7.5501,7.5501,7.5501,7.5501,7.5501,7.5501,7.5501,7.5501,7.5501,7.5501,7.5501,7.5501,7.5501,7.5394,7.5247,7.5131,7.5015,7.4935,7.4895,7.4895,7.4895,7.4895,7.4895,7.4895,7.4895,7.4895,7.4895,7.4895,7.4895,7.4895,7.4895,7.4895,7.4854,7.4771,7.4733,7.4649,7.4476,7.4267,7.3822,7.3127,7.2332,7.1677,7.1123,7.0754,7.0514,7.0514,7.0514,7.0514,7.0514,7.0514,7.0514,7.0514,7.0514,7.0514,7.0445,7.0412,7.0343,7.0203,6.992,7.6397,7.6397,7.6397,7.6397,7.6397,7.6397,7.6397,7.6397,7.6514,7.6652,7.6816,7.6923,7.705,7.7148,7.7226,7.7226,7.7226,7.7226,7.7226,7.7226,7.7226,7.7148,7.7137,7.7078,7.7107,7.7101,7.7101,7.7101,7.7101,7.7101,7.7101,7.7101,7.7101,7.7101,7.7101,7.7101,7.7101,7.7101,7.7101,7.7101,7.7023,7.6894,7.6588,7.635,7.6082,7.5831,7.5595,7.5501,7.5501,7.5501,7.5501,7.5501,7.5501,7.5501,7.5501,7.5501,7.5501,7.5501,7.5501,7.5501,7.5501,7.5501,7.5501,7.5501,7.5501,7.5501,7.5501,7.5462,7.5462,7.5432,7.5285,7.5129,7.5013,7.4935,7.4895,7.4895,7.4895,7.4895,7.4895,7.4895,7.4895,7.4895,7.4895,7.4895,7.4895,7.4895,7.4895,7.4854,7.4812,7.4649,7.4563,7.4432,7.4252,7.3991,7.3774,7.3156,7.2318,7.1809,7.1254,7.0821,7.0514,7.0514,7.0514,7.0514,7.0514,7.0514,7.0514,7.0514,7.0514,7.0443,7.0274,7.0168,6.992,6.974,6.9379,7.6397,7.6397,7.6397,7.6397,7.6397,7.6397,7.6397,7.6397,7.6514,7.666,7.6806,7.6942,7.707,7.7226,7.7226,7.7226,7.7226,7.7226,7.7226,7.7226,7.7226,7.7148,7.7097,7.7078,7.7107,7.7101,7.7101,7.7101,7.7101,7.7101,7.7101,7.7101,7.7101,7.7101,7.7101,7.7101,7.714,7.7218,7.7257,7.7296,7.7245,7.7043,7.6645,7.6333,7.6118,7.5848,7.5599,7.5535,7.5501,7.5501,7.5501,7.5501,7.5501,7.5501,7.5501,7.5501,7.5501,7.5501,7.5501,7.5501,7.5501,7.5501,7.5501,7.5501,7.5501,7.5501,7.5462,7.5351,7.5354,7.5284,7.5132,7.5013,7.4935,7.4895,7.4895,7.4895,7.4895,7.4895,7.4895,7.4895,7.4895,7.4895,7.4895,7.4895,7.4854,7.4854,7.4854,7.4812,7.4606,7.4476,7.4342,7.4206,7.4056,7.3961,7.374,7.3168,7.2405,7.1925,7.142,7.0857,7.055,7.0514,7.0514,7.0514,7.0514,7.0514,7.0514,7.0514,7.0267,7.0198,7.0061,6.9912,6.959,6.9302,6.9083]},{"header":{"parameterUnit":"m.s-1","parameterCategory":1,"la1":31.0,"la2":29.5877,"lo1":-88.7671,"lo2":-86.6584,"dy":0.0162,"dx":0.0185,"nx":115,"ny":88,"refTime":"2023-03-24T18:00:00:Z","depth":0,"parameterNumber":3,"parameterNumberName":"V-component_of_WINDS"},"data":[0.0,0.0,0.0,0.0,0.0,0.0,0.0,0.0,0.0,0.0,0.0,0.0,0.0,0.0,0.0,0.0,0.0,0.0,0.0,0.0,0.0,0.0,0.0,0.0,0.0,0.0,0.0,0.0,0.0,0.0,0.0,0.0,0.0,0.0,0.0,0.0,0.0,0.0,0.0,0.0,0.0,0.0,0.0,0.0,0.0,0.0,0.0,0.0,0.0,0.0,0.0,0.0,0.0,0.0,0.0,0.0,0.0,0.0,0.0,0.0,0.0,0.0,0.0,0.0,0.0,0.0,0.0,0.0,0.0,0.0,0.0,0.0,0.0,0.0,0.0,0.0,0.0,0.0,0.0,0.0,0.0,0.0,0.0,0.0,0.0,0.0,0.0,0.0,0.0,0.0,0.0,0.0,0.0,0.0,0.0,0.0,0.0,0.0,0.0,0.0,0.0,0.0,0.0,0.0,0.0,0.0,0.0,0.0,0.0,0.0,0.0,0.0,0.0,0.0,0.0,0.0,0.0,0.0,0.0,0.0,0.0,0.0,0.0,0.0,0.0,0.0,0.0,0.0,0.0,0.0,0.0,0.0,0.0,0.0,0.0,0.0,0.0,0.0,0.0,0.0,0.0,0.0,0.0,0.0,0.0,0.0,0.0,0.0,0.0,0.0,0.0,0.0,0.0,0.0,0.0,0.0,0.0,0.0,0.0,0.0,0.0,0.0,0.0,0.0,0.0,0.0,0.0,0.0,0.0,0.0,0.0,0.0,0.0,0.0,0.0,0.0,0.0,0.0,0.0,0.0,0.0,0.0,0.0,0.0,0.0,0.0,0.0,0.0,0.0,0.0,0.0,0.0,0.0,0.0,0.0,0.0,0.0,0.0,0.0,0.0,0.0,0.0,0.0,0.0,0.0,0.0,0.0,0.0,0.0,0.0,0.0,0.0,0.0,0.0,0.0,0.0,0.0,0.0,0.0,0.0,0.0,0.0,0.0,0.0,0.0,0.0,0.0,0.0,0.0,0.0,0.0,0.0,0.0,0.0,0.0,0.0,0.0,0.0,0.0,0.0,0.0,0.0,0.0,0.0,0.0,0.0,0.0,0.0,0.0,0.0,0.0,0.0,0.0,0.0,0.0,0.0,0.0,0.0,0.0,0.0,0.0,0.0,0.0,0.0,0.0,0.0,0.0,0.0,0.0,0.0,0.0,0.0,0.0,0.0,0.0,0.0,0.0,0.0,0.0,0.0,0.0,0.0,0.0,0.0,0.0,0.0,0.0,0.0,0.0,0.0,0.0,0.0,0.0,0.0,0.0,0.0,0.0,0.0,0.0,0.0,0.0,0.0,0.0,0.0,0.0,0.0,0.0,0.0,0.0,0.0,0.0,0.0,0.0,0.0,0.0,0.0,0.0,0.0,0.0,0.0,0.0,0.0,0.0,0.0,0.0,0.0,0.0,0.0,0.0,0.0,0.0,0.0,0.0,0.0,0.0,0.0,0.0,0.0,0.0,0.0,0.0,0.0,0.0,0.0,0.0,0.0,0.0,0.0,0.0,0.0,0.0,0.0,0.0,0.0,0.0,0.0,0.0,0.0,0.0,0.0,0.0,0.0,0.0,0.0,0.0,0.0,0.0,0.0,0.0,0.0,0.0,0.0,0.0,0.0,0.0,0.0,0.0,0.0,0.0,0.0,0.0,0.0,0.0,0.0,0.0,0.0,0.0,0.0,0.0,0.0,0.0,0.0,0.0,0.0,0.0,0.0,0.0,0.0,0.0,0.0,0.0,0.0,0.0,0.0,0.0,0.0,0.0,0.0,0.0,0.0,0.0,0.0,0.0,0.0,0.0,0.0,0.0,0.0,0.0,0.0,0.0,0.0,0.0,0.0,0.0,0.0,0.0,0.0,0.0,0.0,0.0,0.0,0.0,0.0,0.0,0.0,0.0,0.0,0.0,0.0,0.0,0.0,0.0,0.0,0.0,0.0,0.0,0.0,0.0,0.0,0.0,0.0,0.0,0.0,0.0,0.0,0.0,0.0,0.0,0.0,0.0,0.0,0.0,0.0,0.0,0.0,0.0,0.0,0.0,0.0,0.0,0.0,0.0,0.0,0.0,0.0,0.0,0.0,0.0,0.0,0.0,0.0,0.0,0.0,0.0,0.0,0.0,0.0,0.0,0.0,0.0,0.0,0.0,0.0,0.0,0.0,0.0,0.0,0.0,0.0,0.0,0.0,0.0,0.0,0.0,0.0,0.0,0.0,0.0,0.0,0.0,0.0,0.0,0.0,0.0,0.0,0.0,0.0,0.0,0.0,0.0,0.0,0.0,0.0,0.0,0.0,0.0,0.0,0.0,0.0,0.0,0.0,0.0,0.0,0.0,0.0,0.0,0.0,0.0,0.0,0.0,0.0,0.0,0.0,0.0,0.0,0.0,0.0,0.0,0.0,0.0,0.0,0.0,0.0,0.0,0.0,0.0,0.0,0.0,0.0,0.0,0.0,0.0,0.0,0.0,0.0,0.0,0.0,0.0,0.0,0.0,0.0,0.0,0.0,0.0,0.0,0.0,0.0,0.0,0.0,0.0,0.0,0.0,0.0,0.0,0.0,0.0,0.0,0.0,0.0,0.0,0.0,0.0,0.0,0.0,0.0,0.0,0.0,0.0,0.0,0.0,0.0,0.0,0.0,0.0,0.0,0.0,0.0,0.0,0.0,0.0,0.0,0.0,0.0,0.0,0.0,0.0,0.0,0.0,0.0,0.0,0.0,0.0,0.0,0.0,0.0,0.0,0.0,0.0,0.0,0.0,0.0,0.0,0.0,0.0,0.0,0.0,0.0,0.0,0.0,0.0,0.0,0.0,0.0,0.0,0.0,0.0,0.0,0.0,0.0,0.0,0.0,0.0,0.0,0.0,0.0,0.0,0.0,0.0,0.0,0.0,0.0,0.0,0.0,0.0,0.0,0.0,0.0,0.0,0.0,0.0,0.0,0.0,0.0,0.0,0.0,0.0,0.0,0.0,0.0,0.0,0.0,0.0,0.0,0.0,0.0,0.0,0.0,0.0,0.0,0.0,0.0,0.0,0.0,0.0,0.0,0.0,0.0,0.0,0.0,0.0,0.0,0.0,0.0,0.0,0.0,0.0,0.0,0.0,0.0,0.0,0.0,0.0,0.0,0.0,0.0,0.0,0.0,0.0,0.0,0.0,0.0,0.0,0.0,0.0,0.0,0.0,0.0,0.0,0.0,0.0,0.0,0.0,0.0,0.0,0.0,0.0,0.0,0.0,0.0,0.0,0.0,0.0,0.0,0.0,0.0,0.0,0.0,0.0,0.0,0.0,0.0,0.0,0.0,0.0,0.0,0.0,0.0,0.0,0.0,0.0,0.0,0.0,0.0,0.0,0.0,0.0,0.0,0.0,0.0,0.0,0.0,0.0,0.0,0.0,0.0,0.0,0.0,0.0,0.0,0.0,0.0,0.0,0.0,0.0,0.0,0.0,0.0,0.0,0.0,0.0,0.0,0.0,0.0,0.0,0.0,0.0,0.0,0.0,0.0,0.0,0.0,0.0,0.0,0.0,0.0,0.0,0.0,0.0,0.0,0.0,0.0,0.0,0.0,0.0,0.0,0.0,0.0,0.0,0.0,0.0,0.0,0.0,0.0,0.0,0.0,0.0,0.0,0.0,0.0,0.0,0.0,0.0,0.0,0.0,0.0,0.0,0.0,0.0,0.0,0.0,0.0,0.0,0.0,0.0,0.0,0.0,0.0,0.0,0.0,0.0,0.0,0.0,0.0,0.0,0.0,0.0,0.0,0.0,0.0,0.0,0.0,0.0,0.0,0.0,0.0,0.0,0.0,0.0,0.0,0.0,0.0,0.0,0.0,0.0,0.0,0.0,0.0,0.0,0.0,0.0,0.0,0.0,0.0,0.0,0.0,0.0,0.0,0.0,0.0,0.0,0.0,0.0,0.0,0.0,0.0,0.0,0.0,0.0,0.0,0.0,0.0,0.0,0.0,0.0,0.0,0.0,0.0,0.0,0.0,0.0,0.0,0.0,0.0,0.0,0.0,0.0,0.0,0.0,0.0,0.0,0.0,0.0,0.0,0.0,0.0,0.0,0.0,0.0,0.0,0.0,0.0,0.0,0.0,0.0,0.0,0.0,0.0,0.0,0.0,0.0,0.0,0.0,0.0,0.0,0.0,0.0,0.0,0.0,0.0,0.0,0.0,0.0,0.0,0.0,0.0,0.0,0.0,0.0,0.0,0.0,0.0,0.0,0.0,0.0,0.0,-2.1109,0.0,0.0,0.0,0.0,0.0,0.0,0.0,0.0,0.0,0.0,0.0,0.0,0.0,0.0,0.0,0.0,0.0,0.0,0.0,0.0,0.0,0.0,0.0,0.0,0.0,0.0,0.0,0.0,0.0,0.0,0.0,0.0,0.0,0.0,0.0,0.0,0.0,0.0,0.0,0.0,0.0,0.0,0.0,0.0,0.0,0.0,0.0,0.0,0.0,0.0,0.0,0.0,0.0,0.0,0.0,0.0,0.0,0.0,0.0,0.0,0.0,0.0,0.0,0.0,0.0,0.0,0.0,0.0,0.0,0.0,0.0,0.0,0.0,0.0,0.0,0.0,0.0,0.0,0.0,0.0,0.0,0.0,0.0,0.0,0.0,0.0,0.0,0.0,0.0,0.0,0.0,0.0,0.0,0.0,0.0,0.0,0.0,0.0,0.0,0.0,0.0,0.0,0.0,0.0,0.0,0.0,0.0,0.0,0.0,0.0,-2.1109,-2.1109,-2.1109,-2.1109,-2.1109,0.0,0.0,0.0,0.0,0.0,0.0,0.0,0.0,0.0,0.0,0.0,0.0,0.0,0.0,0.0,0.0,0.0,0.0,0.0,0.0,0.0,0.0,0.0,0.0,0.0,0.0,0.0,0.0,0.0,0.0,0.0,0.0,0.0,0.0,0.0,0.0,0.0,0.0,0.0,0.0,0.0,0.0,0.0,0.0,0.0,0.0,0.0,0.0,0.0,0.0,0.0,0.0,0.0,0.0,0.0,0.0,0.0,0.0,0.0,0.0,0.0,0.0,0.0,0.0,0.0,0.0,0.0,0.0,0.0,0.0,0.0,0.0,0.0,0.0,0.0,0.0,0.0,0.0,0.0,0.0,0.0,0.0,0.0,0.0,0.0,0.0,0.0,0.0,0.0,0.0,0.0,0.0,0.0,0.0,0.0,0.0,0.0,0.0,0.0,0.0,0.0,0.0,0.0,0.0,0.0,0.0,0.0,0.0,0.0,0.0,0.0,0.0,-2.1109,-2.1109,-2.1109,0.0,0.0,0.0,0.0,0.0,0.0,0.0,0.0,0.0,0.0,0.0,0.0,0.0,0.0,0.0,0.0,0.0,0.0,0.0,0.0,0.0,0.0,0.0,0.0,0.0,0.0,0.0,0.0,0.0,0.0,0.0,0.0,0.0,0.0,0.0,0.0,0.0,0.0,0.0,0.0,0.0,0.0,0.0,0.0,0.0,0.0,0.0,0.0,0.0,0.0,0.0,0.0,0.0,0.0,0.0,0.0,0.0,0.0,0.0,0.0,0.0,0.0,0.0,0.0,0.0,0.0,0.0,0.0,0.0,0.0,0.0,0.0,0.0,0.0,0.0,0.0,0.0,0.0,0.0,0.0,0.0,0.0,0.0,0.0,0.0,0.0,0.0,0.0,0.0,0.0,0.0,0.0,0.0,0.0,0.0,0.0,0.0,0.0,0.0,0.0,0.0,0.0,0.0,0.0,0.0,0.0,0.0,0.0,0.0,0.0,-2.1109,-2.1109,-2.1109,0.0,-2.1109,0.0,0.0,0.0,0.0,0.0,0.0,0.0,0.0,0.0,0.0,0.0,0.0,0.0,0.0,0.0,0.0,0.0,0.0,0.0,0.0,0.0,0.0,0.0,0.0,0.0,0.0,0.0,0.0,0.0,0.0,0.0,0.0,0.0,0.0,0.0,0.0,0.0,0.0,0.0,0.0,0.0,0.0,0.0,0.0,0.0,0.0,0.0,0.0,0.0,0.0,0.0,0.0,0.0,0.0,0.0,0.0,0.0,0.0,0.0,0.0,0.0,0.0,0.0,0.0,0.0,0.0,0.0,0.0,0.0,0.0,0.0,0.0,0.0,0.0,0.0,0.0,0.0,0.0,0.0,0.0,0.0,0.0,0.0,0.0,0.0,0.0,0.0,0.0,0.0,0.0,0.0,0.0,0.0,0.0,0.0,0.0,0.0,0.0,0.0,0.0,0.0,0.0,0.0,0.0,0.0,0.0,0.0,0.0,0.0,0.0,-2.1109,-2.1109,-2.1109,-2.1109,0.0,0.0,0.0,0.0,0.0,0.0,0.0,0.0,0.0,0.0,0.0,0.0,0.0,0.0,0.0,0.0,0.0,0.0,0.0,0.0,0.0,0.0,0.0,0.0,0.0,0.0,0.0,0.0,0.0,0.0,0.0,0.0,0.0,0.0,0.0,0.0,0.0,0.0,0.0,0.0,0.0,0.0,0.0,0.0,0.0,0.0,0.0,0.0,0.0,0.0,0.0,0.0,0.0,0.0,0.0,0.0,0.0,0.0,0.0,0.0,0.0,0.0,0.0,0.0,0.0,0.0,0.0,0.0,0.0,0.0,0.0,0.0,0.0,0.0,0.0,0.0,0.0,0.0,0.0,0.0,0.0,0.0,0.0,0.0,0.0,0.0,0.0,0.0,0.0,0.0,0.0,0.0,0.0,0.0,0.0,0.0,0.0,0.0,0.0,0.0,0.0,0.0,0.0,0.0,0.0,0.0,0.0,0.0,0.0,0.0,-2.1109,-2.1109,-2.1109,-2.1109,-2.1109,-2.1109,0.0,0.0,0.0,0.0,0.0,0.0,0.0,0.0,0.0,0.0,0.0,0.0,0.0,0.0,0.0,0.0,0.0,0.0,0.0,0.0,0.0,0.0,0.0,0.0,0.0,0.0,0.0,0.0,0.0,0.0,0.0,0.0,0.0,0.0,0.0,0.0,0.0,0.0,0.0,0.0,0.0,0.0,0.0,0.0,0.0,0.0,0.0,0.0,0.0,0.0,0.0,0.0,0.0,0.0,0.0,0.0,0.0,0.0,0.0,0.0,0.0,0.0,0.0,0.0,0.0,0.0,0.0,0.0,0.0,0.0,0.0,0.0,0.0,0.0,0.0,0.0,0.0,0.0,0.0,0.0,0.0,0.0,0.0,0.0,0.0,0.0,0.0,0.0,0.0,0.0,0.0,0.0,0.0,0.0,0.0,0.0,0.0,0.0,0.0,0.0,0.0,0.0,0.0,0.0,0.0,0.0,0.0,0.0,-2.1109,-2.1109,-2.1109,-2.1109,-2.1109,-2.1109,0.0,0.0,0.0,0.0,0.0,0.0,0.0,0.0,0.0,0.0,0.0,0.0,0.0,0.0,0.0,0.0,0.0,0.0,0.0,0.0,0.0,0.0,0.0,0.0,0.0,0.0,0.0,0.0,0.0,0.0,0.0,0.0,0.0,0.0,0.0,0.0,0.0,0.0,0.0,0.0,0.0,0.0,0.0,0.0,0.0,0.0,0.0,0.0,0.0,0.0,0.0,0.0,0.0,0.0,0.0,0.0,0.0,0.0,0.0,0.0,0.0,0.0,0.0,0.0,0.0,0.0,0.0,0.0,0.0,0.0,0.0,0.0,0.0,0.0,0.0,0.0,0.0,0.0,0.0,0.0,0.0,0.0,0.0,0.0,0.0,0.0,0.0,0.0,0.0,0.0,0.0,0.0,0.0,0.0,0.0,0.0,0.0,0.0,0.0,0.0,0.0,0.0,0.0,0.0,0.0,0.0,0.0,0.0,0.0,-2.1109,-2.1109,-2.1109,-2.1109,-2.1109,-2.1109,0.0,0.0,0.0,0.0,0.0,0.0,0.0,0.0,0.0,0.0,0.0,0.0,0.0,0.0,0.0,0.0,0.0,0.0,0.0,0.0,0.0,0.0,0.0,0.0,0.0,0.0,0.0,0.0,0.0,0.0,0.0,0.0,0.0,0.0,0.0,0.0,0.0,0.0,0.0,0.0,0.0,0.0,0.0,0.0,0.0,0.0,0.0,0.0,0.0,0.0,0.0,0.0,0.0,0.0,0.0,0.0,0.0,0.0,0.0,0.0,0.0,0.0,0.0,0.0,0.0,0.0,0.0,0.0,0.0,0.0,0.0,0.0,0.0,0.0,0.0,0.0,0.0,0.0,0.0,0.0,0.0,0.0,0.0,0.0,0.0,0.0,0.0,0.0,0.0,0.0,0.0,0.0,0.0,0.0,0.0,0.0,0.0,0.0,0.0,0.0,0.0,0.0,0.0,0.0,0.0,0.0,0.0,0.0,0.0,-2.1109,0.0,-2.1109,-2.1109,-2.1109,-2.1109,0.0,0.0,0.0,0.0,0.0,0.0,0.0,0.0,0.0,0.0,0.0,0.0,0.0,0.0,0.0,0.0,0.0,0.0,0.0,0.0,0.0,0.0,0.0,0.0,0.0,0.0,0.0,0.0,0.0,0.0,0.0,0.0,0.0,0.0,0.0,0.0,0.0,0.0,0.0,0.0,0.0,0.0,0.0,0.0,0.0,0.0,0.0,0.0,0.0,0.0,0.0,0.0,0.0,0.0,0.0,0.0,0.0,0.0,0.0,0.0,0.0,0.0,0.0,0.0,0.0,0.0,0.0,0.0,0.0,0.0,0.0,0.0,0.0,0.0,0.0,0.0,0.0,0.0,0.0,0.0,0.0,0.0,0.0,0.0,0.0,0.0,0.0,0.0,0.0,0.0,0.0,0.0,0.0,0.0,0.0,0.0,0.0,0.0,0.0,0.0,0.0,0.0,0.0,0.0,0.0,0.0,0.0,0.0,-2.1109,-2.1109,-2.1109,-2.1109,-2.1109,-2.1109,-2.1109,0.0,0.0,0.0,0.0,0.0,0.0,0.0,0.0,0.0,0.0,0.0,0.0,0.0,0.0,0.0,0.0,0.0,0.0,0.0,0.0,0.0,0.0,0.0,0.0,0.0,0.0,0.0,0.0,0.0,0.0,0.0,0.0,0.0,0.0,0.0,0.0,0.0,0.0,0.0,0.0,0.0,0.0,0.0,0.0,0.0,0.0,0.0,0.0,0.0,0.0,0.0,0.0,0.0,0.0,0.0,0.0,0.0,0.0,0.0,0.0,0.0,0.0,0.0,0.0,0.0,0.0,0.0,0.0,0.0,0.0,0.0,0.0,0.0,0.0,0.0,0.0,0.0,0.0,0.0,0.0,0.0,0.0,0.0,0.0,0.0,0.0,0.0,0.0,0.0,0.0,0.0,0.0,0.0,0.0,0.0,0.0,0.0,0.0,0.0,0.0,0.0,0.0,0.0,0.0,0.0,0.0,0.0,0.0,0.0,-2.1109,-2.1109,-2.1109,-2.1109,-2.1109,-2.1109,0.0,0.0,0.0,0.0,0.0,0.0,0.0,0.0,0.0,0.0,0.0,0.0,0.0,0.0,0.0,0.0,0.0,0.0,0.0,0.0,0.0,0.0,0.0,0.0,0.0,0.0,0.0,0.0,0.0,0.0,0.0,0.0,0.0,0.0,0.0,0.0,0.0,0.0,0.0,0.0,0.0,0.0,0.0,0.0,0.0,0.0,0.0,0.0,0.0,0.0,0.0,0.0,0.0,0.0,0.0,0.0,0.0,0.0,0.0,0.0,0.0,0.0,0.0,0.0,0.0,0.0,0.0,0.0,0.0,0.0,0.0,0.0,0.0,0.0,0.0,0.0,0.0,0.0,0.0,0.0,0.0,0.0,0.0,0.0,0.0,0.0,0.0,0.0,0.0,0.0,0.0,0.0,0.0,0.0,0.0,0.0,0.0,0.0,0.0,0.0,0.0,0.0,0.0,0.0,0.0,0.0,0.0,0.0,0.0,-2.1109,-2.1109,-2.1109,-2.1109,-2.1109,-2.1109,-2.1109,0.0,0.0,0.0,0.0,0.0,0.0,0.0,0.0,0.0,0.0,0.0,0.0,0.0,0.0,0.0,0.0,0.0,0.0,0.0,0.0,0.0,0.0,0.0,0.0,0.0,0.0,0.0,0.0,0.0,0.0,0.0,0.0,0.0,0.0,0.0,0.0,0.0,0.0,0.0,0.0,0.0,0.0,0.0,0.0,0.0,0.0,0.0,0.0,0.0,0.0,0.0,0.0,0.0,0.0,0.0,0.0,0.0,0.0,0.0,0.0,0.0,0.0,0.0,0.0,0.0,0.0,0.0,0.0,0.0,0.0,0.0,0.0,0.0,0.0,0.0,0.0,0.0,0.0,0.0,0.0,0.0,0.0,0.0,0.0,0.0,0.0,0.0,0.0,0.0,0.0,0.0,0.0,0.0,0.0,0.0,0.0,0.0,0.0,0.0,0.0,0.0,0.0,0.0,0.0,0.0,0.0,0.0,0.0,-2.1122,-2.1122,-2.1122,-2.1109,-2.1109,-2.1109,0.0,0.0,0.0,0.0,0.0,0.0,0.0,0.0,0.0,0.0,0.0,0.0,0.0,0.0,0.0,0.0,0.0,0.0,0.0,0.0,0.0,0.0,0.0,0.0,0.0,0.0,0.0,0.0,0.0,0.0,0.0,0.0,0.0,0.0,0.0,0.0,0.0,0.0,0.0,0.0,0.0,0.0,0.0,0.0,0.0,0.0,0.0,0.0,0.0,0.0,0.0,0.0,0.0,0.0,0.0,0.0,0.0,0.0,0.0,0.0,0.0,0.0,0.0,0.0,0.0,0.0,0.0,0.0,0.0,0.0,0.0,0.0,0.0,0.0,0.0,0.0,0.0,0.0,0.0,0.0,0.0,0.0,0.0,0.0,0.0,0.0,0.0,0.0,0.0,0.0,0.0,0.0,0.0,0.0,0.0,0.0,0.0,0.0,0.0,0.0,0.0,0.0,0.0,0.0,0.0,0.0,0.0,0.0,0.0,-2.1004,-2.1041,-2.1075,-2.1109,-2.1109,-2.1109,0.0,0.0,0.0,0.0,0.0,0.0,0.0,0.0,0.0,0.0,0.0,0.0,0.0,0.0,0.0,0.0,0.0,0.0,0.0,0.0,0.0,0.0,0.0,0.0,0.0,0.0,0.0,0.0,0.0,0.0,0.0,0.0,0.0,0.0,0.0,0.0,0.0,0.0,0.0,0.0,0.0,0.0,0.0,0.0,0.0,0.0,0.0,0.0,0.0,0.0,0.0,0.0,0.0,0.0,0.0,0.0,0.0,0.0,0.0,0.0,0.0,0.0,0.0,0.0,0.0,0.0,0.0,0.0,0.0,0.0,0.0,0.0,0.0,0.0,0.0,0.0,0.0,0.0,0.0,0.0,0.0,0.0,0.0,0.0,0.0,0.0,0.0,0.0,0.0,0.0,0.0,0.0,0.0,0.0,0.0,0.0,0.0,0.0,0.0,0.0,0.0,0.0,0.0,0.0,0.0,0.0,0.0,0.0,-1.6535,-1.9241,-1.8173,-1.8104,-1.9291,-2.0462,-2.1109,0.0,0.0,0.0,0.0,0.0,0.0,0.0,0.0,0.0,0.0,0.0,0.0,0.0,0.0,0.0,0.0,0.0,0.0,0.0,0.0,0.0,0.0,0.0,0.0,0.0,0.0,0.0,0.0,0.0,0.0,0.0,0.0,0.0,0.0,0.0,0.0,0.0,0.0,0.0,0.0,0.0,0.0,0.0,0.0,0.0,0.0,0.0,0.0,0.0,0.0,0.0,0.0,0.0,0.0,0.0,0.0,0.0,0.0,0.0,0.0,0.0,0.0,0.0,0.0,0.0,0.0,0.0,0.0,0.0,0.0,0.0,0.0,0.0,0.0,0.0,0.0,0.0,0.0,0.0,0.0,0.0,0.0,0.0,0.0,0.0,0.0,0.0,0.0,0.0,0.0,0.0,0.0,0.0,0.0,0.0,0.0,0.0,0.0,0.0,0.0,0.0,0.0,0.0,0.0,0.0,0.0,0.0,0.0,-1.4056,-1.6452,-1.4096,-1.3958,-1.656,-1.9419,-2.0856,0.0,0.0,0.0,0.0,0.0,0.0,0.0,0.0,0.0,0.0,0.0,0.0,0.0,0.0,0.0,0.0,0.0,0.0,0.0,0.0,0.0,0.0,0.0,0.0,0.0,0.0,0.0,0.0,0.0,0.0,0.0,0.0,0.0,0.0,0.0,0.0,0.0,0.0,0.0,0.0,0.0,0.0,0.0,0.0,0.0,0.0,0.0,0.0,0.0,0.0,0.0,0.0,0.0,0.0,0.0,0.0,0.0,0.0,0.0,0.0,0.0,0.0,0.0,0.0,0.0,0.0,0.0,0.0,0.0,0.0,0.0,0.0,0.0,0.0,0.0,0.0,0.0,0.0,0.0,0.0,0.0,0.0,0.0,0.0,0.0,0.0,0.0,0.0,0.0,0.0,0.0,0.0,0.0,0.0,0.0,0.0,0.0,0.0,0.0,0.0,0.0,0.0,0.0,0.0,0.0,0.0,0.0,0.0,-1.3079,-1.3613,-1.3126,-1.3093,-1.3639,-1.744,-1.9431,0.0,0.0,0.0,0.0,0.0,0.0,0.0,0.0,0.0,0.0,0.0,0.0,0.0,0.0,0.0,0.0,0.0,0.0,0.0,0.0,0.0,0.0,0.0,0.0,0.0,0.0,0.0,0.0,0.0,0.0,0.0,0.0,0.0,0.0,0.0,0.0,0.0,0.0,0.0,0.0,0.0,0.0,0.0,0.0,0.0,0.0,0.0,0.0,-3.3418,0.0,0.0,0.0,0.0,0.0,0.0,0.0,0.0,0.0,0.0,0.0,0.0,0.0,0.0,0.0,0.0,0.0,0.0,0.0,0.0,0.0,0.0,0.0,0.0,0.0,0.0,0.0,0.0,0.0,0.0,0.0,0.0,0.0,0.0,0.0,0.0,0.0,0.0,0.0,0.0,0.0,0.0,0.0,0.0,0.0,0.0,0.0,0.0,0.0,0.0,0.0,0.0,0.0,0.0,0.0,0.0,0.0,0.0,0.0,-1.2832,-1.2832,-1.2791,-1.2775,-1.2898,-1.5524,-1.7753,0.0,0.0,0.0,0.0,0.0,0.0,0.0,0.0,0.0,0.0,0.0,0.0,0.0,0.0,0.0,0.0,0.0,0.0,0.0,0.0,0.0,0.0,0.0,0.0,0.0,0.0,0.0,0.0,0.0,0.0,0.0,0.0,0.0,0.0,0.0,0.0,0.0,0.0,0.0,0.0,0.0,0.0,0.0,0.0,0.0,0.0,0.0,0.0,0.0,0.0,0.0,0.0,0.0,0.0,0.0,0.0,0.0,0.0,0.0,0.0,0.0,0.0,0.0,0.0,0.0,0.0,0.0,0.0,0.0,0.0,0.0,0.0,0.0,0.0,0.0,0.0,0.0,0.0,0.0,0.0,0.0,0.0,0.0,0.0,0.0,0.0,0.0,0.0,0.0,0.0,0.0,0.0,0.0,0.0,0.0,0.0,0.0,0.0,0.0,0.0,0.0,0.0,0.0,0.0,0.0,0.0,0.0,-1.2856,-1.2848,-1.274,-1.2848,-1.2832,-1.284,-1.4006,-1.5814,-1.8267,0.0,0.0,0.0,0.0,0.0,0.0,0.0,0.0,0.0,0.0,0.0,0.0,0.0,0.0,0.0,0.0,0.0,0.0,0.0,0.0,0.0,0.0,0.0,0.0,0.0,0.0,0.0,0.0,0.0,0.0,0.0,0.0,0.0,0.0,0.0,0.0,0.0,0.0,-3.3418,-3.3418,0.0,0.0,0.0,0.0,0.0,0.0,0.0,0.0,-3.3418,0.0,0.0,0.0,0.0,0.0,0.0,0.0,0.0,0.0,0.0,0.0,0.0,0.0,0.0,0.0,0.0,0.0,0.0,0.0,0.0,0.0,0.0,0.0,0.0,0.0,0.0,0.0,0.0,0.0,0.0,0.0,0.0,0.0,0.0,0.0,0.0,0.0,0.0,0.0,0.0,0.0,0.0,0.0,0.0,0.0,0.0,0.0,0.0,0.0,0.0,0.0,0.0,0.0,0.0,0.0,0.0,-1.3043,-1.2913,-1.2765,-1.2767,-1.2773,-1.2832,-1.284,-1.2964,-1.3875,-1.5554,0.0,0.0,0.0,0.0,0.0,0.0,0.0,0.0,0.0,0.0,0.0,0.0,0.0,0.0,0.0,0.0,0.0,0.0,0.0,0.0,0.0,0.0,0.0,0.0,0.0,0.0,0.0,0.0,0.0,0.0,0.0,0.0,0.0,0.0,0.0,0.0,0.0,0.0,0.0,-3.3418,-3.3418,0.0,0.0,0.0,0.0,0.0,0.0,0.0,0.0,-3.3418,0.0,0.0,0.0,0.0,0.0,0.0,0.0,0.0,0.0,0.0,0.0,0.0,0.0,0.0,0.0,0.0,0.0,0.0,0.0,0.0,0.0,0.0,0.0,0.0,0.0,0.0,0.0,0.0,0.0,0.0,0.0,0.0,0.0,0.0,0.0,0.0,0.0,0.0,0.0,0.0,0.0,0.0,0.0,0.0,0.0,0.0,0.0,0.0,0.0,0.0,0.0,0.0,0.0,0.0,0.0,-1.3092,-1.3108,-1.3014,-1.2799,-1.2783,-1.2829,-1.2829,-1.2749,-1.3481,0.0,0.0,0.0,0.0,0.0,0.0,0.0,0.0,0.0,0.0,0.0,0.0,0.0,0.0,0.0,0.0,0.0,0.0,0.0,0.0,0.0,0.0,0.0,0.0,0.0,0.0,0.0,0.0,0.0,0.0,0.0,0.0,0.0,0.0,0.0,0.0,0.0,0.0,0.0,0.0,-3.3418,-3.3418,-3.3418,0.0,0.0,0.0,0.0,0.0,0.0,-3.3418,-3.3418,0.0,0.0,0.0,0.0,0.0,0.0,0.0,0.0,0.0,0.0,0.0,0.0,0.0,0.0,0.0,0.0,0.0,0.0,0.0,0.0,0.0,0.0,0.0,0.0,0.0,0.0,0.0,0.0,0.0,0.0,0.0,0.0,0.0,0.0,0.0,0.0,0.0,0.0,0.0,0.0,0.0,0.0,0.0,0.0,0.0,0.0,0.0,0.0,0.0,0.0,0.0,0.0,0.0,0.0,0.0,-1.3214,-1.3311,-1.3247,-1.2988,-1.2958,-1.3006,-1.2871,-1.2877,-1.3584,0.0,0.0,0.0,0.0,0.0,0.0,0.0,0.0,0.0,0.0,0.0,0.0,0.0,0.0,0.0,0.0,0.0,0.0,0.0,0.0,0.0,0.0,0.0,0.0,0.0,0.0,0.0,0.0,0.0,0.0,0.0,0.0,0.0,0.0,0.0,0.0,0.0,0.0,0.0,0.0,0.0,-3.3418,-3.3418,-3.3418,0.0,0.0,0.0,0.0,-3.3418,-3.3418,0.0,0.0,0.0,0.0,0.0,0.0,0.0,0.0,0.0,0.0,0.0,0.0,0.0,0.0,0.0,0.0,0.0,0.0,0.0,0.0,0.0,0.0,0.0,0.0,0.0,0.0,0.0,0.0,0.0,0.0,0.0,0.0,0.0,0.0,0.0,0.0,0.0,0.0,0.0,0.0,0.0,0.0,0.0,0.0,0.0,0.0,0.0,0.0,0.0,0.0,0.0,0.0,0.0,0.0,0.0,0.0,-1.3571,-1.3441,-1.3457,-1.3743,-1.3725,-1.3626,-1.3336,-1.3319,-1.39,0.0,0.0,0.0,0.0,0.0,0.0,0.0,0.0,0.0,0.0,0.0,0.0,0.0,0.0,0.0,0.0,0.0,0.0,0.0,0.0,0.0,0.0,0.0,0.0,0.0,0.0,0.0,0.0,0.0,0.0,0.0,0.0,0.0,0.0,0.0,0.0,0.0,0.0,0.0,0.0,0.0,-3.3418,-3.3418,-3.3418,-3.3418,0.0,0.0,-3.3418,-3.3418,-3.3418,0.0,0.0,0.0,0.0,0.0,0.0,0.0,0.0,0.0,0.0,0.0,0.0,0.0,0.0,0.0,0.0,0.0,0.0,0.0,0.0,0.0,0.0,0.0,0.0,0.0,0.0,0.0,0.0,0.0,0.0,0.0,0.0,0.0,0.0,0.0,0.0,0.0,0.0,0.0,0.0,0.0,0.0,0.0,0.0,0.0,0.0,0.0,0.0,0.0,0.0,0.0,0.0,0.0,0.0,0.0,-1.366,-1.3644,-1.366,-1.3709,-1.3924,-1.3908,-1.3816,-1.3669,-1.3563,-1.3601,0.0,0.0,0.0,0.0,0.0,0.0,0.0,0.0,0.0,0.0,0.0,0.0,0.0,0.0,0.0,0.0,0.0,0.0,0.0,0.0,0.0,0.0,0.0,0.0,0.0,0.0,0.0,0.0,0.0,0.0,0.0,0.0,0.0,0.0,0.0,0.0,0.0,0.0,0.0,0.0,0.0,0.0,-3.3418,-3.3418,0.0,0.0,0.0,-3.3418,-3.3418,0.0,0.0,0.0,0.0,0.0,0.0,0.0,0.0,0.0,0.0,0.0,0.0,0.0,0.0,0.0,0.0,0.0,0.0,0.0,0.0,0.0,0.0,0.0,0.0,0.0,0.0,0.0,0.0,0.0,0.0,0.0,0.0,0.0,0.0,0.0,0.0,0.0,0.0,0.0,0.0,0.0,0.0,0.0,0.0,0.0,0.0,0.0,0.0,0.0,0.0,0.0,0.0,0.0,0.0,0.0,0.0,0.0,-1.3709,-1.3839,-1.3904,-1.3896,-1.3924,-1.3858,-1.3858,-1.3719,0.0,0.0,0.0,0.0,0.0,0.0,0.0,0.0,0.0,0.0,0.0,0.0,0.0,0.0,0.0,0.0,0.0,0.0,0.0,0.0,0.0,0.0,0.0,0.0,0.0,0.0,0.0,-3.1835,0.0,0.0,0.0,0.0,0.0,0.0,0.0,0.0,0.0,0.0,0.0,0.0,0.0,0.0,-3.3418,-3.3418,-3.3418,-3.3418,0.0,0.0,-3.3418,-3.3418,-3.3418,-3.3544,0.0,0.0,0.0,0.0,0.0,0.0,0.0,0.0,0.0,0.0,0.0,0.0,0.0,0.0,0.0,0.0,0.0,0.0,0.0,0.0,0.0,0.0,0.0,0.0,0.0,0.0,0.0,0.0,0.0,0.0,0.0,0.0,0.0,0.0,0.0,0.0,0.0,0.0,0.0,0.0,0.0,0.0,0.0,0.0,0.0,0.0,0.0,0.0,0.0,0.0,0.0,0.0,0.0,0.0,0.0,-1.3888,-1.3896,-1.3904,-1.3904,-1.3888,-1.388,-1.388,-1.3872,-1.4339,0.0,0.0,0.0,0.0,0.0,0.0,0.0,0.0,0.0,0.0,0.0,0.0,0.0,0.0,0.0,0.0,0.0,0.0,0.0,0.0,0.0,0.0,0.0,0.0,0.0,0.0,0.0,0.0,0.0,0.0,0.0,0.0,0.0,0.0,0.0,0.0,0.0,0.0,0.0,0.0,0.0,-3.3418,-3.3418,-3.3418,-3.3418,0.0,0.0,-3.3418,-3.3418,-3.3418,-3.3796,-3.5005,0.0,0.0,0.0,0.0,0.0,0.0,0.0,0.0,0.0,0.0,0.0,0.0,0.0,0.0,0.0,0.0,0.0,0.0,0.0,0.0,0.0,0.0,0.0,0.0,0.0,0.0,0.0,0.0,0.0,0.0,0.0,0.0,0.0,0.0,0.0,0.0,0.0,0.0,0.0,0.0,0.0,0.0,0.0,0.0,0.0,0.0,0.0,0.0,0.0,0.0,0.0,0.0,0.0,-1.3904,-1.3904,-1.3904,-1.3904,-1.3904,-1.3904,-1.3904,-1.3904,-1.3904,-1.4148,0.0,0.0,0.0,0.0,0.0,0.0,0.0,0.0,0.0,0.0,0.0,0.0,0.0,0.0,0.0,0.0,0.0,0.0,0.0,0.0,0.0,0.0,0.0,0.0,0.0,0.0,0.0,0.0,-3.3418,-3.3418,-3.3418,0.0,0.0,0.0,0.0,0.0,0.0,0.0,0.0,0.0,0.0,-3.3418,-3.3418,-3.3418,0.0,0.0,-3.3418,-3.3418,-3.3418,-3.3418,-3.3544,-3.4027,-3.3783,0.0,0.0,0.0,0.0,0.0,0.0,0.0,0.0,0.0,0.0,0.0,0.0,0.0,0.0,0.0,0.0,0.0,0.0,0.0,0.0,0.0,0.0,0.0,0.0,0.0,0.0,0.0,0.0,0.0,0.0,0.0,0.0,0.0,0.0,0.0,0.0,0.0,0.0,0.0,0.0,0.0,0.0,0.0,0.0,0.0,0.0,0.0,0.0,0.0,0.0,0.0,0.0,-1.3904,-1.3904,-1.3904,-1.3904,-1.3904,-1.3904,-1.3904,-1.3904,-1.3904,-1.3904,0.0,0.0,0.0,0.0,0.0,0.0,0.0,0.0,0.0,0.0,0.0,0.0,0.0,0.0,0.0,0.0,0.0,0.0,0.0,0.0,0.0,0.0,0.0,0.0,0.0,0.0,0.0,0.0,-3.3418,-3.3418,-3.3418,0.0,0.0,0.0,0.0,0.0,0.0,0.0,0.0,0.0,0.0,-3.3418,-3.3418,-3.3535,-3.3613,-3.3613,-3.373,-3.3769,-3.3633,-3.3447,-3.3408,-3.3437,0.0,0.0,0.0,0.0,0.0,0.0,0.0,0.0,0.0,0.0,0.0,0.0,0.0,0.0,0.0,0.0,0.0,0.0,0.0,0.0,0.0,0.0,0.0,0.0,0.0,0.0,0.0,0.0,0.0,0.0,-1.1626,0.0,0.0,0.0,0.0,0.0,0.0,0.0,0.0,0.0,0.0,0.0,0.0,0.0,0.0,0.0,0.0,0.0,0.0,0.0,0.0,0.0,0.0,-1.3904,-1.3904,-1.3904,-1.3904,-1.3904,-1.3904,-1.3904,-1.3904,-1.3904,-1.3904,-1.3904,0.0,0.0,0.0,0.0,0.0,0.0,0.0,0.0,0.0,0.0,0.0,0.0,0.0,0.0,0.0,0.0,0.0,0.0,0.0,0.0,0.0,0.0,0.0,0.0,0.0,0.0,-3.3418,-3.3418,-3.3418,0.0,0.0,0.0,0.0,0.0,0.0,0.0,0.0,0.0,0.0,-3.3418,-3.3418,-3.3418,-3.3789,-3.4043,-3.4043,-3.4394,-3.4512,-3.4121,-3.3708,-3.3405,0.0,0.0,0.0,0.0,0.0,0.0,0.0,0.0,0.0,0.0,0.0,0.0,0.0,0.0,0.0,0.0,0.0,0.0,0.0,0.0,0.0,0.0,0.0,0.0,0.0,0.0,0.0,-1.1816,-1.1911,0.0,0.0,0.0,0.0,0.0,0.0,0.0,0.0,0.0,0.0,0.0,-1.243,-1.3022,0.0,0.0,0.0,0.0,0.0,0.0,0.0,0.0,0.0,0.0,0.0,0.0,-1.3904,-1.3904,-1.3904,-1.3904,-1.3904,-1.3904,-1.3904,-1.3904,-1.3904,-1.3904,-1.3904,0.0,0.0,0.0,0.0,0.0,0.0,0.0,0.0,0.0,0.0,0.0,0.0,0.0,0.0,0.0,0.0,0.0,0.0,0.0,0.0,0.0,0.0,0.0,0.0,0.0,-3.2365,0.0,0.0,0.0,0.0,0.0,0.0,0.0,0.0,0.0,0.0,0.0,-3.3418,-3.3418,-3.3672,-3.375,-3.3457,-3.3789,-3.4062,0.0,0.0,0.0,0.0,0.0,0.0,0.0,0.0,0.0,0.0,0.0,0.0,0.0,0.0,-4.1196,-4.1196,-4.1196,-4.1172,-4.1239,0.0,0.0,0.0,0.0,0.0,0.0,0.0,0.0,0.0,0.0,0.0,0.0,0.0,0.0,-1.1972,0.0,-1.1904,0.0,0.0,0.0,0.0,0.0,0.0,0.0,0.0,-1.267,-1.2634,-1.2435,-1.3185,-1.3461,0.0,-1.3378,-1.356,0.0,0.0,0.0,0.0,0.0,0.0,0.0,0.0,-1.4091,-1.4083,-1.4083,-1.4083,-1.4083,-1.4026,-1.3993,-1.385,-1.3928,-1.3904,-1.3904,-1.3761,-1.4181,0.0,0.0,0.0,0.0,0.0,0.0,0.0,0.0,0.0,0.0,0.0,0.0,0.0,0.0,0.0,0.0,0.0,0.0,0.0,0.0,0.0,0.0,0.0,-3.2365,0.0,0.0,0.0,0.0,0.0,0.0,0.0,0.0,0.0,-3.3418,-3.3418,-3.3476,-3.3633,-3.3906,-3.4023,-3.3887,0.0,0.0,0.0,0.0,0.0,0.0,0.0,-3.4255,-3.4018,-3.394,-3.4339,-3.5643,-3.8033,-4.0006,-4.0858,0.0,0.0,-4.1244,-4.1196,-4.1196,-4.1196,-4.1233,-4.116,-4.1263,-4.0908,-4.0763,0.0,0.0,0.0,0.0,0.0,0.0,0.0,0.0,-1.2067,-1.2074,0.0,-1.2088,0.0,0.0,0.0,0.0,0.0,-1.2433,0.0,0.0,-1.2958,-1.3034,-1.2899,-1.365,-1.4026,-1.387,-1.4167,-1.4456,-1.4448,-1.4448,0.0,0.0,0.0,0.0,0.0,0.0,-1.4432,-1.4424,-1.4424,-1.4424,-1.4268,-1.427,-1.418,-1.3881,-1.3866,-1.392,-1.3912,-1.3484,-1.3619,-1.4039,-1.6221,0.0,0.0,0.0,0.0,0.0,0.0,0.0,0.0,0.0,0.0,0.0,0.0,0.0,0.0,0.0,0.0,0.0,0.0,0.0,0.0,-3.3258,0.0,0.0,0.0,0.0,0.0,0.0,0.0,0.0,0.0,0.0,-3.3496,-3.3476,-3.3613,-3.4043,0.0,0.0,0.0,0.0,-3.5391,-3.5371,-3.5742,-3.584,-3.5296,-3.5603,-3.5791,-3.5317,0.0,0.0,-3.6465,-3.8854,-4.0586,-4.0732,-4.1824,-4.2447,-4.1437,-4.1244,-4.1196,-4.1196,-4.1172,-4.1172,-4.1196,-4.1148,-4.1148,-1.2257,0.0,0.0,0.0,0.0,-1.221,-1.2128,-1.2223,-1.2223,-1.2284,-1.2372,-1.2379,0.0,0.0,0.0,0.0,0.0,0.0,-1.2501,-1.2501,-1.2656,-1.2635,-1.2594,-1.3363,-1.3647,-1.3297,-1.4373,-1.4686,-1.4365,-1.4686,-1.47,-1.444,0.0,0.0,0.0,0.0,-1.4432,-1.4432,-1.4432,-1.4432,-1.4432,-1.4383,-1.4211,-1.4203,-1.431,-1.4221,-1.4099,-1.3954,-1.4888,-1.6987,-1.7757,0.0,0.0,0.0,0.0,0.0,0.0,0.0,0.0,0.0,0.0,0.0,0.0,0.0,0.0,0.0,0.0,0.0,0.0,0.0,-3.0127,-3.1303,-3.1835,0.0,0.0,0.0,0.0,0.0,0.0,0.0,0.0,0.0,-3.4277,-3.425,-3.4379,0.0,0.0,-3.4941,-3.4726,-3.5098,-3.5391,-3.5391,-3.5508,0.0,-3.5801,-3.5859,-3.5857,-3.5273,-3.4922,-3.521,-3.6465,-3.81,-3.9601,-4.0487,-4.1872,-4.2639,-4.2375,-4.1753,-4.1253,-4.1244,-4.1196,-4.1196,-4.1196,-4.1196,-4.1196,-1.2393,-1.2237,-1.2237,-1.2388,-1.2546,-1.2388,-1.2291,-1.2372,-1.2372,-1.242,-1.2501,-1.2501,-1.2501,-1.2501,-1.2501,0.0,0.0,0.0,-1.2501,-1.2501,-1.2501,-1.2501,-1.2501,-1.312,-1.3274,-1.3127,-1.3906,-1.4368,-1.4361,-1.4523,-1.4726,-1.4651,0.0,0.0,-1.4643,-1.4643,-1.4643,-1.4643,-1.4643,-1.4643,-1.4643,-1.4578,-1.4505,-1.4588,-1.4432,-1.4383,-1.4286,-1.4278,-1.5087,-1.6683,-1.7388,-1.8704,0.0,0.0,0.0,0.0,0.0,0.0,0.0,0.0,0.0,0.0,0.0,-2.327,0.0,0.0,0.0,0.0,-2.5831,-2.7286,-2.7571,-2.9327,0.0,0.0,0.0,0.0,0.0,0.0,0.0,-3.3906,-3.3973,-3.4154,-3.4902,-3.5107,-3.5198,-3.4961,-3.5215,-3.5351,-3.5234,0.0,-3.5644,-3.5644,-3.5644,-3.5723,-3.5976,-3.6035,-3.5918,-3.5529,-3.541,-3.5481,-3.6254,-3.752,-3.8658,-3.9572,-4.0853,-4.1677,-4.1468,-4.1915,-4.2138,-4.1399,-4.1585,-4.1798,-4.1822,-4.1629,-4.1509,-1.2501,-1.2501,-1.2501,-1.2501,-1.2501,-1.2501,-1.2501,-1.2501,-1.2501,-1.2501,-1.2501,-1.2501,-1.2501,-1.2501,-1.2501,0.0,-1.2501,-1.2501,-1.2501,-1.2501,-1.2501,-1.2501,-1.2501,-1.2965,-1.312,-1.312,-1.3267,-1.3583,-1.4361,-1.4207,-1.4507,-1.4968,-1.4968,-1.4968,-1.4968,-1.4968,-1.4968,-1.4968,-1.4968,-1.4968,-1.496,-1.4974,-1.4968,-1.4951,-1.4629,-1.4473,-1.4456,-1.4456,-1.4448,-1.458,-1.5901,-1.7253,-1.8338,0.0,0.0,0.0,0.0,0.0,0.0,0.0,0.0,0.0,0.0,0.0,0.0,0.0,0.0,0.0,-2.5965,0.0,-2.5219,-2.7471,0.0,0.0,0.0,-3.1431,-3.1964,-3.3196,-3.4148,-3.4707,0.0,0.0,-3.5391,-3.5795,-3.5815,-3.5449,-3.5449,-3.5586,-3.5976,-3.5996,-3.6035,-3.5996,-3.6016,-3.6016,-3.6016,-3.6035,-3.6016,-3.5996,-3.6035,-3.5976,-3.6093,-3.7132,-3.7955,-3.8179,-3.9277,-4.0061,-3.9602,-4.1845,-4.344,-4.1774,-4.2281,-4.2903,-4.2855,-4.2493,-4.2038,-1.2501,-1.2501,-1.2501,-1.2501,-1.2501,-1.2501,-1.2501,-1.2501,-1.2501,-1.2501,-1.2501,-1.2501,-1.2501,-1.2501,-1.2501,-1.2501,-1.2501,-1.2501,-1.2501,-1.2501,-1.2501,-1.2501,-1.2501,-1.2965,-1.2965,-1.2656,-1.312,-1.3436,-1.3898,-1.406,-1.4515,-1.4968,-1.4968,-1.4968,-1.4968,-1.4968,-1.4968,-1.4968,-1.4968,-1.4968,-1.4968,-1.5081,-1.504,-1.4999,-1.4838,-1.4781,-1.4643,-1.4643,-1.5168,-1.6057,-1.648,-1.7019,-1.7774,-2.109,0.0,0.0,0.0,0.0,0.0,0.0,0.0,0.0,0.0,-2.327,-2.2996,0.0,-2.3529,0.0,-2.4887,-2.5592,-2.5128,-2.6838,0.0,0.0,-2.9513,-3.0927,-3.2253,-3.267,-3.3501,-3.5043,-3.489,-3.5026,-3.5801,-3.5898,-3.5898,-3.5879,-3.5879,-3.5898,-3.6016,-3.6035,-3.6035,-3.6035,-3.6035,-3.6035,-3.6035,-3.6035,-3.6035,-3.6035,-3.6035,-3.6035,-3.6035,-3.7193,-3.8109,-3.8109,-3.9299,-4.0018,-3.9909,-4.0666,-4.1814,-4.3148,-4.374,-4.3912,-4.3912,-4.3214,-4.2567,-1.1876,-1.2501,-1.2501,-1.2501,-1.2501,-1.2501,-1.2501,-1.2501,-1.2501,-1.2501,-1.2501,-1.2501,-1.2501,-1.2501,-1.2501,-1.2501,-1.2501,-1.2501,-1.2501,-1.2501,-1.2501,-1.2501,-1.2501,-1.2656,-1.2656,-1.2501,-1.2811,-1.312,-1.3428,-1.359,-1.4053,-1.4661,-1.4669,-1.4814,-1.4968,-1.4968,-1.4968,-1.4968,-1.4968,-1.4968,-1.4968,-1.4968,-1.4968,-1.4968,-1.4968,-1.4919,-1.483,-1.4822,-1.5228,-1.587,-1.6609,-1.7279,-1.7859,-1.8831,-2.026,0.0,0.0,0.0,0.0,0.0,0.0,0.0,0.0,0.0,0.0,0.0,-2.3928,-2.3748,-2.4896,-2.5491,-2.5505,-2.6328,-2.6832,-2.6832,-2.8349,-2.9747,-3.0737,-3.1436,-3.2277,-3.3513,-3.4614,-3.5078,-3.474,-3.4251,-3.4214,-3.4583,-3.4251,-3.4471,-3.5743,-3.6035,-3.6035,-3.6035,-3.6035,-3.6035,-3.6035,-3.6035,-3.6035,-3.6035,-3.6035,-3.6035,-3.6016,-3.6674,-3.7193,-3.7193,-3.7842,-3.8374,-3.8353,-3.834,-3.8929,-4.004,-4.0568,-4.1057,-4.225,-4.1893,-4.1345,-1.094,-1.2501,-1.2347,-1.2192,-1.2185,-1.2185,-1.2347,-1.2501,-1.2501,-1.2501,-1.2501,-1.2501,-1.2501,-1.2501,-1.2501,-1.2515,-1.2528,-1.2528,-1.2542,-1.2562,-1.2562,-1.2562,-1.2556,-1.2562,-1.2562,-1.2562,-1.2562,-1.2718,-1.3184,-1.3184,-1.3649,-1.4431,-1.4431,-1.4578,-1.5033,-1.5033,-1.5017,-1.4968,-1.4968,-1.4968,-1.4968,-1.4968,-1.4968,-1.4968,-1.4968,-1.4968,-1.4968,-1.4968,-1.4968,-1.5122,-1.6483,-1.7596,-1.811,-1.6545,-1.8071,0.0,-2.4228,0.0,0.0,0.0,0.0,0.0,0.0,0.0,0.0,-2.4607,-2.4565,-2.4086,-2.5271,-2.6047,-2.6091,-2.6091,-2.6076,-2.6076,-2.7214,-2.8192,-2.8757,-2.9913,-3.0869,-3.1474,-3.3816,-3.4704,-3.3073,-3.17,-3.1316,-3.1982,-3.1982,-3.2648,-3.4746,-3.5177,-3.5314,-3.5587,-3.5879,-3.6035,-3.6035,-3.6035,-3.6035,-3.6035,-3.6035,-3.6035,-3.6035,-3.6016,-3.6035,-3.6016,-3.6152,-3.6152,-3.6016,-3.6147,-3.6063,-3.639,-3.6486,-3.715,-3.911,-4.0034,-4.0218,-1.094,-1.2347,-1.1095,-1.0474,-1.0474,-1.0474,-1.1256,-1.2501,-1.2501,-1.2501,-1.2501,-1.2501,-1.2501,-1.2501,-1.2501,-1.2569,-1.2684,-1.2691,-1.2759,-1.2874,-1.2874,-1.2874,-1.2874,-1.2874,-1.2874,-1.2874,-1.2874,-1.3193,-1.3497,-1.3497,-1.3973,-1.4773,-1.4773,-1.4932,-1.5415,0.0,0.0,0.0,-1.4984,-1.4984,-1.4968,-1.4992,-1.4984,-1.4968,-1.4968,0.0,-1.4968,-1.4968,-1.4968,-1.5122,-1.6492,0.0,0.0,0.0,0.0,0.0,0.0,0.0,0.0,0.0,0.0,0.0,-2.4035,-2.4098,-2.3937,-2.4195,-2.4479,-2.4648,-2.5187,-2.5921,-2.6758,-2.6609,-2.6413,-2.6427,-2.6919,-2.7674,-2.8996,-2.9424,-3.0026,-3.135,-3.2034,-3.221,-3.17,-2.9607,-2.7943,-2.846,-3.0128,-3.1632,-3.2211,-3.2491,-3.291,-3.4038,-3.5177,-3.6016,-3.6035,-3.6035,-3.6035,-3.6035,-3.6035,-3.6035,-3.6035,-3.6035,-3.6035,-3.6035,-3.6035,-3.6035,-3.6035,-3.5957,-3.6014,-3.6034,-3.5955,-3.6182,-3.6738,-3.9539,-4.1879,-0.8915,0.0,-0.9387,-0.9231,0.0,-0.9075,-0.9231,-1.0164,-1.094,-1.1101,-1.0802,-1.0381,-1.0409,-1.089,-1.0943,-1.116,-1.1549,-1.2523,-1.3047,-1.2963,-1.2963,-1.2963,-1.2963,-1.2963,-1.2963,-1.2963,-1.2963,-1.3116,-1.3269,-1.3269,-1.3589,-1.3895,-1.4388,-1.4715,-1.5194,-1.5353,-1.5382,-1.5098,-1.5025,-1.4814,-1.433,-1.4814,-1.4984,-1.4968,-1.4968,0.0,0.0,0.0,0.0,0.0,0.0,0.0,0.0,-2.0807,0.0,-2.3277,-2.4179,-2.4569,-2.4436,-2.4409,-2.4409,-2.4409,-2.4409,-2.4356,-2.4499,-2.463,-2.4933,-2.5235,-2.564,-2.6243,-2.6919,-2.6849,-2.6749,-2.6749,-2.6896,-2.7274,-2.797,-2.8114,-2.8403,-2.9107,-2.925,-2.925,-2.925,-2.8059,-2.7048,-2.7033,-2.8233,-2.9393,-2.9393,-3.0518,-3.207,-3.3623,-3.504,-3.6035,-3.6035,-3.6035,-3.6035,-3.6035,-3.6035,-3.6035,-3.6035,-3.6035,-3.6035,-3.6035,-3.6035,-3.6035,-3.6035,-3.6035,-3.6035,-3.6035,-3.6035,-3.6054,-3.6023,-3.7707,-3.9408,-0.6729,-0.9387,-0.7842,-0.785,-0.91,-0.7711,-0.7091,-0.7248,0.0,0.0,0.0,-0.8115,-0.7986,-0.8636,-0.8861,-0.9391,-1.0389,-1.2353,-1.3178,-1.3037,-1.3044,-1.3037,-1.3037,-1.3037,-1.3044,-1.3037,-1.3037,-1.3037,-1.2869,-1.3037,-1.303,-1.3171,-1.3828,-1.4479,-1.496,-1.5417,-1.5488,-1.5333,-1.5155,-1.4724,-1.4045,-1.4692,-1.5,-1.4968,-1.4968,-1.4968,-1.4968,-1.4968,-1.4968,-1.5122,-1.7844,-1.951,-1.9811,-2.2856,-2.4663,-2.4636,-2.4636,-2.4636,-2.4636,-2.4636,-2.4636,-2.4636,-2.4636,-2.4784,-2.5079,-2.5079,-2.5226,-2.5506,-2.5946,-2.6414,-2.6764,-2.6867,-2.6838,-2.6838,-2.6983,-2.6998,-2.6998,-2.6998,-2.7129,-2.6998,-2.7144,-2.6998,-2.7129,-2.7129,-2.6998,-2.6983,-2.7114,-2.6998,-2.7274,-2.9393,-3.1367,-3.2491,-3.4176,-3.5606,-3.5957,-3.6055,-3.6035,-3.6035,-3.6035,-3.6035,-3.6035,-3.6035,-3.6035,-3.6035,-3.6035,-3.6035,-3.6035,-3.6035,-3.6035,-3.6035,-3.6035,-3.6035,-3.6035,-3.6016,-3.6674,-0.6108,-0.7677,-0.6174,-0.5566,-0.5731,-0.5468,-0.5492,-0.5647,-0.7179,-0.8468,-0.9206,-0.808,-0.711,-0.6458,-0.7444,-0.8792,-1.0514,-1.2514,-1.3411,-1.3336,-1.3336,-1.3336,-1.3342,-1.3342,-1.3342,-1.3342,-1.3336,-1.3336,-1.3336,-1.3336,-1.3336,-1.3487,-1.383,-1.4489,-1.5303,-1.565,-1.5723,-1.5699,-1.5209,-1.4885,-1.4883,-1.4891,-1.4975,-1.4976,-1.4968,-1.4968,-1.4968,-1.4968,-1.4968,-1.5122,-1.6788,-1.8309,-1.9811,-2.2793,-2.4621,-2.4649,-2.4636,-2.4636,-2.4636,-2.4636,-2.4636,-2.4636,-2.4636,-2.4636,-2.4636,-2.4636,-2.4784,-2.4784,-2.5226,-2.5548,-2.5884,-2.6282,-2.6531,-2.6546,-2.6838,-2.6998,-2.6998,-2.6998,-2.6998,-2.6998,-2.6998,-2.6998,-2.6998,-2.6998,-2.6998,-2.6998,-2.7027,-2.7013,-2.7334,-2.8403,-2.952,-3.0091,-3.2351,-3.4445,-3.564,-3.6054,-3.6074,-3.6035,-3.6035,-3.6035,-3.6035,-3.6035,-3.6035,-3.6035,-3.6035,-3.6035,-3.6035,-3.6035,-3.6035,-3.6035,-3.6035,-3.6035,-3.6035,-3.6035,-3.6423,-0.4609,-0.5909,-0.45,-0.419,-0.4995,-0.4214,-0.375,-0.377,-0.4562,-0.5196,-0.5523,-0.5066,-0.4586,-0.4259,-0.4774,-0.5955,-0.7817,-0.9657,-1.0517,-1.0554,-1.1558,-1.1896,-1.2056,-1.2899,-1.3397,-1.3397,-1.3397,-1.3397,-1.3397,-1.3397,-1.3397,-1.339,-1.3901,-1.4397,-1.5043,-1.5131,-1.5256,-1.5583,-1.5329,-1.5313,-1.5232,-1.5232,-1.5192,-1.5268,-1.5171,-1.5114,-1.5114,-1.5017,-1.4968,-1.4968,-1.6492,-1.7702,-1.8613,-2.2355,-2.4188,-2.3438,-2.4179,-2.4636,-2.4636,-2.4636,-2.4636,-2.4636,-2.4636,-2.4636,-2.4636,-2.4636,-2.4636,-2.4636,-2.4931,-2.5239,-2.5226,-2.5667,-2.6107,-2.6399,-2.6546,-2.6692,-2.6983,-2.6998,-2.6998,-2.6998,-2.6998,-2.6998,-2.6998,-2.6998,-2.6998,-2.6998,-2.7115,-2.7305,-2.7466,-2.8073,-2.8658,-2.9329,-3.1084,-3.3423,-3.5508,-3.607,-3.6034,-3.6014,-3.5996,-3.6055,-3.6035,-3.6035,-3.6035,-3.6035,-3.6035,-3.6035,-3.6035,-3.6035,-3.6035,-3.6035,-3.6035,-3.6035,-3.6035,-3.6035,-3.6287,-0.3388,-0.4388,-0.3097,-0.3268,-0.442,-0.3113,-0.2635,-0.2656,-0.2657,-0.2643,-0.2627,-0.2647,-0.2657,-0.266,-0.2676,-0.369,-0.5371,-0.6372,-0.7208,-0.8219,-0.9888,-1.0721,-1.0887,-1.2561,-1.3397,-1.3397,-1.3397,-1.3397,-1.3397,-1.3397,-1.3397,-1.3397,-1.3901,-1.4232,-1.4555,-1.4713,-1.4886,-1.5365,-1.5618,-1.5618,-1.5577,-1.5577,-1.5561,-1.5671,-1.5382,-1.5301,-1.5293,-1.5122,-1.5025,-1.5025,-1.6212,-1.695,-1.755,-2.0609,-2.242,-2.2223,-2.3735,-2.4636,-2.4636,-2.4636,-2.4636,-2.4636,-2.4636,-2.4636,-2.4636,-2.4636,-2.4636,-2.4636,-2.4931,-2.4918,-2.4757,-2.5198,-2.58,-2.6239,-2.6385,-2.6546,-2.6983,-2.6998,-2.6998,-2.6998,-2.6998,-2.6998,-2.6998,-2.7071,-2.7159,-2.7261,-2.7422,-2.7686,-2.7891,-2.7949,-2.8148,-2.8966,-3.0193,-3.1599,-3.3839,-3.4477,-3.4808,-3.5088,-3.5889,-3.6089,-3.6012,-3.5915,-3.6328,-3.6387,-3.6348,-3.6387,-3.6328,-3.6328,-3.6191,-3.6053,-3.623,-3.6367,-3.623,-3.6367,-3.6211,-0.2765,-0.2771,-0.2632,-0.2658,-0.3015,-0.2682,-0.2683,-0.2687,-0.2688,-0.2687,-0.2682,-0.2687,-0.2687,-0.2688,-0.269,-0.3698,-0.5203,-0.3856,-0.486,-0.7881,-0.9888,-1.0721,-1.0721,-1.2395,-1.3397,-1.3403,-1.3231,-1.3231,-1.3397,-1.3397,-1.3397,-1.3403,-1.3901,-1.4066,-1.4232,-1.4555,-1.4878,-1.5381,-1.5695,-1.5926,-1.5934,-1.5917,-1.6004,-1.6015,-1.5671,-1.5488,-1.5488,-1.5309,-1.5212,-1.5195,-1.5212,-1.588,-1.7084,-1.6482,-1.781,-2.19,-2.3735,-2.4636,-2.4636,-2.4636,-2.4636,-2.4636,-2.4636,-2.4636,-2.4636,-2.4636,-2.4636,-2.4636,-2.4636,-2.4636,-2.4636,-2.5079,-2.5373,-2.58,-2.6239,-2.6546,-2.6983,-2.6998,-2.6998,-2.6998,-2.7013,-2.6998,-2.7056,-2.7438,-2.7717,-2.7788,-2.7847,-2.7949,-2.8037,-2.8052,-2.8037,-2.8342,-2.9328,-2.9486,-2.9214,-3.0258,-3.1912,-3.2791,-3.5244,-3.5849,-3.55,-3.6047,-3.7148,-3.6934,-3.707,-3.7051,-3.707,-3.6988,-3.6572,-3.6437,-3.6654,-3.7129,-3.6969,-3.693,-3.6855,-0.2146,-0.2657,-0.2669,-0.268,-0.2691,-0.2692,-0.2692,-0.2692,-0.2692,-0.2692,-0.2692,-0.2692,-0.2692,-0.2692,-0.2692,-0.3195,-0.3698,-0.3024,-0.336,-0.5038,-0.671,-0.7547,-0.771,-0.9383,-1.0721,-1.1724,-1.173,-1.2395,-1.3231,-1.3397,-1.3397,-1.3397,-1.3569,-1.3735,-1.3735,-1.3894,-1.4225,-1.4563,-1.5058,-1.5522,-1.5959,-1.5943,-1.6073,-1.5999,-1.5723,-1.5666,-1.565,-1.5496,-1.535,-1.5252,-1.5171,-1.5383,-1.588,-1.5303,-1.6793,-2.0553,-2.3129,-2.4636,-2.4636,-2.4636,-2.4636,-2.4636,-2.4636,-2.4636,-2.4636,-2.4636,-2.4636,-2.4636,-2.4636,-2.4636,-2.4636,-2.4784,-2.5079,-2.5653,-2.5946,-2.6239,-2.6998,-2.6998,-2.6998,-2.6998,-2.6983,-2.6938,-2.7143,-2.7896,-2.8401,-2.8335,-2.8242,-2.8286,-2.8447,-2.8505,-2.8505,-2.8505,-2.9105,-2.8866,-2.7876,-2.8401,-2.9633,-3.0419,-3.143,-3.2236,-3.4721,-3.5259,-3.6114,-3.7022,-3.7202,-3.7222,-3.7266,-3.7324,-3.7285,-3.6984,-3.7344,-3.7885,-3.7485,-3.7305,-3.709,-0.1837,-0.2691,-0.2692,-0.2692,-0.2692,-0.2692,-0.2692,-0.2692,-0.2692,-0.2692,-0.2692,-0.2692,-0.2692,-0.2692,-0.2692,-0.2692,-0.2692,-0.2692,-0.2692,-0.2859,-0.4535,-0.5371,-0.5538,-0.7212,-0.8887,-1.0388,-1.0721,-1.1724,-1.3231,-1.3397,-1.3397,-1.3397,-1.3397,-1.3397,-1.3397,-1.3397,-1.3569,-1.4066,-1.4217,-1.4878,-1.5891,-1.6048,-1.6048,-1.6032,-1.5918,-1.5845,-1.5845,-1.5675,-1.5369,-1.524,-1.5136,-1.5023,-1.4887,-1.4895,-1.6812,-2.0692,-2.3277,-2.4636,-2.4636,-2.4636,-2.4636,-2.4636,-2.4636,-2.4636,-2.4636,-2.4636,-2.4636,-2.4636,-2.4636,-2.4636,-2.4636,-2.4636,-2.4931,-2.5653,-2.58,-2.6093,-2.6838,-2.6998,-2.7027,-2.7115,-2.7143,-2.7213,-2.7551,-2.831,-2.8743,-2.8659,-2.8564,-2.8622,-2.8827,-2.8871,-2.8871,-2.8886,-2.8871,-2.8695,-2.8286,-2.8276,-2.8431,-2.8702,-2.9271,-3.0579,-3.3284,-3.3956,-3.5157,-3.6393,-3.6818,-3.7371,-3.7812,-3.7916,-3.7838,-3.7838,-3.8039,-3.8422,-3.7975,-3.7838,-3.7617,-0.1849,-0.2692,-0.2692,-0.2692,-0.2692,-0.2692,-0.2692,-0.2692,-0.2692,-0.2692,-0.2692,-0.2692,-0.2692,-0.2692,-0.2692,-0.2692,-0.2692,-0.2692,-0.2692,-0.2861,-0.4535,-0.5371,-0.5538,-0.7212,-0.8887,-1.0388,-1.0388,-1.1558,-1.3231,-1.3397,-1.3397,-1.3397,-1.3397,-1.3397,-1.3397,-1.3397,-1.3569,-1.4066,-1.37,-1.4196,-1.5727,-1.5891,-1.6048,-1.6048,-1.6032,-1.6024,-1.6008,-1.5853,-1.5594,-1.5108,-1.4805,-1.4618,-1.4563,-1.4911,-1.796,-2.34,-2.4488,-2.4636,-2.4636,-2.4636,-2.4636,-2.4636,-2.4636,-2.4636,-2.4636,-2.4636,-2.4636,-2.4636,-2.4636,-2.4636,-2.4636,-2.4636,-2.4931,-2.5653,-2.58,-2.6093,-2.6838,-2.7027,-2.7144,-2.7349,-2.7169,-2.7609,-2.8635,-2.8783,-2.8901,-2.8924,-2.8856,-2.8856,-2.8871,-2.8886,-2.8886,-2.8886,-2.8886,-2.8871,-2.8827,-2.8651,-2.8695,-2.8946,-2.9045,-2.9519,-3.1109,-3.2641,-3.4267,-3.5591,-3.6091,-3.6991,-3.802,-3.8476,-3.8398,-3.8379,-3.834,-3.8504,-3.8387,-3.8437,-3.832,-0.185,-0.2692,-0.2692,-0.2692,-0.2692,-0.2692,-0.2692,-0.2692,-0.2692,-0.2692,-0.2692,-0.2692,-0.2692,-0.2692,-0.2692,-0.2692,-0.2692,-0.2692,-0.2692,-0.2692,-0.3363,-0.3698,-0.3698,-0.4369,-0.6211,-0.872,-0.9049,-1.0554,-1.3065,-1.3397,-1.3397,-1.3397,-1.3397,-1.3397,-1.3397,-1.3397,-1.3569,-1.4059,-1.37,-1.4024,-1.5208,-1.5711,-1.6048,-1.6048,-1.6048,-1.6048,-1.6048,-1.5647,-1.5412,-1.5139,-1.5007,-1.4844,-1.4774,-1.6834,-1.9908,-2.3987,-2.4541,-2.4636,-2.4636,-2.4636,-2.4636,-2.4636,-2.4636,-2.4636,-2.4636,-2.4636,-2.4636,-2.4636,-2.4636,-2.4636,-2.4636,-2.4636,-2.4784,-2.5373,-2.5653,-2.5946,-2.6574,-2.7012,-2.7349,-2.7495,-2.7459,-2.7922,-2.8564,-2.8909,-2.8939,-2.8871,-2.8886,-2.8886,-2.8886,-2.8886,-2.8886,-2.8886,-2.8886,-2.8886,-2.8886,-2.8886,-2.8871,-2.8856,-2.9094,-2.9807,-3.1008,-3.1485,-3.2792,-3.4134,-3.4936,-3.6015,-3.7032,-3.8302,-3.8321,-3.8574,-3.8574,-3.8574,-3.8574,-3.8574,-3.8516,-0.2187,-0.2692,-0.2692,-0.2692,-0.2692,-0.2692,-0.2692,-0.2692,-0.2692,-0.2692,-0.2692,-0.2692,-0.2692,-0.2692,-0.2692,-0.2692,-0.2692,-0.2692,-0.2692,-0.2692,-0.2692,-0.2692,-0.2692,-0.2692,-0.4537,-0.7885,-0.9216,-1.1059,-1.3065,-1.3397,-1.3397,-1.3397,-1.3397,-1.3397,-1.3397,-1.3397,-1.3569,-1.3901,-1.3873,-1.421,-1.4758,-1.5569,-1.6073,-1.594,-1.5908,-1.6048,-1.6048,-1.5719,-1.5334,-1.5062,-1.5,-1.4937,-1.4704,-1.7827,-2.1291,-2.4175,-2.4541,-2.4636,-2.4636,-2.4636,-2.4636,-2.4636,-2.4636,-2.4636,-2.4636,-2.4636,-2.4636,-2.4636,-2.4636,-2.4636,-2.4636,-2.4636,-2.4784,-2.5079,-2.5359,-2.5842,-2.6234,-2.6891,-2.7405,-2.7682,-2.8075,-2.8453,-2.8827,-2.8871,-2.8886,-2.8886,-2.8886,-2.8886,-2.8886,-2.8886,-2.8886,-2.8886,-2.8886,-2.8886,-2.8886,-2.8886,-2.8886,-2.8871,-2.8871,-2.9649,-3.0114,-3.0423,-3.1178,-3.269,-3.3902,-3.4954,-3.6201,-3.7606,-3.8213,-3.8467,-3.8574,-3.8574,-3.8574,-3.8574,-3.8516,-0.2692,-0.2692,-0.2692,-0.2692,-0.2692,-0.2692,-0.2692,-0.2692,-0.2692,-0.2692,-0.2692,-0.2692,-0.2692,-0.2692,-0.2692,-0.2692,-0.2692,-0.2692,-0.2692,-0.2692,-0.2692,-0.2692,-0.2692,-0.2692,-0.4535,-0.8052,-1.1558,-1.3238,-1.3397,-1.3397,-1.3397,-1.3397,-1.3397,-1.3397,-1.3397,-1.3397,-1.3569,-1.4066,-1.439,-1.4614,-1.4899,-1.5624,-1.6121,-1.6076,-1.598,-1.5908,-1.6056,-1.5883,-1.5538,-1.4856,-1.5054,-1.4707,-1.4617,-1.7856,-2.1417,-2.3935,-2.4636,-2.4636,-2.4636,-2.4636,-2.4636,-2.4636,-2.4636,-2.4636,-2.4636,-2.4636,-2.4636,-2.4636,-2.4636,-2.4636,-2.4636,-2.4676,-2.4824,-2.5092,-2.5253,-2.5538,-2.6164,-2.6574,-2.7265,-2.8118,-2.8666,-2.8856,-2.8886,-2.8886,-2.8886,-2.8886,-2.8886,-2.8886,-2.8886,-2.8886,-2.8886,-2.8886,-2.8886,-2.8886,-2.8886,-2.8886,-2.8886,-2.8886,-2.8886,-2.9197,-2.9353,-2.9508,-2.9959,-3.1162,-3.2081,-3.3146,-3.5492,-3.6775,-3.8278,-3.8554,-3.8584,-3.8613,-3.8574,-3.8574,-3.8574,-0.2187,-0.2692,-0.2692,-0.2692,-0.2692,-0.2692,-0.2692,-0.2692,-0.2692,-0.2692,-0.2692,-0.2692,-0.2692,-0.2692,-0.2692,-0.2692,-0.2692,-0.2692,-0.2692,-0.2692,-0.2692,-0.2692,-0.2692,-0.2692,-0.4537,-0.8052,-1.1748,-1.3424,-1.3403,-1.3397,-1.3397,-1.3397,-1.3397,-1.3397,-1.3397,-1.3397,-1.3569,-1.4066,-1.457,-1.4931,-1.5632,-1.6097,-1.6319,-1.6284,-1.5917,-1.5894,-1.6219,-1.5774,-1.5381,-1.4713,-1.5162,-1.5384,-1.5903,-1.827,-2.1417,-2.4071,-2.4636,-2.4636,-2.4636,-2.4636,-2.4636,-2.4636,-2.4636,-2.4636,-2.4636,-2.4636,-2.4636,-2.4636,-2.4636,-2.4636,-2.4663,-2.4836,-2.485,-2.4811,-2.5269,-2.5581,-2.6046,-2.6805,-2.7812,-2.8497,-2.8827,-2.8886,-2.8886,-2.8886,-2.8886,-2.8886,-2.8886,-2.8886,-2.8886,-2.8886,-2.8886,-2.8886,-2.8886,-2.8886,-2.8886,-2.8886,-2.8886,-2.8886,-2.8886,-2.8886,-2.8886,-2.8886,-2.9353,-2.9804,-3.0577,-3.196,-3.4156,-3.5581,-3.6738,-3.8245,-3.8336,-3.8495,-3.8633,-3.8574,-3.8594,-0.1515,-0.2692,-0.2692,-0.2692,-0.2692,-0.2692,-0.2692,-0.2692,-0.2692,-0.2692,-0.2692,-0.2692,-0.2692,-0.2692,-0.2692,-0.2692,-0.2692,-0.2692,-0.2692,-0.2692,-0.2692,-0.2692,-0.2859,-0.353,-0.5038,-0.8219,-1.1754,-1.3431,-1.3403,-1.3397,-1.3397,-1.3397,-1.3397,-1.3397,-1.3397,-1.3397,-1.3569,-1.4066,-1.4239,-1.4592,-1.5293,-1.5593,-1.5806,-1.5766,-1.5409,-1.5409,-1.5615,-1.5529,-1.5285,-1.5058,-1.5216,-1.5504,-1.623,-1.8621,-2.1578,-2.383,-2.4568,-2.4636,-2.4636,-2.4636,-2.4636,-2.4636,-2.4636,-2.4636,-2.4636,-2.4636,-2.4636,-2.4636,-2.4636,-2.469,-2.4972,-2.4957,-2.5024,-2.4983,-2.5281,-2.5745,-2.6185,-2.7213,-2.8158,-2.8671,-2.8886,-2.8886,-2.8886,-2.8886,-2.8886,-2.8886,-2.8886,-2.8886,-2.8886,-2.8886,-2.8886,-2.8886,-2.8886,-2.8886,-2.8886,-2.8886,-2.8886,-2.8886,-2.8886,-2.8886,-2.8886,-2.8886,-2.9042,-2.9197,-2.9819,-3.0577,-3.2604,-3.2876,-3.3837,-3.5653,-3.7464,-3.8374,-3.8515,-3.8633,-3.8594,-0.101,-0.2525,-0.2692,-0.2694,-0.2697,-0.2694,-0.2692,-0.2692,-0.2692,-0.2692,-0.2692,-0.2692,-0.2692,-0.2692,-0.2692,-0.2692,-0.2692,-0.2692,-0.2692,-0.2692,-0.2692,-0.2692,-0.2859,-0.4034,-0.5541,-0.7885,-1.1081,-1.2759,-1.2899,-1.3231,-1.3397,-1.3397,-1.3397,-1.3397,-1.3397,-1.3397,-1.3569,-1.3901,-1.3721,-1.3784,-1.4216,-1.4448,-1.4448,-1.4426,-1.4673,-1.4666,-1.4769,-1.5455,-1.5719,-1.542,-1.5577,-1.5779,-1.6469,-1.87,-2.151,-2.4276,-2.4552,-2.4528,-2.4636,-2.4636,-2.4636,-2.4636,-2.4636,-2.4636,-2.4636,-2.4636,-2.4663,-2.4541,-2.4703,-2.481,-2.5214,-2.5348,-2.5304,-2.5504,-2.5711,-2.6126,-2.7172,-2.7933,-2.8374,-2.873,-2.8886,-2.8886,-2.8886,-2.8886,-2.8886,-2.8886,-2.8886,-2.8886,-2.8886,-2.8886,-2.8886,-2.8886,-2.8886,-2.8886,-2.8886,-2.8886,-2.8886,-2.8886,-2.8886,-2.8886,-2.8886,-2.8886,-2.8886,-2.9042,-2.9197,-2.9959,-3.0423,-3.1024,-3.1421,-3.2792,-3.4928,-3.7297,-3.8021,-3.7478,-3.7843,-0.0338,-0.085,-0.2194,-0.2706,-0.272,-0.2703,-0.2692,-0.2692,-0.2692,-0.2692,-0.2692,-0.2692,-0.2692,-0.2692,-0.2692,-0.2692,-0.2692,-0.2692,-0.2692,-0.2692,-0.2692,-0.2692,-0.2692,-0.3195,-0.4369,-0.6379,-0.8395,-1.006,-1.1392,-1.2746,-1.3403,-1.3397,-1.3397,-1.3397,-1.3397,-1.3397,-1.3403,-1.3569,-1.3562,-1.341,-1.3597,-1.4088,-1.4304,-1.4594,-1.4405,-1.474,-1.5302,-1.5806,-1.6125,-1.6076,-1.6068,-1.6048,-1.6199,-1.8739,-2.1435,-2.3731,-2.4605,-2.4636,-2.4488,-2.4636,-2.4636,-2.4636,-2.4663,-2.4636,-2.4636,-2.4636,-2.4581,-2.4714,-2.4794,-2.509,-2.5523,-2.5598,-2.5993,-2.6534,-2.6425,-2.6735,-2.7749,-2.8218,-2.8431,-2.8744,-2.8886,-2.8886,-2.8886,-2.8886,-2.8886,-2.8886,-2.8886,-2.8886,-2.8886,-2.8886,-2.8886,-2.8886,-2.8886,-2.8886,-2.8886,-2.8886,-2.8886,-2.8886,-2.8886,-2.8886,-2.8886,-2.8886,-2.8886,-2.8886,-2.8886,-2.9508,-2.9508,-2.9493,-3.0161,-3.0851,-3.143,-3.3247,-3.4574,-3.4804,-3.5867,0.0,0.0,-0.1529,-0.2375,-0.2717,-0.2701,-0.2692,-0.2692,-0.2692,-0.2692,-0.2692,-0.2692,-0.2692,-0.2692,-0.2692,-0.2692,-0.2692,-0.2692,-0.2692,-0.2692,-0.2692,-0.2692,-0.2692,-0.2692,-0.3707,-0.5237,-0.5566,-0.7757,-1.0461,-1.2483,-1.3298,-1.341,-1.3397,-1.3397,-1.3397,-1.3397,-1.3397,-1.3397,-1.3397,-1.3397,-1.339,-1.3728,-1.3936,-1.418,-1.4194,-1.4717,-1.563,-1.6045,-1.6221,-1.6341,-1.6357,-1.6292,-1.6213,-1.8409,-2.077,-2.2626,-2.3783,-2.4389,-2.3909,-2.4193,-2.4703,-2.4796,-2.4823,-2.489,-2.4983,-2.4997,-2.494,-2.4704,-2.5073,-2.5411,-2.5845,-2.6128,-2.6356,-2.6779,-2.7024,-2.7309,-2.8275,-2.8431,-2.8588,-2.89,-2.8886,-2.8886,-2.8886,-2.8886,-2.8886,-2.8886,-2.8886,-2.8886,-2.8886,-2.8886,-2.8886,-2.8886,-2.8886,-2.8886,-2.8886,-2.8886,-2.8886,-2.8886,-2.8886,-2.8886,-2.8886,-2.8886,-2.8886,-2.8886,-2.8886,-2.8886,-2.8886,-2.8886,-2.9153,-2.9513,-2.8916,-2.9487,-3.1462,-3.3146,-3.4203,0.0,-0.0,-0.0856,-0.1701,-0.2532,-0.2694,-0.2692,-0.2692,-0.2692,-0.2692,-0.2692,-0.2692,-0.2692,-0.2692,-0.2692,-0.2692,-0.2692,-0.2692,-0.2692,-0.2692,-0.2692,-0.2692,-0.2692,-0.2692,-0.338,-0.4592,-0.3401,-0.5942,-0.968,-1.2246,-1.3365,-1.3437,-1.3397,-1.3397,-1.3397,-1.3397,-1.3397,-1.3397,-1.3397,-1.3397,-1.3397,-1.3562,-1.3583,-1.3756,-1.4261,-1.481,-1.5439,-1.59,-1.6108,-1.6308,-1.6462,-1.6309,-1.6438,-1.8174,-1.9076,-2.0113,-2.2245,-2.3555,-2.2854,-2.3903,-2.4863,-2.5077,-2.513,-2.5224,-2.5384,-2.5411,-2.5272,-2.4853,-2.5212,-2.5718,-2.6141,-2.641,-2.6504,-2.7018,-2.7305,-2.779,-2.8275,-2.8588,-2.8886,-2.8886,-2.8886,-2.8886,-2.8886,-2.8886,-2.8886,-2.8886,-2.8886,-2.8886,-2.8886,-2.8886,-2.8886,-2.8886,-2.8886,-2.8886,-2.8886,-2.8886,-2.8886,-2.8886,-2.8886,-2.8886,-2.8886,-2.8886,-2.8886,-2.8886,-2.8886,-2.8886,-2.8886,-2.8886,-2.8871,-2.8842,-2.888,-2.9284,-3.0192,-3.1574,-3.2842,0.0,-0.0,-0.0172,-0.1196,-0.2555,-0.2703,-0.2692,-0.2692,-0.2692,-0.2692,-0.2692,-0.2692,-0.2692,-0.2692,-0.2692,-0.2692,-0.2692,-0.2692,-0.2692,-0.2692,-0.2692,-0.2692,-0.2692,-0.2692,-0.2878,-0.3237,-0.3063,-0.4927,-0.8509,-1.1571,-1.3378,-1.3424,-1.3397,-1.3397,-1.3397,-1.3397,-1.3397,-1.3397,-1.3397,-1.3397,-1.3397,-1.3397,-1.3569,-1.4066,-1.4728,-1.5231,-1.5459,-1.5933,-1.6165,-1.6324,-1.6332,-1.6373,-1.6668,-1.8046,-1.8341,-1.8077,-2.0337,-2.2401,-2.2979,-2.4036,-2.5344,-2.5398,-2.5424,-2.5438,-2.5491,-2.5558,-2.5471,-2.5436,-2.5697,-2.5999,-2.6397,-2.6346,-2.6544,-2.686,-2.7333,-2.7805,-2.8275,-2.8588,-2.8886,-2.8886,-2.8886,-2.8886,-2.8886,-2.8886,-2.8886,-2.8886,-2.8886,-2.8886,-2.8886,-2.8886,-2.8886,-2.8886,-2.8886,-2.8886,-2.8886,-2.8886,-2.8886,-2.8886,-2.8886,-2.8886,-2.8886,-2.8886,-2.8886,-2.8886,-2.8886,-2.8886,-2.8886,-2.8886,-2.8871,-2.8856,-2.8997,-2.9419,-3.0022,-3.087,-3.1654,0.0,0.0,0.0,-0.0512,-0.1528,-0.2362,-0.2692,-0.2692,-0.2692,-0.2692,-0.2692,-0.2692,-0.2692,-0.2692,-0.2692,-0.2692,-0.2692,-0.2692,-0.2692,-0.2692,-0.2692,-0.2692,-0.2692,-0.2695,-0.2707,-0.2732,-0.2728,-0.4765,-0.8001,-1.0371,-1.2185,-1.341,-1.3397,-1.3397,-1.3397,-1.3397,-1.3397,-1.3397,-1.3397,-1.3397,-1.3397,-1.3397,-1.3735,-1.4397,-1.5051,-1.5546,-1.5734,-1.5964,-1.6178,-1.6186,-1.6186,-1.6276,-1.6541,-1.7513,-1.7191,-1.6897,-1.7609,-2.0231,-2.1613,-2.3316,-2.4624,-2.5718,-2.5718,-2.5812,-2.5879,-2.5919,-2.5972,-2.5936,-2.6159,-2.6239,-2.6373,-2.6386,-2.6544,-2.6702,-2.7333,-2.7633,-2.8118,-2.8588,-2.8886,-2.8886,-2.8886,-2.8886,-2.8886,-2.8886,-2.8886,-2.8886,-2.8886,-2.8886,-2.8886,-2.8886,-2.8886,-2.8886,-2.8886,-2.8886,-2.8886,-2.8886,-2.8886,-2.8886,-2.8886,-2.8886,-2.8886,-2.8886,-2.8886,-2.8886,-2.8886,-2.8886,-2.8886,-2.8871,-2.9012,-2.8997,-2.9153,-2.9664,-3.0144,-3.0747,-3.1209,0.0,0.0,0.0,0.0,0.0,-0.1683,-0.2356,-0.2524,-0.2692,-0.2692,-0.2692,-0.2692,-0.2692,-0.2692,-0.2692,-0.2692,-0.2692,-0.2692,-0.2692,-0.2692,-0.2692,-0.2692,-0.2692,-0.2695,-0.2703,-0.2729,-0.2728,-0.4769,-0.7492,-0.9352,-1.1328,-1.3085,-1.3397,-1.3397,-1.3397,-1.3397,-1.3397,-1.3397,-1.3397,-1.3397,-1.3403,-1.3569,-1.4066,-1.4721,-1.5216,-1.5719,-1.5883,-1.6064,-1.6056,-1.6048,-1.6048,-1.6211,-1.6533,-1.6717,-1.676,-1.6064,-1.6478,-1.8079,-2.0716,-2.2408,-2.4065,-2.5856,-2.6026,-2.6119,-2.6293,-2.6319,-2.6306,-2.6333,-2.636,-2.636,-2.64,-2.64,-2.6386,-2.6702,-2.7175,-2.7633,-2.7961,-2.8417,-2.8886,-2.8886,-2.8886,-2.8886,-2.8886,-2.8886,-2.8886,-2.8886,-2.8886,-2.8886,-2.8886,-2.8886,-2.8886,-2.8886,-2.8886,-2.8886,-2.8886,-2.8886,-2.8886,-2.8886,-2.8886,-2.8886,-2.8886,-2.8886,-2.8886,-2.8886,-2.8886,-2.9042,-2.9027,-2.8983,-2.8968,-2.9138,-2.9664,-3.0345,-3.05,-3.0608,-3.1071,0.0,0.0,0.0,0.0,0.0,0.0,-0.101,-0.1682,-0.2188,-0.2692,-0.2692,-0.2692,-0.2692,-0.2692,-0.2692,-0.2692,-0.2692,-0.2692,-0.2692,-0.2692,-0.2692,-0.2692,-0.2692,-0.2692,-0.2697,-0.2703,-0.2884,-0.4595,-0.7484,-0.9347,-1.0808,-1.2752,-1.3397,-1.3397,-1.3397,-1.3397,-1.3397,-1.3397,-1.3397,-1.3397,-1.3403,-1.3901,-1.4397,-1.5216,-1.5546,-1.5883,-1.5883,-1.6048,-1.6048,-1.6048,-1.6048,-1.6081,-1.6146,-1.6137,-1.6154,-1.598,-1.5983,-1.745,-2.0366,-2.251,-2.4318,-2.5819,-2.6293,-2.6293,-2.6373,-2.64,-2.64,-2.64,-2.64,-2.64,-2.64,-2.64,-2.6544,-2.686,-2.7333,-2.779,-2.8118,-2.8588,-2.8886,-2.8886,-2.8886,-2.8886,-2.8886,-2.8886,-2.8886,-2.8886,-2.8886,-2.8886,-2.8886,-2.8886,-2.8886,-2.8886,-2.8886,-2.8886,-2.8886,-2.8886,-2.8886,-2.8886,-2.8886,-2.89,-2.8886,-2.8886,-2.8886,-2.9197,-2.9212,-2.9368,-2.9323,-2.9123,-2.9279,-2.9619,-3.033,-3.1197,-3.0995,-3.0933,-3.0917,0.0,0.0,0.0,0.0,0.0,0.0,-0.0168,-0.0673,-0.1178,-0.1515,-0.202,-0.2523,-0.2692,-0.2692,-0.2692,-0.2692,-0.2692,-0.2692,-0.2692,-0.2692,-0.2692,-0.2692,-0.2692,-0.2692,-0.2692,-0.2695,-0.2874,-0.4062,-0.6589,-0.8105,-1.01,-1.1742,-1.2893,-1.3397,-1.3397,-1.3397,-1.3397,-1.3397,-1.3397,-1.3397,-1.3569,-1.4405,-1.5231,-1.5381,-1.5711,-1.6048,-1.6048,-1.6048,-1.6048,-1.6048,-1.6048,-1.6048,-1.6048,-1.6056,-1.5916,-1.5964,-1.604,-1.7112,-1.9592,-2.1545,-2.3152,-2.4773,-2.574,-2.6386,-2.64,-2.64,-2.64,-2.64,-2.64,-2.64,-2.64,-2.64,-2.6544,-2.7018,-2.7333,-2.7805,-2.8275,-2.8573,-2.8886,-2.8886,-2.8886,-2.8886,-2.8886,-2.8886,-2.8886,-2.8886,-2.8886,-2.8886,-2.8886,-2.8886,-2.8886,-2.8886,-2.8886,-2.8886,-2.8886,-2.8886,-2.8886,-2.8886,-2.8886,-2.9042,-2.9056,-2.9212,-2.9353,-2.9664,-2.9679,-2.9694,-2.9804,-2.9759,-2.9928,-3.0083,-3.0778,-3.1288,-3.1288,-3.1273,-3.1241,0.0,0.0,0.0,0.0,0.0,0.0,0.0,0.0,0.0,-0.0505,-0.101,-0.1683,-0.202,-0.2188,-0.2356,-0.2524,-0.2692,-0.2692,-0.2692,-0.2692,-0.2692,-0.2692,-0.2692,-0.2692,-0.2692,-0.2692,-0.2694,-0.3698,-0.5547,-0.7391,-0.9054,-1.0887,-1.2561,-1.3397,-1.3397,-1.3397,-1.3397,-1.3397,-1.3397,-1.3403,-1.4066,-1.5074,-1.5908,-1.5546,-1.5883,-1.6048,-1.6048,-1.6048,-1.6048,-1.6048,-1.6048,-1.6048,-1.6048,-1.6048,-1.6048,-1.6048,-1.6048,-1.7009,-1.8463,-2.0403,-2.2189,-2.3976,-2.5422,-2.6228,-2.64,-2.64,-2.64,-2.64,-2.64,-2.64,-2.64,-2.64,-2.6702,-2.7018,-2.7476,-2.779,-2.8261,-2.8744,-2.8886,-2.8886,-2.8886,-2.8886,-2.8886,-2.8886,-2.8886,-2.8886,-2.8886,-2.8886,-2.8886,-2.8886,-2.8886,-2.8886,-2.8886,-2.8886,-2.8886,-2.8886,-2.8886,-2.8886,-2.8886,-2.9042,-2.9212,-2.9368,-2.9679,-2.9989,-2.9989,-3.0159,-3.0129,-3.0268,-3.0577,-3.0747,-3.1071,-3.1241,-3.1411,-3.1411,-3.1395,0.0,0.0,0.0,0.0,0.0,0.0,0.0,0.0,0.0,0.0,0.0,0.0,0.0,-0.0673,-0.1178,-0.185,-0.2356,-0.2524,-0.2524,-0.2692,-0.2692,-0.2692,-0.2692,-0.2692,-0.2692,-0.2692,-0.2692,-0.3698,-0.5203,-0.6878,-0.8716,-1.0554,-1.2063,-1.3397,-1.3397,-1.3397,-1.3397,-1.3397,-1.3397,-1.3728,-1.4555,-1.5396,-1.5891,-1.5883,-1.5883,-1.6048,-1.6048,-1.6048,-1.6048,-1.6048,-1.6048,-1.6048,-1.6048,-1.6048,-1.6048,-1.6048,-1.6205,-1.6689,-1.83,-1.9917,-2.1372,-2.3164,-2.5092,-2.607,-2.64,-2.64,-2.64,-2.64,-2.64,-2.64,-2.64,-2.64,-2.686,-2.7162,-2.7476,-2.8104,-2.8573,-2.8744,-2.8886,-2.8886,-2.8886,-2.8886,-2.8886,-2.8886,-2.8886,-2.8886,-2.8886,-2.8886,-2.8886,-2.8886,-2.8886,-2.8886,-2.8886,-2.8886,-2.8886,-2.8886,-2.8886,-2.8886,-2.9042,-2.9042,-2.9523,-2.9834,-3.0159,-3.0314,-3.0469,-3.0624,-3.0608,-3.0917,-3.1071,-3.1225,-3.1379,-3.1395,-3.1395,-3.1395,-3.1395,0.3694,0.0168,0.2184,0.4204,0.539,0.185,0.0,0.0,0.0,0.0,0.0,0.0,0.0,0.0,-0.0505,-0.0842,-0.1178,-0.1683,-0.2187,-0.2524,-0.2692,-0.2692,-0.2692,-0.2692,-0.2692,-0.2692,-0.2692,-0.2859,-0.4367,-0.5706,-0.7379,-0.9216,-1.1053,-1.2395,-1.3231,-1.3397,-1.3397,-1.3397,-1.3397,-1.3728,-1.4555,-1.5396,-1.6064,-1.6048,-1.6048,-1.6048,-1.6048,-1.6048,-1.6048,-1.6048,-1.6048,-1.6048,-1.6048,-1.6048,-1.6048,-1.6048,-1.6048,-1.6369,-1.7173,-1.8789,-2.0079,-2.1383,-2.3324,-2.5263,-2.607,-2.64,-2.64,-2.64,-2.64,-2.64,-2.64,-2.64,-2.686,-2.7319,-2.7633,-2.8104,-2.8573,-2.873,-2.8886,-2.8886,-2.8886,-2.8886,-2.8886,-2.8886,-2.8886,-2.8886,-2.8886,-2.8886,-2.8886,-2.8886,-2.8886,-2.8886,-2.8886,-2.8886,-2.8886,-2.8886,-2.8886,-2.9042,-2.9212,-2.9368,-2.9834,-3.0144,-3.0469,-3.0778,-3.0933,-3.1087,-3.1087,-3.1241,-3.1225,-3.1379,-3.1395,-3.1395,-3.1395,-3.1395,-3.1395,0.7573,0.3021,0.4698,0.7402,1.0131,0.4875,0.0,0.0,0.0,0.0,0.0,0.0,0.0,0.0,0.0,0.0,-0.0168,-0.0673,-0.1346,-0.1851,-0.2524,-0.2692,-0.2692,-0.2692,-0.2692,-0.2692,-0.2692,-0.2859,-0.3195,-0.4199,-0.5873,-0.8052,-1.0055,-1.1724,-1.2899,-1.3397,-1.3397,-1.3397,-1.3397,-1.3721,-1.439,-1.5396,-1.5899,-1.6056,-1.6048,-1.6048,-1.6048,-1.6048,-1.6048,-1.6048,-1.6048,-1.6048,-1.6048,-1.6048,-1.6048,-1.6048,-1.6048,-1.6048,-1.6689,-1.7665,-1.83,-1.9592,-2.1706,-2.4614,-2.607,-2.6386,-2.64,-2.64,-2.64,-2.64,-2.64,-2.64,-2.686,-2.7319,-2.7633,-2.8261,-2.873,-2.8886,-2.8886,-2.8886,-2.8886,-2.8886,-2.8886,-2.8886,-2.8886,-2.8886,-2.8886,-2.8886,-2.8886,-2.8886,-2.8886,-2.8886,-2.8886,-2.8886,-2.8886,-2.8886,-2.8886,-2.9212,-2.9368,-2.9679,-3.0159,-3.0469,-3.0778,-3.1087,-3.1395,-3.1395,-3.1241,-3.1395,-3.1395,-3.1395,-3.1395,-3.1395,-3.1395,-3.1395,-3.1395,1.0514,0.9751,0.6717,0.7566,1.0624,1.0283,0.7905,0.4868,0.168,0.0,0.0,0.0,0.0,0.0,0.0,0.0,0.0,0.0,0.0,0.0,-0.1683,-0.2524,-0.2692,-0.2692,-0.2692,-0.2692,-0.2692,-0.2692,-0.2692,-0.3027,-0.5206,-0.7718,-0.9049,-1.1225,-1.2733,-1.3231,-1.3397,-1.3397,-1.3397,-1.3728,-1.439,-1.5231,-1.5899,-1.6056,-1.6048,-1.6048,-1.6048,-1.6048,-1.6048,-1.6048,-1.6048,-1.6048,-1.6048,-1.6048,-1.6048,-1.6048,-1.6048,-1.6048,-1.6369,-1.7173,-1.83,-1.9592,-2.1372,-2.3964,-2.574,-2.6228,-2.6386,-2.6386,-2.6386,-2.6386,-2.6386,-2.6544,-2.7004,-2.7319,-2.779,-2.8275,-2.8588,-2.8886,-2.8886,-2.8886,-2.8886,-2.8886,-2.8886,-2.8886,-2.8886,-2.8886,-2.8886,-2.8886,-2.8886,-2.8886,-2.8886,-2.8886,-2.8886,-2.8886,-2.8886,-2.8886,-2.9042,-2.9368,-2.9709,-3.0159,-3.0469,-3.0778,-3.1087,-3.1241,-3.1395,-3.1395,-3.1395,-3.1395,-3.1395,-3.1395,-3.1395,-3.1395,-3.1395,-3.1395,-3.1395,1.1009,1.0795,0.9352,0.9469,1.0775,1.0775,0.9933,0.8584,0.723,0.3864,0.0,0.0,0.0,0.0,0.0,0.0,0.0,0.0,0.0,0.0,-0.1178,-0.2018,-0.2355,-0.2692,-0.2692,-0.2692,-0.2692,-0.2692,-0.2692,-0.2692,-0.4034,-0.6041,-0.7208,-0.9216,-1.0887,-1.2727,-1.3231,-1.3397,-1.3397,-1.3562,-1.3887,-1.4721,-1.5389,-1.6064,-1.6048,-1.6048,-1.6048,-1.6048,-1.6048,-1.6048,-1.6048,-1.6048,-1.6048,-1.6048,-1.6048,-1.6048,-1.6048,-1.6048,-1.6048,-1.6689,-1.7337,-1.8626,-1.9917,-2.1867,-2.4442,-2.4773,-2.5581,-2.5911,-2.6558,-2.6702,-2.6558,-2.686,-2.7319,-2.7633,-2.779,-2.8118,-2.8261,-2.8261,-2.8417,-2.8261,-2.8573,-2.8886,-2.8886,-2.8886,-2.8886,-2.8886,-2.8886,-2.8886,-2.873,-2.873,-2.8573,-2.8886,-2.8886,-2.8886,-2.8886,-2.9042,-2.9197,-2.9694,-3.019,-3.0485,-3.0778,-3.1087,-3.1241,-3.1395,-3.1395,-3.1395,-3.1395,-3.1395,-3.1395,-3.1395,-3.1395,-3.1395,-3.1395,-3.1395,-3.1395,1.1134,1.1096,1.1009,1.0911,1.0813,1.077,1.0764,1.0435,0.9258,0.5882,0.0,0.0,0.0,0.0,0.0,0.0,0.0,0.0,0.0,0.0,-0.0673,-0.1683,-0.2356,-0.2692,-0.2692,-0.2692,-0.2692,-0.2692,-0.2692,-0.2692,-0.3532,-0.4199,-0.487,-0.671,-0.9555,-1.1558,-1.2561,-1.2561,-1.3231,-1.3397,-1.3556,-1.4052,-1.5058,-1.5734,-1.5891,-1.5883,-1.5883,-1.6048,-1.6048,-1.6048,-1.6048,-1.6048,-1.6048,-1.6048,-1.6048,-1.6048,-1.6048,-1.6048,-1.6048,-1.6205,-1.6854,-1.83,-1.8626,-2.0403,-2.2189,-2.3496,-2.4786,-2.6149,-2.6756,-2.6874,-2.6743,-2.7532,-2.7647,-2.7805,-2.6991,-2.7148,-2.7148,-2.7134,-2.7462,-2.7619,-2.8133,-2.8831,-2.8047,-2.7891,-2.725,-2.7421,-2.7619,-2.7619,-2.7619,-2.7776,-2.8261,-2.8573,-2.8886,-2.8886,-2.8871,-2.9042,-2.9383,-3.0345,-3.067,-3.0639,-3.0933,-3.1241,-3.1395,-3.1395,-3.1395,-3.1395,-3.1395,-3.1395,-3.1395,-3.1395,-3.1395,-3.1395,-3.1395,-3.1395,-3.1395,1.121,1.1107,1.1101,1.1031,1.0916,1.0791,1.0748,1.009,0.6885,0.3696,0.0673,0.0,0.0,0.0,0.0,0.0,0.0,0.0,0.0,0.0,-0.0337,-0.1346,-0.202,-0.2524,-0.2692,-0.2692,-0.2692,-0.2692,-0.2692,-0.2692,-0.2859,-0.3027,-0.3532,-0.4703,-0.7885,-0.9888,-1.0726,-1.1059,-1.2567,-1.3238,-1.3397,-1.3556,-1.4397,-1.5396,-1.5562,-1.5711,-1.5883,-1.6048,-1.6048,-1.6048,-1.6048,-1.6048,-1.6048,-1.6048,-1.6048,-1.6048,-1.6048,-1.6048,-1.6048,-1.6048,-1.6854,-1.7819,-1.7983,-1.9115,-2.105,-2.2522,-2.4381,-2.5775,-2.6321,-2.7114,-2.7588,-2.7889,-2.7504,-2.7004,-2.6201,-2.5872,-2.5859,-2.5859,-2.6017,-2.7032,-2.8103,-2.8647,-2.7476,-2.6567,-2.5622,-2.5477,-2.6162,-2.6346,-2.6346,-2.6504,-2.6819,-2.6977,-2.7449,-2.8446,-2.8431,-2.8915,-2.9398,-3.0531,-3.115,-3.1118,-3.1087,-3.1395,-3.1395,-3.1395,-3.1395,-3.1395,-3.1395,-3.1395,-3.1395,-3.1395,-3.1395,-3.1395,-3.1395,-3.1395,-3.1395,1.1373,1.133,1.1248,1.1188,1.1128,1.0938,1.0693,0.9666,0.4885,0.2519,0.2856,0.1346,0.0,0.0,0.0,0.0,0.0,0.0,0.0,0.0,-0.0505,-0.1178,-0.1851,-0.2523,-0.2692,-0.2692,-0.2692,-0.2692,-0.2692,-0.2692,-0.2692,-0.2692,-0.2859,-0.4034,-0.6208,-0.8048,-0.9388,-1.0726,-1.2407,-1.3424,-1.3403,-1.3397,-1.3887,-1.5058,-1.5381,-1.5546,-1.5883,-1.6048,-1.6048,-1.6048,-1.6048,-1.6048,-1.6048,-1.6048,-1.6048,-1.6048,-1.6048,-1.6048,-1.6048,-1.6048,-1.6213,-1.6854,-1.7173,-1.7819,-1.9277,-1.9917,-2.2301,-2.469,-2.4554,-2.4849,-2.4874,-2.4798,-2.4602,-2.4602,-2.4283,-2.443,-2.4418,-2.443,-2.4761,-2.644,-2.7671,-2.6652,-2.5396,-2.4489,-2.3683,-2.3413,-2.3939,-2.4418,-2.4577,-2.4589,-2.4748,-2.4907,-2.5384,-2.686,-2.7847,-2.866,-2.9398,-3.0485,-3.1103,-3.1257,-3.1395,-3.1395,-3.1395,-3.1395,-3.1395,-3.1395,-3.1395,-3.1395,-3.1395,-3.1395,-3.1395,-3.1395,-3.1395,-3.1395,-3.1395,1.1455,1.1444,1.1324,1.127,1.1243,1.1063,1.08,0.9899,0.5738,0.3862,0.3023,0.0,0.0,0.0,0.0,0.0,0.0,0.0,0.0,0.0,-0.0505,-0.1178,-0.1851,-0.2355,-0.2692,-0.2692,-0.2692,-0.2692,-0.2692,-0.2692,-0.2692,-0.2692,-0.2692,-0.3363,-0.487,-0.6208,-0.7547,-0.9221,-1.0909,-1.3444,-1.3424,-1.3569,-1.3887,-1.4555,-1.5051,-1.5381,-1.5875,-1.6048,-1.6048,-1.6048,-1.6048,-1.6048,-1.6048,-1.6048,-1.6048,-1.6048,-1.6048,-1.6048,-1.6048,-1.6048,-1.6048,-1.6205,-1.6048,-1.6525,-1.7656,-1.8463,-1.9622,-2.1286,-2.1911,-2.1867,-2.1845,-2.1778,-2.2992,-2.3164,-2.2831,-2.298,-2.282,-2.2671,-2.2671,-2.4517,-2.5883,-2.4689,-2.3117,-2.2453,-2.1607,-2.1651,-2.1706,-2.235,-2.282,-2.2831,-2.3152,-2.33,-2.3596,-2.4869,-2.686,-2.8733,-2.9457,-3.0454,-3.0917,-3.1395,-3.1395,-3.1395,-3.1395,-3.1395,-3.1395,-3.1395,-3.1395,-3.1395,-3.1395,-3.1395,-3.1395,-3.1395,-3.1395,-3.1395,-3.1395,1.1444,1.1427,1.1319,1.1259,1.1243,1.1118,1.102,1.0758,1.0488,0.6556,0.0504,0.0505,0.0,0.0,0.0,0.0,0.0,0.0,0.0,0.0,0.0,0.0,-0.202,-0.2524,-0.2692,-0.2692,-0.2692,-0.2692,-0.2692,-0.2692,-0.2692,-0.2692,-0.2692,-0.3027,-0.3698,-0.4535,-0.5538,-0.7383,-0.8887,-1.1587,-1.2759,-1.3424,-1.3901,-1.439,-1.4878,-1.5216,-1.5711,-1.6048,-1.6048,-1.6048,-1.6048,-1.6048,-1.6048,-1.6048,-1.6048,-1.6048,-1.6048,-1.6048,-1.6048,-1.6048,-1.6048,-1.6048,-1.6048,-1.6048,-1.6534,-1.7337,-1.8146,-1.8789,-1.941,-1.8979,-1.874,-2.0772,-2.2659,-2.2189,-2.1545,-2.1383,-2.0909,-2.0748,-2.0586,-2.1772,-2.3478,-2.2924,-2.0621,-1.9614,-2.0362,-2.0231,-2.0434,-2.0434,-2.0909,-2.1071,-2.1556,-2.235,-2.2625,-2.3034,-2.4844,-2.6689,-2.9516,-3.019,-3.0948,-3.1427,-3.1411,-3.1395,-3.1395,-3.1395,-3.1395,-3.1395,-3.1395,-3.1395,-3.1395,-3.1395,-3.1395,-3.1395,-3.1395,-3.1395,-3.1395,1.1281,1.1204,1.1166,1.115,1.1134,1.1025,1.0905,1.0629,1.0608,0.7897,0.3692,0.1008,0.0,0.0,0.0,0.0,0.0,0.0,0.0,0.0,0.0,0.0,-0.1515,-0.2355,-0.2524,-0.2692,-0.2692,-0.2692,-0.2692,-0.2692,-0.2692,-0.2692,-0.2692,-0.2692,-0.2859,-0.3195,-0.4199,-0.5036,-0.6372,-0.872,-1.1926,-1.3098,-1.3742,-1.4397,-1.4713,-1.5216,-1.5711,-1.6048,-1.6048,-1.6048,-1.6048,-1.6048,-1.6048,-1.6048,-1.6048,-1.6048,-1.6048,-1.6048,-1.6048,-1.6048,-1.6048,-1.6048,-1.6048,-1.6048,-1.6205,-1.6361,-1.6673,-1.7147,-1.7629,-1.7566,-1.7873,-1.9563,-2.0748,-2.0586,-2.011,-1.9947,-1.9632,-1.9632,-1.9469,-2.0455,-2.2151,-2.1643,-1.9341,-1.8865,-1.945,-1.9307,-1.9316,-1.9316,-1.9307,-1.9632,-1.9947,-2.0909,-2.105,-2.1296,-2.1838,-2.3293,-2.7107,-3.0096,-3.0856,-3.1443,-3.1411,-3.1395,-3.1395,-3.1395,-3.1395,-3.1395,-3.1395,-3.1395,-3.1395,-3.1395,-3.1395,-3.1395,-3.1395,-3.1395,-3.1395,1.1166,1.1101,1.1047,1.1003,1.0949,1.0878,1.0802,1.0748,1.0753,0.9244,0.7056,0.2182,0.0,0.0,0.0,0.0,0.0,0.0,0.0,0.0,0.0,0.0,-0.1346,-0.2187,-0.2524,-0.2692,-0.2692,-0.2692,-0.2692,-0.2692,-0.2692,-0.2692,-0.2692,-0.2692,-0.2692,-0.2859,-0.3363,-0.3528,-0.4193,-0.5697,-0.8382,-1.192,-1.3756,-1.457,-1.4728,-1.5216,-1.5883,-1.6048,-1.6048,-1.6048,-1.6048,-1.6048,-1.6048,-1.6048,-1.6048,-1.6048,-1.6048,-1.6048,-1.6048,-1.6048,-1.6048,-1.6048,-1.6048,-1.6048,-1.6048,-1.6205,-1.6205,-1.6361,-1.6534,-1.6698,-1.7363,-1.8037,-1.8356,-1.8673,-1.8673,-1.8837,-1.8837,-1.8837,-1.9316,-2.012,-2.0303,-2.0161,-1.9489,-1.901,-1.8673,-1.8837,-1.9,-1.9,-1.9,-1.899,-1.9153,-1.9479,-1.945,-1.9248,-1.9947,-2.1453,-2.557,-2.9227,-3.0995,-3.1427,-3.1395,-3.1395,-3.1395,-3.1395,-3.1395,-3.1395,-3.1395,-3.1395,-3.1395,-3.1395,-3.1395,-3.1395,-3.1395,-3.1395,-3.1395,1.1079,1.1058,1.0954,1.0851,1.0748,1.0748,1.0742,1.0737,1.0759,1.0608,0.9258,0.3864,0.0,0.0,0.0,0.0,0.0,0.0,0.0,0.0,0.0,0.0,-0.1346,-0.2187,-0.2692,-0.2692,-0.2692,-0.2692,-0.2692,-0.2692,-0.2692,-0.2692,-0.2692,-0.2692,-0.2692,-0.2692,-0.2859,-0.3027,-0.3023,-0.3688,-0.5195,-0.8887,-1.361,-1.46,-1.4735,-1.5043,-1.5711,-1.6048,-1.6048,-1.6048,-1.6048,-1.6048,-1.6048,-1.6048,-1.6048,-1.6048,-1.6048,-1.6048,-1.6048,-1.6048,-1.6048,-1.6048,-1.6048,-1.6048,-1.6048,-1.6048,-1.6048,-1.6048,-1.6377,-1.6706,-1.7372,-1.7855,-1.8183,-1.851,-1.8673,-1.8673,-1.8673,-1.8673,-1.9,-1.9479,-1.9479,-1.9336,-1.9173,-1.8673,-1.8673,-1.8673,-1.8673,-1.8673,-1.8673,-1.8673,-1.8837,-1.8837,-1.8981,-1.9105,-1.9634,-2.1486,-2.4756,-2.7862,-3.0314,-3.1427,-3.1395,-3.1395,-3.1395,-3.1395,-3.1395,-3.1395,-3.1395,-3.1395,-3.1395,-3.1395,-3.1395,-3.1395,-3.1395,-3.1395,-3.1686,1.0911,1.0824,1.0791,1.0764,1.0737,1.0737,1.0737,1.0737,1.0759,1.0608,1.0283,0.8429,0.4715,0.0,0.0,0.0,0.0,0.0,0.0,0.0,0.0,0.0,-0.1346,-0.2187,-0.2692,-0.2692,-0.2692,-0.2692,-0.2692,-0.2692,-0.2692,-0.2692,-0.2692,-0.2692,-0.2692,-0.2692,-0.2692,-0.2692,-0.269,-0.2686,-0.3521,-0.6703,-1.0565,-1.3244,-1.4735,-1.5051,-1.5546,-1.6048,-1.6048,-1.6048,-1.6048,-1.6048,-1.6048,-1.6048,-1.6048,-1.6048,-1.6048,-1.6048,-1.6048,-1.6048,-1.6048,-1.6048,-1.6048,-1.6048,-1.6048,-1.6048,-1.6048,-1.6213,-1.6377,-1.6871,-1.7363,-1.7846,-1.8174,-1.851,-1.8673,-1.8673,-1.8673,-1.8673,-1.8673,-1.8673,-1.8673,-1.8673,-1.8673,-1.8673,-1.8673,-1.8673,-1.8673,-1.8673,-1.8673,-1.8837,-1.9,-1.9,-1.9479,-1.9745,-2.0128,-2.1315,-2.439,-2.7521,-3.033,-3.0948,-3.1395,-3.1395,-3.1395,-3.1395,-3.1395,-3.1395,-3.1395,-3.1395,-3.1395,-3.1395,-3.1549,-3.1549,-3.1549,-3.1718,-3.1993,1.0797,1.0737,1.0737,1.0737,1.0737,1.0737,1.0737,1.0742,1.0753,0.9756,0.8919,0.9277,0.6744,0.0,0.0,0.0,0.0,0.0,0.0,0.0,0.0,0.0,-0.1346,-0.2187,-0.2524,-0.2692,-0.2692,-0.2692,-0.2692,-0.2692,-0.2692,-0.2692,-0.2692,-0.2692,-0.2692,-0.2692,-0.2692,-0.2692,-0.2692,-0.269,-0.2686,-0.5198,-0.9226,-1.2407,-1.4246,-1.4555,-1.5546,-1.6048,-1.6048,-1.6048,-1.6048,-1.6048,-1.6048,-1.6048,-1.6048,-1.6048,-1.6048,-1.6048,-1.6048,-1.6048,-1.6048,-1.6048,-1.6048,-1.6048,-1.6048,-1.6048,-1.6048,-1.6048,-1.6048,-1.6542,-1.7545,-1.8037,-1.8183,-1.851,-1.8673,-1.8673,-1.8673,-1.8673,-1.8673,-1.8673,-1.8673,-1.8673,-1.8673,-1.8673,-1.8673,-1.8673,-1.8673,-1.8673,-1.8837,-1.9163,-1.9153,-1.9479,-2.013,-2.0596,-2.1168,-2.2009,-2.3502,-2.6799,-3.019,-3.0948,-3.1395,-3.1395,-3.1395,-3.1395,-3.1395,-3.1395,-3.1395,-3.1395,-3.1395,-3.1395,-3.1549,-3.1718,-3.1872,-3.2178,-3.2604,1.0737,1.0737,1.0737,1.0737,1.0737,1.0737,1.0737,1.0737,1.0753,0.9072,0.6721,0.8424,0.5219,0.0,0.0,0.0,0.0,0.0,0.0,0.0,0.0,0.0,-0.1346,-0.2187,-0.2524,-0.2692,-0.2692,-0.2692,-0.2692,-0.2692,-0.2692,-0.2692,-0.2692,-0.2692,-0.2692,-0.2692,-0.2692,-0.2692,-0.2692,-0.2692,-0.269,-0.3021,-0.7881,-1.107,-1.3244,-1.3542,-1.5208,-1.6048,-1.6048,-1.6048,-1.6048,-1.6048,-1.6048,-1.6048,-1.6048,-1.6048,-1.6048,-1.6048,-1.6048,-1.6048,-1.6048,-1.6048,-1.6048,-1.6048,-1.6048,-1.6048,-1.6048,-1.604,-1.604,-1.655,-1.7554,-1.821,-1.8356,-1.851,-1.8673,-1.8673,-1.8673,-1.8673,-1.8673,-1.8673,-1.8673,-1.8673,-1.8673,-1.8673,-1.8673,-1.8673,-1.8673,-1.8837,-1.9,-1.9479,-1.9805,-2.0292,-2.0941,-2.1566,-2.2028,-2.2715,-2.3672,-2.667,-2.9879,-3.0794,-3.1395,-3.1395,-3.1395,-3.1395,-3.1395,-3.1395,-3.1395,-3.1395,-3.1395,-3.1363,-3.2211,-3.2534,-3.279,-3.3078,-3.3651,1.0737,1.0737,1.0737,1.0737,1.0737,1.0737,1.0737,1.0737,1.0753,1.0263,0.8412,0.3696,0.0,0.0,0.0,0.0,0.0,0.0,0.0,0.0,0.0,0.0,-0.1346,-0.2187,-0.2524,-0.2692,-0.2692,-0.2692,-0.2692,-0.2692,-0.2692,-0.2692,-0.2692,-0.2692,-0.2692,-0.2692,-0.2694,-0.2697,-0.2698,-0.2699,-0.3035,-0.4038,-0.6874,-1.0049,-1.2567,-1.3887,-1.5381,-1.5883,-1.6048,-1.6048,-1.6048,-1.6048,-1.6048,-1.6048,-1.6048,-1.6048,-1.6048,-1.6048,-1.6048,-1.6048,-1.6048,-1.6048,-1.6048,-1.6048,-1.6048,-1.6048,-1.604,-1.6188,-1.6361,-1.7035,-1.7864,-1.8356,-1.851,-1.8673,-1.8673,-1.8673,-1.8673,-1.8673,-1.8673,-1.8673,-1.8673,-1.8673,-1.8673,-1.8673,-1.8837,-1.8837,-1.8837,-1.9,-1.9642,-2.013,-2.0617,-2.1103,-2.1761,-2.2084,-2.2545,-2.307,-2.4402,-2.725,-2.9583,-3.081,-3.1411,-3.1395,-3.1395,-3.1395,-3.1395,-3.1395,-3.1395,-3.1395,-3.1469,-3.1622,-3.2856,-3.3534,-3.3753,-3.3988,-3.4255]}]]